[[{"header":{"parameterUnit":"m.s-1","parameterCategory":1,"la1":30.6,"la2":28.766,"lo1":-90.7593,"lo2":-88.6598,"dy":0.0162,"dx":0.0183,"nx":116,"ny":114,"refTime":"2023-09-30T12:00:00:Z","depth":0,"parameterNumber":2,"parameterNumberName":"U-component_of_WINDS"},"data":[0.0,0.0,0.0,0.0,0.0,0.0,0.0,0.0,0.0,0.0,0.0,0.0,0.0,0.0,0.0,0.0,0.0,0.0,0.0,0.0,0.0,0.0,0.0,0.0,0.0,0.0,0.0,0.0,0.0,0.0,0.0,0.0,0.0,0.0,0.0,0.0,0.0,0.0,0.0,0.0,0.0,0.0,0.0,0.0,0.0,0.0,0.0,0.0,0.0,0.0,0.0,0.0,0.0,0.0,0.0,0.0,0.0,0.0,0.0,0.0,0.0,0.0,0.0,0.0,0.0,0.0,0.0,0.0,0.0,0.0,0.0,0.0,0.0,0.0,0.0,0.0,0.0,0.0,0.0,0.0,0.0,0.0,0.0,0.0,0.0,0.0,0.0,0.0,0.0,0.0,0.0,0.0,0.0,0.0,0.0,0.0,0.0,0.0,0.0,0.0,0.0,0.0,0.0,0.0,0.0,0.0,0.0,0.0,0.0,0.0,0.0,0.0,0.0,0.0,0.0,0.0,0.0,0.0,0.0,0.0,0.0,0.0,0.0,0.0,0.0,0.0,0.0,0.0,0.0,0.0,0.0,0.0,0.0,0.0,0.0,0.0,0.0,0.0,0.0,0.0,0.0,0.0,0.0,0.0,0.0,0.0,0.0,0.0,0.0,0.0,0.0,0.0,0.0,0.0,0.0,0.0,0.0,0.0,0.0,0.0,0.0,0.0,0.0,0.0,0.0,0.0,0.0,0.0,0.0,0.0,0.0,0.0,0.0,0.0,0.0,0.0,0.0,0.0,0.0,0.0,0.0,0.0,0.0,0.0,0.0,0.0,0.0,0.0,0.0,0.0,0.0,0.0,0.0,0.0,0.0,0.0,0.0,0.0,0.0,0.0,0.0,0.0,0.0,0.0,0.0,0.0,0.0,0.0,0.0,0.0,0.0,0.0,0.0,0.0,0.0,0.0,0.0,0.0,0.0,0.0,0.0,0.0,0.0,0.0,0.0,0.0,0.0,0.0,0.0,0.0,0.0,0.0,0.0,0.0,0.0,0.0,0.0,0.0,0.0,0.0,0.0,0.0,0.0,0.0,0.0,0.0,0.0,0.0,0.0,0.0,0.0,0.0,0.0,0.0,0.0,0.0,0.0,0.0,0.0,0.0,0.0,0.0,0.0,0.0,0.0,0.0,0.0,0.0,0.0,0.0,0.0,0.0,0.0,0.0,0.0,0.0,0.0,0.0,0.0,0.0,0.0,0.0,0.0,0.0,0.0,0.0,0.0,0.0,0.0,0.0,0.0,0.0,0.0,0.0,0.0,0.0,0.0,0.0,0.0,0.0,0.0,0.0,0.0,0.0,0.0,0.0,0.0,0.0,0.0,0.0,0.0,0.0,0.0,0.0,0.0,0.0,0.0,0.0,0.0,0.0,0.0,0.0,0.0,0.0,0.0,0.0,0.0,0.0,0.0,0.0,0.0,0.0,0.0,0.0,0.0,0.0,0.0,0.0,0.0,0.0,0.0,0.0,0.0,0.0,0.0,0.0,0.0,0.0,0.0,0.0,0.0,0.0,0.0,0.0,0.0,0.0,0.0,0.0,0.0,0.0,0.0,0.0,0.0,0.0,0.0,0.0,0.0,0.0,0.0,0.0,0.0,0.0,0.0,0.0,0.0,0.0,0.0,0.0,0.0,0.0,0.0,0.0,0.0,0.0,0.0,0.0,0.0,0.0,0.0,0.0,0.0,0.0,0.0,0.0,0.0,0.0,0.0,0.0,0.0,0.0,0.0,0.0,0.0,0.0,0.0,0.0,0.0,0.0,0.0,0.0,0.0,0.0,0.0,0.0,0.0,0.0,0.0,0.0,0.0,0.0,0.0,0.0,0.0,0.0,0.0,0.0,0.0,0.0,0.0,0.0,0.0,0.0,0.0,0.0,0.0,0.0,0.0,0.0,0.0,0.0,0.0,0.0,0.0,0.0,0.0,0.0,0.0,0.0,0.0,0.0,0.0,0.0,0.0,0.0,0.0,0.0,0.0,0.0,0.0,0.0,0.0,0.0,0.0,0.0,0.0,0.0,0.0,0.0,0.0,0.0,0.0,0.0,0.0,0.0,0.0,0.0,0.0,0.0,0.0,0.0,0.0,0.0,0.0,0.0,0.0,0.0,0.0,0.0,0.0,0.0,0.0,0.0,0.0,0.0,0.0,0.0,0.0,0.0,0.0,0.0,0.0,0.0,0.0,0.0,0.0,0.0,0.0,0.0,0.0,0.0,0.0,0.0,0.0,0.0,0.0,0.0,0.0,0.0,0.0,0.0,0.0,0.0,0.0,0.0,0.0,0.0,0.0,0.0,0.0,0.0,0.0,0.0,0.0,0.0,0.0,0.0,0.0,0.0,0.0,0.0,0.0,0.0,0.0,0.0,0.0,0.0,0.0,0.0,0.0,0.0,0.0,0.0,0.0,0.0,0.0,0.0,0.0,0.0,0.0,0.0,0.0,0.0,0.0,0.0,0.0,0.0,0.0,0.0,0.0,0.0,0.0,0.0,0.0,0.0,0.0,0.0,0.0,0.0,0.0,0.0,0.0,0.0,0.0,0.0,0.0,0.0,0.0,0.0,0.0,0.0,0.0,0.0,0.0,0.0,0.0,0.0,0.0,0.0,0.0,0.0,0.0,0.0,0.0,0.0,0.0,0.0,0.0,0.0,0.0,0.0,0.0,0.0,0.0,0.0,0.0,0.0,0.0,0.0,0.0,0.0,0.0,0.0,0.0,0.0,0.0,0.0,0.0,0.0,0.0,0.0,0.0,0.0,0.0,0.0,0.0,0.0,0.0,0.0,0.0,0.0,0.0,0.0,0.0,0.0,0.0,0.0,0.0,0.0,0.0,0.0,0.0,0.0,0.0,0.0,0.0,0.0,0.0,0.0,0.0,0.0,0.0,0.0,0.0,0.0,0.0,0.0,0.0,0.0,0.0,0.0,0.0,0.0,0.0,0.0,0.0,0.0,0.0,0.0,0.0,0.0,0.0,0.0,0.0,0.0,0.0,0.0,0.0,0.0,0.0,0.0,0.0,0.0,0.0,0.0,0.0,0.0,0.0,0.0,0.0,0.0,0.0,0.0,0.0,0.0,0.0,0.0,0.0,0.0,0.0,0.0,0.0,0.0,0.0,0.0,0.0,0.0,0.0,0.0,0.0,0.0,0.0,0.0,0.0,0.0,0.0,0.0,0.0,0.0,0.0,0.0,0.0,0.0,0.0,0.0,0.0,0.0,0.0,0.0,0.0,0.0,0.0,0.0,0.0,0.0,0.0,0.0,0.0,0.0,0.0,0.0,0.0,0.0,0.0,0.0,0.0,0.0,0.0,0.0,0.0,0.0,0.0,0.0,0.0,0.0,0.0,0.0,0.0,0.0,0.0,0.0,0.0,0.0,0.0,0.0,0.0,0.0,0.0,0.0,0.0,0.0,0.0,0.0,0.0,0.0,0.0,0.0,0.0,0.0,0.0,0.0,0.0,0.0,0.0,0.0,0.0,0.0,0.0,0.0,0.0,0.0,0.0,0.0,0.0,0.0,0.0,0.0,0.0,0.0,0.0,0.0,0.0,0.0,0.0,0.0,0.0,0.0,0.0,0.0,0.0,0.0,0.0,0.0,0.0,0.0,0.0,0.0,0.0,0.0,0.0,0.0,0.0,0.0,0.0,0.0,0.0,0.0,0.0,0.0,0.0,0.0,0.0,0.0,0.0,0.0,0.0,0.0,0.0,0.0,0.0,0.0,0.0,0.0,0.0,0.0,0.0,0.0,0.0,0.0,0.0,0.0,0.0,0.0,0.0,0.0,0.0,0.0,0.0,0.0,0.0,0.0,0.0,0.0,0.0,0.0,0.0,0.0,0.0,0.0,0.0,0.0,0.0,0.0,0.0,0.0,0.0,0.0,0.0,0.0,0.0,0.0,0.0,0.0,0.0,0.0,0.0,0.0,0.0,0.0,0.0,0.0,0.0,0.0,0.0,0.0,0.0,0.0,0.0,0.0,0.0,0.0,0.0,0.0,0.0,0.0,0.0,0.0,0.0,0.0,0.0,0.0,0.0,0.0,0.0,0.0,0.0,0.0,0.0,0.0,0.0,0.0,0.0,0.0,0.0,0.0,0.0,0.0,0.0,0.0,0.0,0.0,0.0,0.0,0.0,0.0,0.0,0.0,0.0,0.0,0.0,0.0,0.0,0.0,0.0,0.0,0.0,0.0,0.0,0.0,0.0,0.0,0.0,0.0,0.0,0.0,0.0,0.0,0.0,0.0,0.0,0.0,0.0,0.0,0.0,0.0,0.0,0.0,0.0,0.0,0.0,0.0,0.0,0.0,0.0,0.0,0.0,0.0,0.0,0.0,0.0,0.0,0.0,0.0,0.0,0.0,0.0,0.0,0.0,0.0,0.0,0.0,0.0,0.0,0.0,0.0,0.0,0.0,0.0,0.0,0.0,0.0,0.0,0.0,0.0,0.0,0.0,0.0,0.0,0.0,0.0,0.0,0.0,0.0,0.0,0.0,0.0,0.0,0.0,0.0,0.0,0.0,0.0,0.0,0.0,0.0,0.0,0.0,0.0,0.0,0.0,0.0,0.0,0.0,0.0,0.0,0.0,0.0,0.0,0.0,0.0,0.0,0.0,0.0,0.0,0.0,0.0,0.0,0.0,0.0,0.0,0.0,0.0,0.0,0.0,0.0,0.0,0.0,0.0,0.0,0.0,0.0,0.0,0.0,0.0,0.0,0.0,0.0,0.0,0.0,0.0,0.0,0.0,0.0,0.0,0.0,0.0,0.0,0.0,0.0,0.0,0.0,0.0,0.0,0.0,0.0,0.0,0.0,0.0,0.0,0.0,0.0,0.0,0.0,0.0,0.0,0.0,0.0,0.0,0.0,0.0,0.0,0.0,0.0,0.0,0.0,0.0,0.0,0.0,0.0,0.0,0.0,0.0,0.0,0.0,0.0,0.0,0.0,0.0,0.0,0.0,0.0,0.0,0.0,0.0,0.0,0.0,0.0,0.0,0.0,0.0,0.0,0.0,0.0,0.0,0.0,0.0,0.0,0.0,0.0,0.0,0.0,0.0,0.0,0.0,0.0,0.0,0.0,0.0,0.0,0.0,0.0,0.0,0.0,0.0,0.0,0.0,0.0,0.0,0.0,0.0,0.0,0.0,0.0,0.0,0.0,0.0,0.0,0.0,0.0,0.0,0.0,0.0,0.0,0.0,0.0,0.0,0.0,0.0,0.0,0.0,0.0,0.0,0.0,0.0,0.0,0.0,0.0,0.0,0.0,0.0,0.0,0.0,0.0,0.0,0.0,0.0,0.0,0.0,0.0,0.0,0.0,0.0,0.0,0.0,0.0,0.0,0.0,0.0,0.0,0.0,0.0,0.0,0.0,0.0,0.0,0.0,0.0,0.0,0.0,0.0,0.0,0.0,0.0,0.0,0.0,0.0,0.0,0.0,0.0,0.0,0.0,0.0,0.0,0.0,0.0,0.0,0.0,0.0,0.0,0.0,0.0,0.0,0.0,0.0,0.0,0.0,0.0,0.0,0.0,0.0,0.0,0.0,0.0,0.0,0.0,0.0,0.0,0.0,0.0,0.0,0.0,0.0,0.0,0.0,0.0,0.0,0.0,0.0,0.0,0.0,0.0,0.0,0.0,0.0,0.0,0.0,0.0,0.0,0.0,0.0,0.0,0.0,0.0,0.0,0.0,0.0,0.0,0.0,0.0,0.0,0.0,0.0,0.0,0.0,0.0,0.0,0.0,0.0,0.0,0.0,0.0,0.0,0.0,0.0,0.0,0.0,0.0,0.0,0.0,0.0,0.0,0.0,0.0,0.0,0.0,0.0,0.0,0.0,0.0,0.0,0.0,0.0,0.0,0.0,0.0,0.0,0.0,0.0,0.0,0.0,0.0,0.0,0.0,0.0,0.0,0.0,0.0,0.0,0.0,0.0,0.0,0.0,0.0,0.0,0.0,0.0,0.0,0.0,0.0,0.0,0.0,0.0,0.0,0.0,0.0,0.0,0.0,0.0,0.0,0.0,0.0,0.0,0.0,0.0,0.0,0.0,0.0,0.0,0.0,0.0,0.0,-3.2046,0.0,0.0,0.0,0.0,0.0,0.0,0.0,0.0,0.0,0.0,0.0,0.0,0.0,0.0,0.0,0.0,0.0,0.0,0.0,0.0,0.0,0.0,0.0,0.0,0.0,0.0,0.0,0.0,0.0,0.0,0.0,0.0,0.0,0.0,0.0,0.0,0.0,0.0,-2.7324,-2.7754,-2.8281,-2.8941,-3.0758,-3.1168,-3.038,0.0,0.0,0.0,0.0,0.0,0.0,0.0,0.0,0.0,0.0,0.0,0.0,0.0,0.0,0.0,0.0,0.0,0.0,0.0,0.0,0.0,0.0,0.0,0.0,0.0,0.0,0.0,0.0,0.0,0.0,0.0,0.0,0.0,0.0,0.0,0.0,0.0,0.0,0.0,0.0,0.0,0.0,0.0,0.0,0.0,0.0,0.0,0.0,0.0,0.0,0.0,0.0,0.0,0.0,0.0,0.0,0.0,0.0,0.0,0.0,0.0,0.0,0.0,0.0,0.0,0.0,0.0,0.0,0.0,0.0,0.0,-3.0877,0.0,0.0,0.0,0.0,0.0,0.0,0.0,0.0,0.0,0.0,0.0,0.0,0.0,0.0,0.0,0.0,0.0,0.0,0.0,0.0,0.0,0.0,0.0,-2.3046,-2.3779,-2.3459,-2.4844,-2.566,-2.5564,0.0,0.0,0.0,0.0,0.0,-2.6387,-2.6465,-2.6914,-2.7826,-2.8496,-2.9473,-3.0664,-3.1113,-3.0566,-2.916,-2.8789,0.0,0.0,0.0,0.0,0.0,0.0,0.0,0.0,0.0,0.0,0.0,0.0,0.0,0.0,0.0,0.0,0.0,0.0,0.0,0.0,0.0,0.0,0.0,0.0,0.0,0.0,0.0,0.0,0.0,0.0,0.0,0.0,0.0,0.0,0.0,0.0,0.0,0.0,0.0,0.0,0.0,0.0,0.0,0.0,0.0,0.0,0.0,0.0,0.0,0.0,0.0,0.0,0.0,0.0,0.0,0.0,0.0,0.0,0.0,0.0,0.0,0.0,0.0,-3.0397,-3.0276,-3.0066,-3.0066,-2.9505,-2.8641,-3.0241,-2.997,-2.8488,-2.9591,0.0,0.0,0.0,0.0,0.0,0.0,0.0,0.0,0.0,0.0,0.0,0.0,0.0,0.0,0.0,0.0,0.0,0.0,0.0,-2.1759,-2.171,-2.2092,-2.236,-2.231,-2.2731,-2.3564,-2.4832,-2.4539,-2.4931,-2.6259,-2.6309,-2.6328,-2.6387,-2.6738,-2.7363,-2.8203,-3.0156,-3.1562,-3.2461,-3.2891,-3.2969,-3.2656,-3.0781,-2.9941,-2.9902,0.0,0.0,0.0,0.0,0.0,0.0,0.0,0.0,0.0,0.0,0.0,0.0,0.0,0.0,0.0,0.0,0.0,0.0,0.0,0.0,0.0,0.0,0.0,0.0,0.0,0.0,0.0,0.0,0.0,0.0,0.0,0.0,0.0,0.0,0.0,0.0,0.0,0.0,0.0,0.0,0.0,-2.6789,-2.6869,0.0,0.0,0.0,0.0,0.0,0.0,0.0,0.0,0.0,0.0,0.0,0.0,0.0,-2.8907,-2.9389,-3.0551,-3.1014,-3.0746,-3.219,-3.2675,-3.2288,-3.2288,-3.1492,-3.0009,-2.9412,0.0,-2.864,-2.9333,0.0,0.0,0.0,0.0,0.0,0.0,0.0,0.0,0.0,0.0,0.0,0.0,0.0,0.0,0.0,0.0,0.0,0.0,0.0,0.0,0.0,-2.1252,-2.2286,-2.223,-2.3864,-2.475,-2.4524,-2.4305,-2.423,-2.419,-2.5051,-2.5512,-2.5512,-2.568,-2.6633,-2.8502,-3.1684,-3.375,-3.4609,-3.5039,-3.5254,-3.5195,-3.4004,-3.2656,-3.1269,-3.0644,0.0,0.0,0.0,0.0,0.0,0.0,0.0,0.0,0.0,0.0,0.0,0.0,0.0,0.0,0.0,0.0,0.0,0.0,0.0,0.0,0.0,0.0,0.0,0.0,0.0,0.0,0.0,0.0,0.0,0.0,0.0,0.0,0.0,0.0,0.0,0.0,0.0,0.0,0.0,-2.9654,-2.9391,-2.9996,-2.9529,-2.9123,0.0,0.0,0.0,0.0,0.0,0.0,0.0,0.0,0.0,-2.6886,-2.7789,-2.7964,-2.7229,-2.8326,-2.891,-2.9064,-2.9793,-3.0167,-3.0211,-3.0211,-2.9794,-2.9102,-2.8627,-2.8253,-2.79,-2.8304,-2.8201,-2.7761,0.0,0.0,0.0,0.0,-2.5374,-2.5478,0.0,0.0,0.0,0.0,0.0,0.0,0.0,0.0,0.0,0.0,0.0,0.0,-1.8357,-2.0735,-2.2346,-2.2342,-2.4381,-2.5319,-2.4369,-2.4004,-2.3492,-2.2809,-2.3838,-2.4386,-2.4386,-2.5105,-2.6579,-2.887,-3.2349,-3.4734,-3.5978,-3.6469,-3.6907,-3.7305,-3.6973,-3.5332,-3.2773,-3.2129,-3.1152,-3.0039,0.0,0.0,0.0,0.0,0.0,0.0,0.0,0.0,0.0,0.0,0.0,0.0,0.0,0.0,0.0,0.0,0.0,0.0,0.0,0.0,0.0,0.0,0.0,0.0,0.0,0.0,0.0,0.0,0.0,0.0,0.0,0.0,0.0,0.0,0.0,0.0,0.0,-3.0662,-3.0374,-3.0591,-2.982,-2.9227,0.0,0.0,0.0,0.0,0.0,0.0,-2.7348,-2.8248,-2.8095,-2.6471,-2.7402,-2.7409,-2.6413,-2.7068,-2.7575,-2.7936,-2.7936,-2.8003,-2.8221,-2.8221,-2.8221,-2.8221,-2.8221,-2.798,-2.7539,-2.7417,-2.704,-2.6653,-2.7137,-2.6982,-2.6246,-2.5375,-2.503,-2.4875,0.0,0.0,0.0,0.0,0.0,0.0,0.0,0.0,0.0,0.0,0.0,-1.8971,-1.9265,-2.0918,-2.2136,-2.2351,-2.2835,-2.3428,-2.4178,-2.3076,-2.2726,-2.3526,-2.3387,-2.326,-2.326,-2.5846,-2.8014,-2.9601,-3.1375,-3.3524,-3.6002,-3.6399,-3.7462,-3.9082,-3.9043,-3.7383,-3.4492,-3.3262,-3.2226,-3.1309,-3.0078,0.0,0.0,0.0,0.0,0.0,0.0,0.0,0.0,0.0,0.0,0.0,0.0,0.0,0.0,0.0,0.0,0.0,0.0,0.0,0.0,0.0,0.0,0.0,0.0,0.0,0.0,0.0,0.0,0.0,0.0,0.0,0.0,0.0,0.0,0.0,0.0,0.0,0.0,-2.4809,-2.6992,0.0,0.0,0.0,0.0,-2.7887,-2.8429,-2.8373,-2.7364,-2.7762,-2.7903,-2.762,-2.7714,-2.8073,-2.8858,-2.8911,-2.8804,-2.8564,-2.8564,-2.8417,-2.8221,-2.8221,-2.8221,-2.8221,-2.8221,-2.8207,-2.8087,-2.6894,-2.7108,-2.791,-2.5878,-2.6039,-2.7016,-2.4005,-2.3396,-2.3898,0.0,0.0,0.0,0.0,0.0,0.0,-1.4073,-1.4502,-1.5267,-1.636,-1.7427,-1.8712,-2.0292,-2.2405,-2.3888,-2.4369,-2.5024,-2.5221,-2.4812,-2.3292,-2.237,-2.2295,-2.2223,-2.2698,-2.3825,-2.719,-2.9001,-2.8989,-3.165,-3.3536,-3.4766,-3.633,-3.734,-3.8001,-3.8001,-3.7053,-3.5534,-3.5662,-3.4707,-3.3023,-3.1119,-3.0301,0.0,0.0,0.0,0.0,0.0,0.0,0.0,0.0,0.0,0.0,0.0,0.0,0.0,0.0,0.0,0.0,0.0,0.0,0.0,0.0,0.0,0.0,0.0,0.0,0.0,0.0,0.0,0.0,0.0,0.0,0.0,0.0,0.0,0.0,0.0,0.0,0.0,-2.9032,-2.8847,0.0,-2.893,-2.8557,-2.819,-2.777,-2.7969,-2.8095,-2.7889,-2.822,-2.8317,-2.827,-2.8283,-2.843,-2.8764,-2.8764,-2.8804,-2.8885,-2.8497,-2.835,-2.843,-2.8315,-2.8221,-2.8221,-2.8221,-2.8221,-2.8167,-2.7281,-2.7107,-2.7181,-2.6054,-2.5646,-2.5499,-2.4595,-2.4218,-2.4037,0.0,0.0,0.0,0.0,0.0,0.0,-1.2561,-1.2994,-1.3777,-1.5055,-1.6283,-1.7691,-1.9525,-2.2403,-2.4393,-2.4865,-2.6147,-2.6346,-2.4877,-2.33,-2.1937,-2.0931,-2.1254,-2.2424,-2.4459,-2.7191,-2.8477,-2.8308,-3.051,-3.2149,-3.3161,-3.4625,-3.5594,-3.6202,-3.6342,-3.5974,-3.5204,-3.5865,-3.4929,-3.2661,-3.0844,-2.9946,-2.9459,0.0,0.0,0.0,0.0,0.0,0.0,0.0,0.0,0.0,0.0,0.0,0.0,0.0,0.0,0.0,0.0,0.0,0.0,0.0,0.0,0.0,0.0,0.0,0.0,0.0,0.0,0.0,0.0,0.0,0.0,0.0,0.0,0.0,0.0,-2.8122,-2.8862,-3.002,-2.9428,-2.9172,-2.9844,-2.8906,-2.8335,-2.8335,-2.8221,-2.8323,-2.8724,-2.8845,-2.8951,-2.9045,-2.9152,-2.9152,-2.9045,-2.9152,-2.9192,-2.9179,-2.8684,-2.8497,-2.8591,-2.8283,-2.8114,-2.7939,-2.814,-2.8114,-2.7913,-2.7535,-2.7241,-2.6907,-2.6226,-2.5531,-2.4943,-2.5037,-2.477,-2.4342,0.0,0.0,0.0,0.0,0.0,0.0,-1.1055,-1.2236,-1.3332,-1.376,-1.5041,-1.6117,-1.692,-2.0813,-2.34,-2.3667,-2.5767,-2.6241,-2.4223,-2.2948,-2.1445,-1.9564,-2.0561,-2.2418,-2.5064,-2.5692,-2.656,-2.7709,-2.8003,-2.9286,-3.1324,-3.1392,-3.2278,-3.39,-3.4422,-3.4111,-3.3313,-3.3656,-3.2439,-3.0219,-2.9067,-2.8212,-2.7374,0.0,0.0,0.0,0.0,0.0,0.0,0.0,0.0,0.0,0.0,0.0,0.0,0.0,0.0,0.0,0.0,0.0,0.0,0.0,0.0,0.0,0.0,0.0,0.0,0.0,0.0,0.0,0.0,0.0,0.0,0.0,0.0,0.0,-2.6129,-2.835,-2.9077,-2.7109,-2.8457,-2.9285,-2.8711,-2.9179,-2.9526,-2.9513,-2.9259,-2.9352,-2.9913,-2.9673,-2.9633,-2.99,-3.0194,-3.0194,-2.9887,-3.0207,-3.0074,-2.9499,-2.9192,-2.8898,-2.8604,-2.8297,-2.7926,-2.7321,-2.798,-2.7899,-2.7308,-2.7589,-2.7535,-2.7188,-2.6319,-2.5798,-2.5491,-2.5197,-2.489,-2.4583,0.0,0.0,0.0,0.0,0.0,-0.9485,-0.9485,-0.9759,-1.061,-1.2302,-1.3852,-1.5584,-1.757,-2.0043,-2.1642,-2.1873,-2.2262,-2.2473,-2.2589,-2.0802,-2.0002,-2.0606,-2.2178,-2.3981,-2.5985,-2.66,-2.7268,-2.8016,-2.8181,-2.8473,-2.9118,-3.0661,-3.1677,-3.2161,-3.2253,-3.2191,-3.1859,-3.0418,-2.9303,-2.8443,-2.8776,-2.9039,-2.8927,0.0,0.0,0.0,0.0,0.0,0.0,0.0,0.0,0.0,0.0,0.0,0.0,0.0,0.0,0.0,0.0,0.0,0.0,0.0,0.0,0.0,0.0,0.0,0.0,0.0,0.0,0.0,0.0,0.0,0.0,0.0,-2.4369,-2.5725,-2.6328,-2.7368,-2.8276,-2.9011,-2.9686,-3.006,-2.9887,-3.0221,-3.0341,-3.014,-3.0434,-3.0608,-3.0555,-3.0274,-2.9967,-2.9619,-2.9887,-2.9793,-2.9285,-2.9993,-3.0167,-2.9793,-2.9499,-2.9205,-2.8911,-2.8617,-2.827,-2.7993,-2.8154,-2.814,-2.798,-2.7749,-2.7655,-2.7509,-2.6841,-2.6279,-2.5798,-2.5504,-2.4943,-2.4249,0.0,0.0,0.0,0.0,0.0,-0.8885,-0.8885,-0.8811,-0.9349,-1.0902,-1.235,-1.388,-1.5587,-1.801,-1.9589,-1.9617,-2.0258,-2.0515,-2.0153,-1.8237,-1.836,-2.1102,-2.2422,-2.4252,-2.6907,-2.7388,-2.7886,-2.8221,-2.8221,-2.8221,-2.8221,-2.9453,-3.0093,-3.0093,-3.0093,-3.0093,-3.0024,-2.8712,-2.8127,-2.7982,-2.8344,-2.8424,-2.8148,-2.5654,-2.5653,-2.6677,-2.5464,-2.5642,-2.6433,-2.5454,0.0,0.0,0.0,0.0,0.0,0.0,0.0,0.0,0.0,0.0,0.0,0.0,0.0,0.0,0.0,0.0,0.0,0.0,0.0,0.0,0.0,0.0,0.0,0.0,-2.5358,-2.6827,-2.7575,-2.7869,-2.8524,-2.994,-3.0368,-3.0635,-3.0889,-3.0955,-3.0955,-3.0915,-3.1102,-3.1263,-3.1343,-3.1183,-3.0768,-3.006,-3.0555,-3.0381,-2.9419,-3.0287,-3.0568,-3.0274,-2.986,-2.9579,-2.9392,-2.8845,-2.843,-2.8221,-2.8221,-2.8154,-2.7949,-2.7909,-2.7816,0.0,0.0,0.0,0.0,0.0,-2.501,-2.4489,0.0,0.0,0.0,0.0,0.0,-0.8885,-0.8885,-0.8851,-0.9123,-0.9788,-1.0846,-1.1789,-1.2433,-1.5422,-1.7264,-1.7132,-1.8782,-1.9065,-1.7167,-1.5899,-1.6949,-2.0916,-2.1474,-2.3353,-2.6864,-2.7233,-2.7532,-2.7799,-2.7799,-2.7968,-2.8221,-2.8221,-2.8221,-2.8221,-2.8221,-2.8221,-2.8221,-2.8221,-2.8221,-2.8207,-2.7816,-2.7215,-2.6333,-2.497,-2.551,-2.6663,-2.4347,-2.4567,-2.5632,-2.4034,0.0,0.0,0.0,0.0,0.0,0.0,0.0,0.0,0.0,0.0,0.0,0.0,0.0,0.0,0.0,0.0,0.0,0.0,0.0,0.0,0.0,0.0,0.0,0.0,-2.6148,-2.7573,-2.8974,-2.9176,-2.9499,-3.0354,-3.0715,-3.1116,-3.1664,-3.1476,-3.145,-3.1744,-3.153,-3.1597,-3.2131,0.0,0.0,0.0,0.0,-3.141,-3.0074,-3.0875,-3.1129,-3.0835,-3.0314,-3.0007,-2.9887,-2.9152,-2.8604,-2.8328,-2.8328,-2.7985,-2.7469,-2.7706,-2.7446,-2.6882,-2.6593,-2.6427,-2.6293,-2.5132,-2.4891,-2.505,0.0,0.0,0.0,0.0,0.0,-0.8885,-0.8885,-0.873,-0.896,-1.0053,-1.0711,-1.1443,-1.24,-1.3657,-1.4465,-1.4465,-1.4238,-1.4252,-1.45,-1.5505,-1.7045,-1.9047,-1.9702,-2.0785,-2.2428,-2.2493,-2.347,-2.5385,-2.5385,-2.6333,-2.8221,-2.8221,-2.8221,-2.8221,-2.8221,-2.8221,-2.8221,-2.8221,-2.8221,-2.8207,-2.7816,-2.7455,-2.7014,-2.6253,-2.6084,-2.6099,-2.5389,-2.5612,-2.6139,-2.5133,-2.501,-2.5353,-2.4796,-2.4168,0.0,0.0,0.0,0.0,0.0,0.0,0.0,0.0,0.0,0.0,0.0,0.0,0.0,0.0,0.0,0.0,0.0,0.0,0.0,-2.3908,-2.6465,-2.8256,-2.7245,-2.8834,-3.0341,-3.0982,-3.1316,-3.1637,-3.1984,-3.1971,-3.2051,-3.2358,-3.2318,-3.2345,-3.2452,-3.2238,-3.1917,-3.1517,-3.1664,-3.1503,-3.0982,-3.1383,-3.1436,-3.1142,0.0,0.0,-2.9913,-2.9993,-2.9606,-2.8871,-2.8871,-2.7637,-2.5602,-2.5446,-2.4102,-2.2308,-2.3797,-2.5213,-2.6069,-2.3528,-2.378,-2.5344,0.0,0.0,0.0,0.0,0.0,-0.8831,-0.873,-0.8648,-0.8838,-0.9517,-1.0127,-1.0839,-1.1735,-1.2237,-1.2596,-1.2813,-1.2216,-1.2157,-1.2963,-1.4077,-1.571,-1.7973,-1.8393,-1.941,-2.1125,-2.1221,-2.1739,-2.2955,-2.2955,-2.3555,-2.4679,-2.4679,-2.4679,-2.4679,-2.4679,-2.5373,-2.6418,-2.6418,-2.7109,-2.8207,-2.7976,-2.7829,-2.7642,-2.7054,-2.6734,-2.6587,-2.644,-2.648,-2.6533,-2.6106,-2.6052,-2.6119,-2.5825,-2.5438,-2.4903,0.0,0.0,0.0,0.0,0.0,0.0,0.0,0.0,0.0,0.0,0.0,0.0,0.0,0.0,-2.2769,-2.298,0.0,-2.2784,-2.2299,-2.4105,-2.5513,-2.5163,-2.6246,-2.7712,-2.9198,-2.9537,-2.9775,-3.0188,-3.0226,-3.0887,-3.2434,-3.2679,-3.2759,-3.2759,-3.1454,-3.0401,-2.9838,-2.88,-2.793,-2.7203,-2.7672,-2.7731,-2.7569,-2.7344,-2.7017,-2.6513,-2.6385,-2.6115,-2.5741,-2.5483,-2.4669,-2.3468,-2.3097,-2.2192,-2.0964,-2.0853,-2.1881,-2.3133,-2.1497,-2.1558,-2.2525,0.0,0.0,0.0,0.0,0.0,-0.879,-0.8567,-0.8608,-0.875,-0.8994,-0.9578,-1.0236,-1.1022,-1.1192,-1.1355,-1.1477,-1.1369,-1.1552,-1.2162,-1.2732,-1.4181,-1.6741,-1.6998,-1.7955,-1.9892,-1.9864,-2.0115,-2.0598,-2.0549,-2.0789,-2.1221,-2.1221,-2.1221,-2.1221,-2.1221,-2.2256,-2.3995,-2.3995,-2.5117,-2.6842,-2.6842,-2.6842,-2.6791,-2.6332,-2.6674,-2.7442,-2.7442,-2.7215,-2.6921,-2.7041,-2.6841,-2.6573,-2.6694,-2.6653,-2.6279,-2.4877,-2.4877,0.0,0.0,0.0,0.0,0.0,0.0,0.0,0.0,-2.281,-2.3075,-2.3568,-2.2455,-2.1559,-2.1972,-2.1065,-2.0387,-2.0584,-2.1765,-2.2695,-2.2965,-2.3543,-2.4509,-2.6037,-2.6674,-2.7112,-2.7653,-2.7699,-2.8626,-3.0996,-3.141,-3.1438,-3.1438,-2.9605,-2.8221,-2.7494,-2.5703,-2.4427,-2.3528,-2.3886,-2.4024,-2.3931,-2.3622,-2.339,-2.3253,-2.2753,-2.2552,-2.2504,-2.147,-2.1056,-2.1087,-2.0171,-1.9836,-1.9671,-1.7851,-1.7923,-1.9128,-1.925,-1.9457,-1.9745,0.0,0.0,0.0,0.0,0.0,0.0,-0.871,-0.8581,-0.8703,-0.9259,-0.9523,-0.989,-1.05,-1.0826,-1.0725,-1.0226,-1.1172,-1.1789,-1.1877,-1.2807,-1.3712,-1.4597,-1.4639,-1.4886,-1.528,-1.5152,-1.611,-1.8363,-1.8278,-1.9237,-2.1221,-2.1221,-2.1221,-2.1221,-2.1221,-2.1394,-2.1566,-2.1566,-2.1739,-2.1998,-2.1998,-2.1998,-2.1987,-2.1945,-2.45,-2.8127,-2.8127,-2.7696,-2.7295,-2.7816,-2.7712,-2.7255,-2.7859,-2.7671,-2.6934,-2.5718,-2.5064,-2.4342,-2.2525,-2.0699,-1.9622,-2.1038,-1.9779,-1.8556,0.0,-2.0128,-1.9996,-2.0232,-2.0465,-2.0817,-2.1078,-2.1431,-2.1135,-1.9552,-2.1704,-2.2868,-2.0885,-2.2666,-2.3556,-2.1604,-2.3375,-2.4847,-2.5204,-2.5224,-2.5418,-2.5941,-2.6085,-2.6095,-2.6095,-2.582,-2.5584,-2.5512,-2.5043,-2.482,-2.483,-2.4286,-2.4193,-2.4261,-2.3941,-2.3718,-2.341,-2.3658,-2.3405,-2.2623,-1.9907,-1.8668,-1.8237,-1.6029,-1.508,-1.508,-1.4822,-1.4801,-1.5184,-1.6959,-1.8605,-2.0015,0.0,0.0,0.0,0.0,0.0,0.0,0.0,-0.852,-0.8574,-0.8825,-0.8838,-0.9089,-0.9768,-0.9883,-0.9666,-0.9069,-1.0188,-1.1111,-1.1545,-1.2718,-1.3668,-1.4272,-1.4299,-1.4326,-1.4387,-1.4333,-1.4857,-1.5883,-1.5808,-1.621,-1.7159,-1.7159,-1.7159,-1.7159,-1.7159,-1.7938,-1.9228,-1.9228,-2.0009,-2.1221,-2.1221,-2.114,-2.1104,-2.1104,-2.2137,-2.3774,-2.4772,-2.5686,0.0,-2.6587,-2.656,-2.6613,-2.7188,-2.6974,-2.6373,-2.5705,-2.509,-2.4129,-2.2216,-2.0468,-1.9393,-1.9735,-1.9497,-1.9294,-1.9858,-2.0119,-2.0249,-2.0492,-1.9871,-1.9365,-1.9653,-1.8836,-1.7986,-1.7457,-1.8517,-1.9068,-1.8236,-1.9229,-1.9632,-1.8476,-1.9135,-2.0461,-2.2149,-2.258,-2.3268,-2.483,-2.5063,-2.5215,-2.5215,-2.3672,-2.2855,-2.2855,-2.113,-2.0212,-2.0209,-1.9959,-1.9727,-1.9722,-1.9543,-1.9371,-1.9192,-1.9257,-1.9002,-1.8379,-1.7042,-1.6317,-1.5965,-1.4743,-1.4299,-1.4299,-1.4299,-1.4299,-1.4367,-1.5155,-1.5949,-1.6568,0.0,0.0,0.0,0.0,0.0,0.0,0.0,0.0,0.0,0.0,-0.837,-0.8533,-0.9076,-0.9091,-0.8852,-0.8415,-0.9408,-1.0446,-1.1274,-1.2515,-1.3519,-1.4204,-1.4278,-1.4319,-1.436,-1.436,-1.438,-1.4421,-1.4421,-1.4421,-1.4421,-1.438,-1.436,-1.4353,-1.4319,-1.5256,-1.6809,-1.6809,-1.7763,-1.9324,-1.9324,-1.9195,-1.9096,-1.9032,-1.9059,-1.9384,-2.1362,-2.2858,-2.3909,-2.3782,-2.3846,-2.401,-2.448,-2.4442,-2.4086,-2.3656,-2.3052,-2.2176,-2.0793,-1.9422,-1.8367,-1.8236,-1.8383,-1.8591,-1.8583,-1.8867,-1.9111,-1.9446,-1.8524,-1.7622,-1.7852,-1.6627,-1.5716,-1.6083,-1.6307,-1.6503,-1.672,-1.6842,-1.6849,-1.6653,-1.649,-1.7149,-1.8988,-1.9527,-2.0575,-2.2526,-2.2784,-2.2958,-2.2958,-2.0999,-1.9975,-1.9975,-1.8013,-1.6904,-1.6754,-1.6707,-1.6612,-1.6463,-1.6313,-1.6191,-1.6076,-1.5879,-1.5655,-1.5391,-1.5052,-1.4841,-1.4719,-1.4421,-1.4299,-1.4299,-1.4299,-1.4299,-1.4285,-1.4177,-1.4109,-1.4055,0.0,0.0,0.0,0.0,0.0,0.0,0.0,0.0,0.0,0.0,-0.8391,-0.8486,-0.8506,-0.8506,-0.8492,-0.8479,-0.9184,-1.0066,-1.1173,-1.2162,-1.3146,-1.4041,-1.4224,-1.4367,-1.4502,-1.4502,-1.4577,-1.4726,-1.4726,-1.4726,-1.4726,-1.4577,-1.4502,-1.4502,-1.436,-1.4299,-1.4387,-1.4387,-1.4476,-1.4476,-1.4476,-1.4467,-1.4315,-1.4071,-1.4938,-1.6485,-1.9101,-1.9464,-1.8842,-1.9112,-1.905,-1.8852,-1.9133,-1.9382,-1.9457,-1.8766,-1.7872,-1.7315,-1.7877,-1.6545,-1.53,-1.6452,-1.5552,-1.4352,-1.4792,-1.5011,-1.5169,-1.5313,-1.5471,-1.5582,-1.5875,-1.6053,-1.6117,-1.6279,-1.6544,-1.6741,-1.6748,-1.6754,-1.6653,-1.6354,-1.6191,-1.5927,0.0,-1.6203,-1.6859,-1.7259,-1.7286,-1.7293,-1.7293,-1.7188,-1.7083,-1.7083,-1.7083,-1.6904,-1.6754,-1.6605,-1.6456,-1.6313,-1.6157,-1.609,-1.6069,-1.5778,-1.556,-1.5384,-1.4936,-1.4746,-1.4719,-1.4421,-1.4299,-1.4299,-1.4299,-1.4299,-1.4299,-1.4292,-1.4197,-1.4075,0.0,0.0,0.0,0.0,0.0,0.0,0.0,0.0,0.0,0.0,0.0,0.0,0.0,0.0,0.0,0.0,-0.7337,-0.8396,-1.0017,-1.1301,-1.2305,-1.2996,-1.3749,-1.417,-1.4217,-1.4319,-1.4394,-1.4448,-1.4448,-1.4448,-1.4448,-1.4394,-1.4373,-1.4367,-1.4319,-1.4299,-1.4299,-1.4299,-1.4299,-1.4292,-1.419,-1.4055,-1.3871,-1.3424,-1.3324,-1.3492,0.0,-1.5402,-1.7407,-1.7318,-1.7303,-1.7481,-1.7993,-1.7913,-1.7554,-1.6799,-1.6196,-1.5732,-1.5641,-1.4983,-1.4467,-1.4843,-1.4935,-1.4875,-1.5126,-1.5228,-1.5303,-1.5452,-1.5289,-1.5147,-1.5248,-1.5384,-1.5567,-1.5825,-1.6198,-1.6564,-1.6863,-1.6727,-1.6564,-1.6463,-1.632,0.0,0.0,0.0,0.0,-1.6388,-1.6754,-1.6978,-1.6978,-1.6978,-1.6978,-1.6978,-1.6978,-1.6958,-1.6904,-1.6849,-1.6802,-1.6754,-1.6497,-1.6218,-1.5927,-1.5825,-1.5588,-1.5248,-1.4997,-1.478,-1.457,-1.438,-1.4299,-1.4299,-1.4299,-1.4299,-1.4299,-1.4299,-1.4265,-1.4211,0.0,0.0,0.0,0.0,0.0,0.0,0.0,0.0,0.0,0.0,0.0,0.0,0.0,0.0,0.0,0.0,0.0,-0.6429,-0.7999,-0.8957,-0.9754,-1.0479,-1.1243,-1.1587,-1.1622,-1.1771,-1.1822,-1.1859,-1.1877,-1.1922,-1.1922,-1.2677,-1.2997,-1.3129,-1.3826,-1.4197,-1.4292,-1.4183,-1.4136,-1.4116,-1.3851,-1.3593,-1.3295,-1.2705,-1.2142,0.0,-1.0995,-1.2281,-1.4327,-1.4125,-1.4244,-1.4502,-1.4818,-1.4789,-1.4545,-1.4235,-1.4159,-1.4121,-1.4076,-1.4145,-1.4278,-1.4496,-1.4991,-1.5432,-1.5479,-1.5574,-1.5649,-1.5642,-1.5364,-1.5092,-1.4991,-1.5045,-1.5174,-1.5371,-1.573,-1.6164,-1.6673,-1.6524,-1.6381,-1.6435,-1.632,-1.6246,0.0,0.0,0.0,-1.6239,-1.6598,-1.6815,-1.6815,-1.6815,-1.687,-1.6978,-1.6978,-1.6978,-1.6978,-1.6924,-1.6842,-1.6734,-1.6483,-1.6157,-1.5778,-1.5778,-1.5472,-1.4943,-1.4903,-1.4685,-1.4353,-1.4312,-1.4299,-1.4299,-1.4299,-1.4299,-1.4299,-1.4299,-1.4299,-1.4285,0.0,0.0,0.0,0.0,0.0,0.0,0.0,0.0,0.0,0.0,0.0,0.0,0.0,0.0,0.0,0.0,0.0,0.0,-0.5271,-0.5468,-0.597,-0.6758,-0.6974,-0.7117,-0.711,-0.731,-0.7409,-0.7403,-0.7497,-0.7563,-0.7652,-0.9553,-1.0616,-1.089,-1.2748,-1.3826,-1.4163,-1.3878,-1.3756,-1.3709,-1.3288,-1.2854,-1.24,-1.1816,-1.1328,-1.084,-1.0602,-1.0304,-0.9977,-0.989,-1.0059,-1.0304,-1.0175,-1.0432,-1.0873,-1.1301,-1.187,-1.2542,-1.3397,-1.4089,-1.4706,-1.5282,-1.5649,-1.5832,-1.5689,-1.5866,-1.5974,-1.5676,-1.5459,-1.5228,-1.4943,-1.4889,-1.4903,-1.495,-1.5221,-1.5635,-1.6246,-1.6205,-1.6164,-1.6307,-1.6205,0.0,0.0,0.0,0.0,-1.651,0.0,-1.6544,-1.6544,-1.6544,-1.668,-1.6971,-1.6978,-1.6978,-1.6978,-1.6836,-1.6612,-1.632,-1.6171,-1.594,-1.5642,-1.5642,-1.5228,-1.4529,-1.4679,-1.4489,-1.4095,-1.4238,-1.4299,-1.4299,-1.4299,-1.4299,-1.4299,-1.4299,-1.4299,-1.4299,0.0,0.0,0.0,0.0,0.0,0.0,0.0,0.0,0.0,0.0,0.0,0.0,0.0,0.0,0.0,0.0,0.0,0.0,-0.4266,-0.5068,-0.5528,-0.5743,-0.6554,-0.696,-0.6939,-0.7121,-0.7162,-0.7199,-0.7185,-0.7208,-0.7271,-0.7764,-0.8729,-0.9939,-1.0425,-1.1377,-1.2637,-1.2671,-1.2617,-1.2508,-1.2393,-1.221,-1.1952,-1.1463,-1.1145,-1.084,-1.0602,-1.0378,-1.0215,-1.0175,-1.0507,-1.0968,-1.1158,-1.145,-1.1742,-1.1857,-1.2556,-1.3336,-1.3566,-1.4475,-1.5391,-1.554,-1.5805,-1.6015,-1.5974,-1.5859,-1.5669,-1.5364,-1.4652,-1.4027,-1.3838,-1.3804,-1.4021,-1.4692,-1.5242,-1.5825,-1.6537,-1.6605,-1.6551,-1.6476,-1.6632,-1.6693,-1.6537,-1.6693,0.0,0.0,-1.6734,-1.6863,-1.6863,-1.6863,-1.6897,-1.6978,-1.6978,-1.6978,-1.6978,-1.6944,-1.6768,-1.6469,-1.6429,-1.6137,-1.5642,-1.5642,-1.5289,-1.4685,-1.4719,-1.455,-1.4245,-1.4285,-1.4299,-1.4299,-1.4299,-1.4299,-1.4299,-1.4299,-1.4299,-1.4299,0.0,0.0,0.0,0.0,0.0,0.0,0.0,0.0,0.0,0.0,0.0,0.0,0.0,0.0,0.0,0.0,0.0,0.0,0.0,-0.3117,-0.3047,-0.3008,-0.3587,-0.3894,-0.3871,-0.3932,-0.3957,-0.4008,-0.3963,-0.3975,-0.405,-0.5696,-0.7059,-0.8067,-0.973,-1.1112,-1.2135,-1.2013,-1.1945,0.0,0.0,-1.1477,-1.1287,-1.0772,-1.0649,-1.0711,-1.0405,-1.046,-1.0711,-1.0975,-1.124,-1.1531,-1.1965,-1.2311,-1.2617,-1.2949,-1.3505,-1.4089,-1.4421,-1.516,-1.5852,-1.5913,-1.6103,-1.6191,-1.5859,-1.5655,-1.5357,-1.4726,-1.4082,-1.3546,-1.3261,-1.337,-1.3709,-1.4346,-1.495,-1.5608,-1.6354,-1.6517,-1.6598,-1.6707,-1.6931,0.0,-1.6951,-1.7026,-1.6978,-1.6741,-1.6761,-1.6781,-1.6781,-1.6781,-1.6842,-1.6978,-1.6978,-1.6978,-1.6978,-1.691,-1.6761,-1.6524,-1.6456,-1.6185,-1.573,-1.5669,-1.5276,-1.4645,0.0,-1.4496,-1.4109,-1.4245,-1.4299,-1.4299,-1.4299,-1.4299,-1.4299,-1.4299,-1.4299,-1.4299,0.0,0.0,0.0,0.0,0.0,0.0,0.0,0.0,0.0,0.0,-0.4749,0.0,0.0,0.0,0.0,0.0,0.0,0.0,0.0,0.0,-0.0607,-0.0616,-0.0398,-0.0284,-0.028,-0.0119,0.0,0.0,0.0,-0.0137,-0.042,-0.3751,-0.5652,-0.6354,-0.957,-1.1304,-1.1748,-1.1511,-1.1396,-1.1348,-1.1002,-1.0698,-1.0582,0.0,-1.0154,-1.046,-1.0159,-1.0568,-1.1233,-1.1898,-1.2067,-1.2115,-1.2718,-1.3139,-1.3532,-1.417,-1.4516,-1.4828,-1.5466,-1.5886,-1.6171,-1.6307,-1.6402,-1.6286,-1.5594,-1.535,-1.4984,-1.3987,-1.3607,-1.3336,-1.2969,-1.3234,-1.3654,-1.4089,-1.4631,-1.5262,-1.6035,-1.6307,-1.6564,-1.6937,-1.7107,-1.7195,-1.7195,-1.7154,-1.7093,-1.6985,-1.6734,-1.6585,-1.6585,-1.6585,-1.6707,-1.6971,-1.6978,-1.6978,-1.6978,-1.6849,-1.6693,-1.6517,-1.6395,-1.6157,-1.5818,-1.5696,-1.5235,-1.455,-1.4679,-1.4421,-1.3919,-1.419,-1.4299,-1.4299,-1.4299,-1.4299,-1.4299,-1.4299,-1.4299,-1.4299,0.0,0.0,0.0,0.0,0.0,0.0,0.0,0.0,0.0,0.0,-0.6033,-0.4526,0.0,0.0,0.0,0.0,0.0,0.0,0.0,0.0,0.0,-0.3745,-0.2522,-0.1794,-0.1846,-0.0623,0.0,0.0,0.0,-0.0733,-0.2051,-0.2774,-0.4506,-0.7175,-0.7854,-0.8884,-1.0215,-1.029,-1.0186,-1.0148,-1.0324,-1.0304,-1.0118,-1.0324,0.0,0.0,-1.0575,-1.0765,-1.1131,-1.2101,-1.2657,-1.3044,-1.3648,-1.4217,-1.4658,-1.4665,-1.512,-1.5622,-1.5635,-1.6035,-1.6449,-1.6476,-1.632,-1.6062,-1.5683,-1.5025,-1.4299,-1.362,-1.2969,-1.2535,-1.2576,-1.2745,-1.3268,-1.4434,-1.4916,-1.5452,-1.632,-1.6788,-1.7026,-1.6985,-1.7107,-1.7195,-1.7195,-1.6971,0.0,0.0,-1.6931,-1.6904,-1.6904,-1.6904,-1.6924,-1.6978,-1.6978,-1.6978,-1.6978,-1.6951,-1.6802,-1.6524,-1.6497,-1.6198,-1.5676,-1.5649,-1.5296,-1.4699,-1.4726,0.0,-1.4224,-1.4278,-1.4299,-1.4299,-1.4299,-1.4299,-1.4299,-1.4299,-1.4299,-1.4299,0.0,0.0,0.0,0.0,0.0,0.0,0.0,-0.8885,-0.8967,-0.9042,-0.7803,-0.6934,-0.6821,-0.6811,-0.6811,0.0,0.0,0.0,0.0,0.0,0.0,-0.4526,-0.3801,-0.3408,-0.3408,-0.2684,-0.2388,-0.2469,0.0,-0.2864,-0.3751,-0.4668,-0.5892,-0.7423,-0.8282,-0.9079,-0.9829,-0.9835,-0.9869,-0.9889,-1.01,-1.0209,-1.0283,-1.0358,0.0,0.0,-1.0867,-1.1097,-1.1409,-1.2142,-1.2739,-1.3315,-1.4156,-1.478,-1.5201,-1.5208,-1.5574,-1.5974,-1.5988,-1.6307,-1.6639,-1.6639,-1.6361,-1.59,-1.5208,-1.4482,-1.3688,-1.2773,-1.2366,-1.2169,-1.2155,-1.2467,-1.3044,-1.4007,-1.4536,-1.5147,-1.6049,-1.6558,-1.6904,-1.7073,-1.7222,-1.7283,-1.7202,-1.6998,-1.687,-1.6863,-1.6863,-1.6897,-1.6978,-1.6978,-1.6978,-1.6978,-1.6978,-1.6978,-1.6978,-1.6904,-1.6748,-1.6517,-1.6449,-1.6218,-1.5866,-1.571,-1.5438,-1.5079,-1.493,-1.4645,-1.4306,-1.438,-1.4319,-1.419,-1.4272,-1.4299,-1.4299,-1.4299,-1.4299,-1.4299,0.0,0.0,0.0,0.0,0.0,0.0,0.0,-0.8885,-0.8988,-0.9187,-0.9207,-0.918,-0.9042,-0.9035,-0.9022,0.0,0.0,0.0,0.0,0.0,0.0,0.0,0.0,0.0,-0.4972,0.0,0.0,-0.472,-0.4826,0.0,0.0,0.0,0.0,0.0,-0.9252,-0.9849,-0.9822,-0.9822,-0.9849,0.0,0.0,-1.0256,-1.048,0.0,0.0,0.0,0.0,-1.124,-1.1545,-1.1993,-1.2522,-1.3139,-1.4027,-1.4753,-1.5296,-1.5452,-1.5771,-1.6123,-1.6307,-1.6571,-1.6788,-1.6761,-1.6415,-1.5805,-1.4753,-1.4027,-1.3268,-1.2155,-1.1952,-1.1965,-1.1972,-1.2311,-1.2827,-1.3553,-1.4041,-1.4679,-1.571,-1.6212,-1.6666,-1.7182,-1.7344,0.0,-1.7249,-1.708,0.0,-1.6809,-1.6802,-1.6849,-1.6971,-1.6978,-1.6978,-1.6978,-1.6978,-1.6978,-1.6978,-1.6863,-1.6707,-1.6517,-1.6408,-1.6239,-1.6029,-1.5791,-1.5567,-1.535,-1.512,-1.476,-1.4353,-1.4468,-1.436,-1.4136,-1.4251,-1.4299,-1.4299,-1.4299,-1.4299,-1.4299,0.0,0.0,0.0,0.0,0.0,0.0,0.0,-0.8885,-0.8988,-0.9187,-0.9207,-0.9255,-0.9327,-0.934,-0.9286,0.0,0.0,0.0,0.0,0.0,0.0,0.0,0.0,0.0,0.0,0.0,0.0,-0.4877,-0.5204,0.0,0.0,0.0,0.0,0.0,0.0,-0.9889,-0.9822,-0.9822,0.0,0.0,0.0,0.0,0.0,0.0,0.0,0.0,0.0,-1.0867,-1.1008,-1.1531,-1.1986,-1.2433,-1.28,-1.3783,-1.4835,-1.4984,-1.5527,-1.6144,-1.6422,-1.6727,-1.6924,-1.6788,-1.6415,-1.5805,-1.4753,-1.3946,-1.32,-1.2413,-1.1932,-1.1823,-1.2345,-1.2264,-1.2494,-1.3634,-1.3763,-1.4211,-1.5649,-1.613,-1.6598,-1.7317,-1.7412,0.0,-1.7399,-1.7148,-1.6978,-1.6958,-1.6958,-1.6965,-1.6978,-1.6978,-1.6978,-1.6978,-1.6978,-1.6978,-1.6978,-1.6965,-1.6815,-1.6524,-1.651,-1.6279,-1.5872,-1.5845,-1.5601,-1.5201,-1.5174,0.0,0.0,-1.4509,-1.4421,-1.4278,-1.4292,-1.4299,-1.4299,-1.4299,-1.4299,-1.4299,0.0,0.0,0.0,0.0,0.0,0.0,-0.8885,-0.8885,-0.9022,-0.9259,-0.935,-0.9381,-0.9618,-0.9646,-0.9551,-0.9313,0.0,0.0,0.0,0.0,0.0,0.0,0.0,0.0,0.0,0.0,-0.758,-0.7729,-0.7944,0.0,0.0,0.0,0.0,0.0,0.0,-0.9795,-0.9822,-0.9822,0.0,0.0,0.0,0.0,0.0,0.0,0.0,0.0,0.0,0.0,-1.1226,-1.1314,-1.1586,-1.1891,-1.1918,-1.2603,-1.3532,-1.4224,-1.5086,-1.5879,-1.6178,-1.6612,-1.6944,-1.6788,-1.6279,-1.5567,-1.4604,-1.3804,-1.3024,-1.2182,-1.187,-1.1816,-1.2054,-1.1999,-1.2196,-1.3037,-1.32,-1.3654,-1.4875,-1.5309,-1.5185,-1.4458,-1.4352,-1.3768,-1.219,0.0,-1.1744,-1.1782,-1.1824,-1.1844,-1.1868,-1.3464,-1.3675,-1.1983,-1.1921,-1.1887,-1.1887,-1.1762,-1.1656,-1.157,-1.1401,-1.1306,-1.1182,-1.1022,-1.089,-1.071,-1.0649,0.0,0.0,-1.0196,-1.0116,-0.9833,-0.996,-0.9974,-1.0007,-1.0007,-0.9965,-1.0002,0.0,0.0,0.0,0.0,0.0,-0.8885,-0.8885,-0.8885,-0.9028,-0.9279,-0.9354,-0.9496,-0.9788,-0.9822,-0.9754,-0.9591,-0.9442,0.0,0.0,0.0,0.0,0.0,0.0,0.0,0.0,0.0,-0.9476,-0.9741,-0.9924,-1.0154,0.0,0.0,-1.0071,-0.9977,0.0,0.0,0.0,0.0,0.0,0.0,0.0,0.0,0.0,0.0,0.0,0.0,0.0,0.0,0.0,0.0,0.0,-1.1457,-1.1307,-1.1742,-1.2501,-1.3512,-1.455,-1.5466,-1.59,-1.6422,-1.6829,-1.6768,-1.6157,-1.535,-1.4496,-1.3715,-1.2942,-1.2135,-1.1932,-1.1925,-1.2013,-1.1959,-1.2081,-1.2637,-1.2861,-1.3295,-1.4245,-1.4685,-1.4513,-1.3441,-1.2748,-1.1625,-0.9753,-0.8808,-0.8358,-0.8409,-0.8462,-0.8166,-0.7317,-0.9122,-0.9639,-0.8559,-0.8507,-0.8469,-0.8549,-0.8444,-0.8382,-0.8255,-0.82,-0.8048,-0.8004,-0.795,-0.7871,-0.7779,-0.7728,0.0,0.0,-0.7312,-0.7235,-0.6978,-0.7084,-0.7094,-0.7138,-0.7138,-0.7104,-0.7057,0.0,0.0,0.0,0.0,0.0,0.0,-0.8885,-0.8885,-0.8988,-0.9193,-0.9344,-0.9496,-0.9788,-0.9822,-0.9883,-0.997,-0.9903,0.0,0.0,0.0,0.0,0.0,0.0,0.0,0.0,0.0,-0.989,-0.9984,-1.0337,-1.0561,-1.0711,-1.0561,-1.0331,-0.9977,0.0,0.0,0.0,0.0,0.0,0.0,0.0,0.0,-1.0717,0.0,0.0,0.0,0.0,0.0,0.0,0.0,0.0,0.0,0.0,-1.1291,-1.2013,-1.2915,-1.3926,-1.4909,-1.5655,-1.6185,-1.6564,-1.6714,-1.6076,-1.5215,-1.4468,-1.3715,-1.3003,-1.2406,-1.2169,-1.2149,-1.244,-1.2257,-1.2203,-1.2657,-1.2861,-1.322,-1.3973,-1.4462,-1.4878,-1.5484,-1.3597,-1.2321,-1.2257,-0.9973,-0.8487,-0.8484,-0.8484,0.0,-0.4357,-0.4253,-0.5607,-0.8379,-0.848,-0.8546,-0.8469,-0.8465,-0.843,-0.8255,-0.8255,-0.8176,-0.8028,-0.8025,-0.7945,-0.7804,0.0,0.0,0.0,-0.7367,-0.7282,-0.7057,-0.706,-0.706,-0.706,-0.706,-0.706,-0.7057,0.0,0.0,0.0,0.0,0.0,0.0,0.0,-0.8885,-0.8988,-0.9187,-0.9344,-0.9456,-0.9652,-0.9761,-0.9842,-0.989,-0.9761,0.0,0.0,0.0,0.0,0.0,0.0,0.0,0.0,-0.9727,-0.9897,-0.9984,-1.0344,-1.0514,-1.0561,-1.0419,-1.0243,-0.997,-0.968,-0.953,0.0,0.0,0.0,0.0,0.0,-1.048,-1.0575,0.0,0.0,0.0,0.0,0.0,0.0,0.0,0.0,0.0,0.0,0.0,0.0,-1.2081,-1.3071,-1.4055,-1.4387,-1.4957,-1.5425,-1.5262,-1.4855,-1.4353,-1.381,-1.3342,-1.2888,-1.2393,-1.225,-1.2244,-1.2338,-1.2284,-1.24,-1.2942,-1.3071,-1.2827,-1.179,-1.1743,-1.0683,-0.7753,-0.5326,-0.3898,-0.3933,-0.3157,-0.2731,-0.2656,-0.2735,-0.2311,-0.1383,-0.1376,-0.1792,-0.2626,-0.2714,-0.2693,-0.2669,-0.2652,-0.264,-0.2632,-0.2632,-0.2606,-0.2559,-0.2577,-0.2549,0.0,0.0,0.0,-0.2311,-0.2327,-0.2306,-0.2266,-0.2282,-0.2278,-0.2264,-0.2264,-0.2254,-0.224,0.0,0.0,0.0,0.0,0.0,0.0,0.0,-0.8885,-0.8974,-0.9062,-0.9205,-0.9354,-0.9503,-0.9652,-0.9788,-0.9835,-0.9829,0.0,0.0,0.0,0.0,0.0,0.0,0.0,-0.9686,-0.9836,-0.9889,-0.9984,-1.0405,-1.0521,-1.0412,-1.0378,-1.0215,-0.9889,-0.9612,-0.949,0.0,0.0,0.0,0.0,-1.0256,-1.0365,-1.05,0.0,0.0,0.0,0.0,0.0,0.0,0.0,0.0,0.0,0.0,0.0,0.0,0.0,-1.2359,-1.322,-1.3648,-1.4231,-1.4699,-1.4618,-1.4251,-1.3831,-1.3553,-1.3166,-1.2779,-1.244,-1.176,-1.1172,-1.1229,-1.0589,-1.0168,-1.0542,-1.065,-1.0372,-0.9198,-0.9113,-0.7728,-0.3987,-0.2248,-0.0949,-0.0106,0.0,0.0,0.0,0.0,0.0,0.0,0.0,0.0,0.0,0.0,0.0,0.0,0.0,0.0,0.0,0.0,0.0,0.0,0.0,0.0,0.0,0.0,0.0,0.0,0.0,0.0,0.0,0.0,0.0,0.0,0.0,0.0,0.0,0.0,0.0,0.0,0.0,0.0,0.0,0.0,-0.8885,-0.8885,-0.8885,-0.9062,-0.9262,-0.9347,-0.951,-0.972,-0.993,0.0,0.0,0.0,0.0,0.0,0.0,0.0,0.0,-0.9822,-0.9909,-0.999,-1.0004,-1.0493,-1.0561,-1.0283,-1.0412,-1.0243,-0.9815,-0.9673,-0.9523,0.0,0.0,0.0,0.0,-1.0188,-1.0331,0.0,0.0,0.0,0.0,0.0,0.0,0.0,0.0,0.0,0.0,0.0,0.0,0.0,0.0,0.0,0.0,0.0,-1.3759,-1.4251,-1.4516,-1.3887,-1.3378,-1.3462,-1.2868,0.0,-1.2245,-1.06,-0.9167,-0.9203,-0.7584,-0.6281,-0.6295,-0.652,-0.6627,-0.6295,-0.635,-0.5631,-0.3429,-0.3263,-0.2436,-0.0205,0.0,0.0,0.0,0.0,0.0,0.0,0.0,0.0,0.0,0.0,0.0,0.0,0.0,0.0,0.0,0.0,0.0,0.0,0.0,0.0,0.0,0.0,0.0,0.0,0.0,0.0,0.0,0.0,0.0,0.0,0.0,0.0,0.0,0.0,0.0,0.0,0.0,0.0,0.0,0.0,0.0,0.0,0.0,-0.9062,-0.9221,-0.9262,-0.9449,-0.9639,0.0,0.0,0.0,0.0,0.0,0.0,0.0,0.0,0.0,-0.9822,-0.9909,-1.0107,-1.0222,-1.0439,-1.0453,-1.0283,-1.0317,-1.0148,-0.9815,-0.9673,-0.9523,0.0,0.0,0.0,0.0,-0.9917,-1.0019,0.0,0.0,0.0,0.0,-1.0629,-1.0717,0.0,0.0,0.0,0.0,0.0,0.0,0.0,0.0,-1.183,-1.1854,-1.0355,0.0,-1.3091,-1.3037,-1.1684,-1.077,0.0,-1.0201,-0.8277,-0.9845,-0.8464,-0.7029,-0.6989,-0.6625,-0.6351,-0.6609,-0.6629,-0.6127,-0.455,-0.2759,-0.1458,-0.0894,-0.0823,-0.0627,-0.0103,0.0,0.0,0.0,0.0,0.0,0.0,0.0,0.0,0.0,0.0,0.0,0.0,0.0,0.0,0.0,0.0,0.0,0.0,0.0,0.0,0.0,0.0,0.0,0.0,0.0,0.0,0.0,0.0,0.0,0.0,0.0,0.0,0.0,0.0,0.0,0.0,0.0,0.0,0.0,0.0,0.0,0.0,0.0,0.0,-0.9055,-0.9055,-0.9259,0.0,0.0,0.0,0.0,0.0,0.0,0.0,0.0,0.0,-0.9646,-0.972,-0.9869,-0.9951,-0.9971,-1.0324,-1.0344,-1.0073,-1.0215,-1.0114,-0.9815,-0.9741,-0.9659,0.0,0.0,0.0,-0.9856,-0.9849,0.0,0.0,0.0,0.0,0.0,-1.0616,-1.0717,0.0,-1.0717,-1.0819,-1.0975,0.0,0.0,0.0,0.0,-0.9826,-0.904,-0.7911,-0.9326,-1.0974,-0.9908,-0.8821,-0.8306,-0.942,-0.7954,-0.6612,-0.7733,-0.6314,-0.4867,-0.4811,-0.4026,-0.3462,-0.36,-0.3586,-0.326,-0.2134,-0.0837,0.0,0.0,0.0,0.0,0.0,0.0,0.0,0.0,0.0,0.0,0.0,0.0,0.0,0.0,0.0,0.0,0.0,0.0,0.0,0.0,0.0,0.0,0.0,0.0,0.0,0.0,0.0,0.0,0.0,0.0,0.0,0.0,0.0,0.0,0.0,0.0,0.0,0.0,0.0,0.0,0.0,0.0,0.0,0.0,0.0,0.0,0.0,0.0,0.0,0.0,0.0,0.0,0.0,0.0,0.0,0.0,0.0,0.0,0.0,0.0,-0.9673,-0.9612,-0.9612,-0.9727,-0.9754,-0.968,-1.0202,-1.0276,-0.993,-1.0188,-1.0148,-0.9856,-0.9856,-0.9842,0.0,0.0,0.0,-0.997,-0.9883,0.0,0.0,0.0,0.0,0.0,0.0,0.0,0.0,-1.0386,-1.0411,-1.0493,-1.0348,0.0,0.0,0.0,0.0,0.0,-0.5578,-0.6922,-0.8129,-0.6682,-0.6046,-0.5899,-0.6197,-0.5804,-0.5437,-0.5745,-0.4074,-0.2617,-0.2643,-0.1158,0.0,0.0,0.0,0.0,0.0,0.0,0.0,0.0,0.0,0.0,0.0,0.0,0.0,0.0,0.0,0.0,0.0,0.0,0.0,0.0,0.0,0.0,0.0,0.0,0.0,0.0,0.0,0.0,0.0,0.0,0.0,0.0,0.0,0.0,0.0,0.0,0.0,0.0,0.0,0.0,0.0,0.0,0.0,0.0,0.0,0.0,0.0,0.0,0.0,0.0,0.0,0.0,0.0,0.0,0.0,0.0,0.0,0.0,0.0,0.0,0.0,0.0,0.0,0.0,0.0,-0.9646,-0.9618,-0.9612,-0.9612,-0.9632,-0.9754,-0.9923,-1.0202,-1.0337,-1.0392,-1.0439,-1.0304,-0.995,-0.995,-0.9883,-0.9822,-0.9822,0.0,-0.997,-0.9883,0.0,0.0,0.0,0.0,0.0,0.0,0.0,0.0,-0.89,-0.8515,-0.8429,-0.6945,0.0,0.0,0.0,0.0,0.0,-0.3849,-0.3743,-0.4436,-0.5904,-0.4934,-0.4093,-0.5876,-0.3503,-0.143,-0.3228,-0.1923,-0.0503,-0.0503,-0.0173,0.0,0.0,0.0,0.0,0.0,0.0,0.0,0.0,0.0,0.0,0.0,0.0,0.0,0.0,0.0,0.0,0.0,0.0,0.0,0.0,0.0,0.0,0.0,0.0,0.0,0.0,0.0,0.0,0.0,0.0,0.0,0.0,0.0,0.0,0.0,0.0,0.0,0.0,0.0,0.0,0.0,0.0,0.0,0.0,0.0,0.0,0.0,0.0,0.0,0.0,0.0,0.0,0.0,0.0,0.0,0.0,0.0,0.0,0.0,0.0,0.0,0.0,0.0,0.0,-0.9815,-0.9734,-0.9727,-0.9646,-0.949,-0.9564,-0.9754,-0.9984,-1.0283,-1.0473,-1.0609,-1.0453,-1.0263,-0.9984,-0.9903,-0.989,-0.9822,-0.9822,-0.9849,-0.9984,0.0,0.0,0.0,0.0,0.0,0.0,0.0,0.0,0.0,0.0,-0.7467,-0.6712,-0.5848,0.0,0.0,0.0,0.0,0.0,-0.1575,-0.139,-0.1684,-0.2628,-0.2124,-0.1707,-0.2675,-0.1387,-0.0241,-0.127,-0.0669,0.0,0.0,0.0,0.0,0.0,0.0,0.0,0.0,0.0,0.0,0.0,0.0,0.0,0.0,0.0,0.0,0.0,0.0,0.0,0.0,0.0,0.0,0.0,0.0,0.0,0.0,0.0,0.0,0.0,0.0,0.0,0.0,0.0,0.0,0.0,0.0,0.0,0.0,0.0,0.0,0.0,0.0,0.0,0.0,0.0,0.0,0.0,0.0,0.0,0.0,0.0,0.0,0.0,0.0,0.0,0.0,0.0,0.0,0.0,0.0,0.0,0.0,0.0,0.0,0.0,0.0,-0.9863,-0.9835,-0.9774,-0.9774,-0.968,-0.949,-0.9632,-0.9856,-1.0092,-1.0453,-1.0656,-1.0772,-1.0541,-1.0317,-1.01,-0.9978,-0.989,-0.9829,-0.9897,-0.9998,-1.0038,0.0,0.0,0.0,0.0,0.0,0.0,0.0,0.0,0.0,0.0,0.0,0.0,0.0,0.0,0.0,-0.2252,-0.1184,0.0,0.0,0.0,0.0,0.0,0.0,0.0,0.0,0.0,0.0,0.0,0.0,0.0,0.0,0.0,0.0,0.0,0.0,0.0,0.0,0.0,0.0,0.0,0.0,0.0,0.0,0.0,0.0,0.0,0.0,0.0,0.0,0.0,0.0,0.0,0.0,0.0,0.0,0.0,0.0,0.0,0.0,0.0,0.0,0.0,0.0,0.0,0.0,0.0,0.0,0.0,0.0,0.0,0.0,0.0,0.0,0.0,0.0,0.0,0.0,0.0,0.0,0.0,0.0,0.0,0.0,0.0,0.0,0.0,0.0,0.0,0.0,0.0,0.0,0.0,0.0,0.0,0.0,-0.9557,-0.9639,-0.9625,-0.9625,-0.968,-0.9788,-0.9876,-1.0098,-1.046,-1.0765,-1.0853,-1.086,-1.084,-1.067,-1.0263,-1.0249,-1.0086,-0.9842,-1.0127,-1.0256,-1.0263,-1.0263,0.0,0.0,0.0,0.0,0.0,0.0,0.0,0.0,0.0,0.0,0.0,0.0,0.0,-0.0212,-0.0217,-0.0074,0.0,0.0,0.0,0.0,0.0,0.0,0.0,0.0,0.0,0.0,0.0,0.0,0.0,0.0,0.0,0.0,0.0,0.0,0.0,0.0,0.0,0.0,0.0,0.0,0.0,0.0,0.0,0.0,0.0,0.0,0.0,0.0,0.0,0.0,0.0,0.0,0.0,0.0,0.0,0.0,0.0,0.0,0.0,0.0,0.0,0.0,0.0,0.0,0.0,0.0,0.0,0.0,0.0,0.0,0.0,0.0,0.0,0.0,0.0,0.0,0.0,0.0,0.0,0.0,0.0,0.0,0.0,0.0,0.0,0.0,0.0,0.0,0.0,0.0,0.0,0.0,0.0,0.0,-0.9469,-0.9612,-0.9612,-0.9693,-0.9808,-0.9896,-1.0114,-1.0385,-1.0778,-1.1077,-1.1179,-1.1077,-1.0792,-1.0527,-1.027,-1.008,-0.9985,-0.9909,-1.0086,-1.0243,-1.0412,-1.0412,-0.9876,0.0,0.0,0.0,0.0,0.0,0.0,0.0,0.0,-0.1925,-0.0901,-0.0213,0.0,0.0,0.0,0.0,0.0,0.0,0.0,0.0,0.0,0.0,0.0,0.0,0.0,0.0,0.0,0.0,0.0,0.0,0.0,0.0,0.0,0.0,0.0,0.0,0.0,0.0,0.0,0.0,0.0,0.0,0.0,0.0,0.0,0.0,0.0,0.0,0.0,0.0,0.0,0.0,0.0,0.0,0.0,0.0,0.0,0.0,0.0,0.0,0.0,0.0,0.0,0.0,0.0,0.0,0.0,0.0,0.0,0.0,0.0,0.0,0.0,0.0,0.0,0.0,0.0,0.0,0.0,0.0,0.0,0.0,0.0,0.0,0.0,0.0,0.0,0.0,0.0,0.0,0.0,0.0,0.0,-0.9207,-0.9347,-0.951,-0.9605,-0.97,-0.9849,-0.9984,-1.0243,-1.0541,-1.088,-1.1294,-1.1335,-1.109,-1.0778,-1.0507,-1.0276,-1.0107,-1.0066,-1.0127,-1.0159,-1.0024,-0.9642,-0.9686,-0.8695,0.0,0.0,0.0,0.0,0.0,0.0,0.0,0.0,-0.1043,0.0,0.0,0.0,0.0,0.0,0.0,0.0,0.0,0.0,0.0,0.0,0.0,0.0,0.0,0.0,0.0,0.0,0.0,0.0,0.0,0.0,0.0,0.0,0.0,0.0,0.0,0.0,0.0,0.0,0.0,0.0,0.0,0.0,0.0,0.0,0.0,0.0,0.0,0.0,0.0,0.0,0.0,0.0,0.0,0.0,0.0,0.0,0.0,0.0,0.0,0.0,0.0,0.0,0.0,0.0,0.0,0.0,0.0,0.0,0.0,0.0,0.0,0.0,0.0,0.0,0.0,0.0,0.0,0.0,0.0,0.0,0.0,0.0,0.0,0.0,0.0,0.0,0.0,0.0,0.0,0.0,0.0,0.0,-0.92,-0.9207,-0.9344,-0.9591,-0.9612,-0.9747,-0.9977,-1.0337,-1.0643,-1.088,-1.1396,-1.1382,-1.088,-1.0873,-1.0704,-1.029,-1.0432,-1.0419,-1.0304,-1.053,-0.9569,-0.7817,-0.7923,-0.6965,-0.5362,0.0,0.0,0.0,0.0,0.0,0.0,0.0,0.0,0.0,0.0,0.0,0.0,0.0,0.0,0.0,0.0,0.0,0.0,0.0,0.0,0.0,0.0,0.0,0.0,0.0,0.0,0.0,0.0,0.0,0.0,0.0,0.0,0.0,0.0,0.0,0.0,0.0,0.0,0.0,0.0,0.0,0.0,0.0,0.0,0.0,0.0,0.0,0.0,0.0,0.0,0.0,0.0,0.0,0.0,0.0,0.0,0.0,0.0,0.0,0.0,0.0,0.0,0.0,0.0,0.0,0.0,0.0,0.0,0.0,0.0,0.0,0.0,0.0,0.0,0.0,0.0,0.0,0.0,0.0,0.0,0.0,0.0,0.0,0.0,0.0,0.0,0.0,0.0,0.0,0.0,0.0,-0.9207,-0.9207,-0.9296,-0.9442,-0.9551,-0.97,-0.9883,-1.0283,-1.069,-1.1097,-1.1131,-1.0954,-1.0785,-1.0575,-1.0405,-1.029,-1.0541,-0.9842,-0.8556,-0.8867,-0.789,-0.6129,-0.6152,-0.5095,-0.3488,0.0,0.0,0.0,0.0,0.0,0.0,0.0,0.0,0.0,0.0,0.0,0.0,0.0,0.0,0.0,0.0,0.0,0.0,0.0,0.0,0.0,0.0,0.0,0.0,0.0,0.0,0.0,0.0,0.0,0.0,0.0,0.0,0.0,0.0,0.0,0.0,0.0,0.0,0.0,0.0,0.0,0.0,0.0,0.0,0.0,0.0,0.0,0.0,0.0,0.0,0.0,0.0,0.0,0.0,0.0,0.0,0.0,0.0,0.0,0.0,0.0,0.0,0.0,0.0,0.0,0.0,0.0,0.0,0.0,0.0,0.0,0.0,0.0,0.0,0.0,0.0,0.0,0.0,0.0,0.0,0.0,0.0,0.0,-0.913,-0.9205,0.0,0.0,0.0,0.0,0.0,0.0,-0.9207,-0.9096,-0.9164,-0.9374,-0.9469,-0.9639,-0.9842,-1.0236,-1.0568,-1.0894,-1.0934,-1.0812,-1.0548,-1.0548,-1.0084,-0.9273,-0.9594,-0.8649,-0.688,-0.7062,-0.6039,-0.4294,-0.4319,-0.3236,-0.1615,0.0,0.0,0.0,0.0,0.0,0.0,0.0,0.0,0.0,0.0,0.0,0.0,0.0,0.0,0.0,0.0,0.0,0.0,0.0,0.0,0.0,0.0,0.0,0.0,0.0,0.0,0.0,0.0,0.0,0.0,0.0,0.0,0.0,0.0,0.0,0.0,0.0,0.0,0.0,0.0,0.0,0.0,0.0,0.0,0.0,0.0,0.0,0.0,0.0,0.0,0.0,0.0,0.0,0.0,0.0,0.0,0.0,0.0,0.0,0.0,0.0,0.0,0.0,0.0,0.0,0.0,0.0,0.0,0.0,0.0,0.0,0.0,0.0,0.0,0.0,0.0,0.0,0.0,0.0,0.0,0.0,0.0,0.0,-0.9273,-0.9408,0.0,0.0,0.0,0.0,0.0,0.0,0.0,-0.9028,-0.9083,-0.9367,-0.9422,-0.9639,-0.9997,-1.0222,-1.0358,-1.0473,-1.0765,-1.0697,-1.031,-1.0525,-0.9564,-0.7636,-0.7961,-0.7005,-0.5133,-0.5211,-0.4148,-0.2487,-0.2451,-0.1495,0.0,0.0,0.0,0.0,0.0,0.0,0.0,0.0,0.0,0.0,0.0,0.0,0.0,0.0,0.0,0.0,0.0,0.0,0.0,0.0,0.0,0.0,0.0,0.0,0.0,0.0,0.0,0.0,0.0,0.0,0.0,0.0,0.0,0.0,0.0,0.0,0.0,0.0,0.0,0.0,0.0,0.0,0.0,0.0,0.0,0.0,0.0,0.0,0.0,0.0,0.0,0.0,0.0,0.0,0.0,0.0,0.0,0.0,0.0,0.0,0.0,0.0,0.0,0.0,0.0,0.0,0.0,0.0,0.0,0.0,0.0,0.0,0.0,0.0,0.0,0.0,0.0,0.0,0.0,0.0,0.0,0.0,0.0,0.0,0.0,0.0,0.0,0.0,0.0,0.0,0.0,0.0,0.0,-0.918,-0.9191,-0.9374,-0.972,-1.0005,-1.0222,-1.0371,-1.0405,-1.0324,-1.0507,-1.0541,-1.0453,-0.9059,-0.824,-0.774,-0.6753,-0.5181,-0.3291,-0.3532,-0.2403,-0.0606,-0.0607,-0.0337,0.0,0.0,0.0,0.0,0.0,0.0,0.0,0.0,0.0,0.0,0.0,0.0,0.0,0.0,0.0,0.0,0.0,0.0,0.0,0.0,0.0,0.0,0.0,0.0,0.0,0.0,0.0,0.0,0.0,0.0,0.0,0.0,0.0,0.0,0.0,0.0,0.0,0.0,0.0,0.0,0.0,0.0,0.0,0.0,0.0,0.0,0.0,0.0,0.0,0.0,0.0,0.0,0.0,0.0,0.0,0.0,0.0,0.0,0.0,0.0,0.0,0.0,0.0,0.0,0.0,0.0,0.0,0.0,0.0,0.0,0.0,0.0,0.0,0.0,0.0,0.0,0.0,0.0,0.0,0.0,0.0,0.0,0.0,0.0,0.0,0.0,0.0,0.0,0.0,0.0,0.0,0.0,0.0,0.0,-0.9309,-0.9483,-0.9849,-1.0024,-1.0168,-0.9474,-0.9086,-0.9086,-0.8296,-0.8296,-0.9092,-0.7408,-0.6151,-0.5217,-0.4662,-0.3262,-0.1386,-0.1535,-0.0965,0.0,0.0,0.0,0.0,0.0,0.0,0.0,0.0,0.0,0.0,0.0,0.0,0.0,0.0,0.0,0.0,0.0,0.0,0.0,0.0,0.0,0.0,0.0,0.0,0.0,0.0,0.0,0.0,0.0,0.0,0.0,0.0,0.0,0.0,0.0,0.0,0.0,0.0,0.0,0.0,0.0,0.0,0.0,0.0,0.0,0.0,0.0,0.0,0.0,0.0,0.0,0.0,0.0,0.0,0.0,0.0,0.0,0.0,0.0,0.0,0.0,0.0,0.0,0.0,0.0,0.0,0.0,0.0,0.0,0.0,0.0,0.0,0.0,0.0,0.0,0.0,0.0,0.0,0.0,0.0,0.0,0.0,0.0,0.0,0.0,0.0,0.0,0.0,0.0,0.0,0.0,0.0,0.0,0.0,0.0,0.0,0.0,0.0,-0.9673,-0.9856,-0.9886,-0.9619,-0.8325,-0.7528,-0.7374,-0.5595,-0.5388,-0.674,-0.5501,-0.408,-0.2497,-0.2438,-0.1507,0.0,0.0,0.0,0.0,0.0,0.0,0.0,0.0,0.0,0.0,0.0,0.0,0.0,0.0,0.0,0.0,0.0,0.0,0.0,0.0,0.0,0.0,0.0,0.0,0.0,0.0,0.0,0.0,0.0,0.0,0.0,0.0,0.0,0.0,0.0,0.0,0.0,0.0,0.0,0.0,0.0,0.0,0.0,0.0,0.0,0.0,0.0,0.0,0.0,0.0,0.0,0.0,0.0,0.0,0.0,0.0,0.0,0.0,0.0,0.0,0.0,0.0,0.0,0.0,0.0,0.0,0.0,0.0,0.0,0.0,0.0,0.0,0.0,0.0,0.0,0.0,0.0,0.0,0.0,0.0,0.0,0.0,0.0,0.0,0.0,0.0,0.0,0.0,0.0,0.0,-0.9062,-0.9042,0.0,0.0,0.0,0.0,0.0,0.0,-0.9207,0.0,0.0,-0.9916,-0.9963,-0.9406,-0.8151,-0.7907,-0.7117,-0.5748,-0.388,-0.3133,-0.3379,-0.3149,-0.2957,-0.2598,-0.109,-0.0216,0.0,0.0,0.0,0.0,0.0,0.0,0.0,0.0,0.0,0.0,0.0,0.0,0.0,0.0,0.0,0.0,0.0,0.0,0.0,0.0,0.0,0.0,0.0,0.0,0.0,0.0,0.0,0.0,0.0,0.0,0.0,0.0,0.0,0.0,0.0,0.0,0.0,0.0,0.0,0.0,0.0,0.0,0.0,0.0,0.0,0.0,0.0,0.0,0.0,0.0,0.0,0.0,0.0,0.0,0.0,0.0,0.0,0.0,0.0,0.0,0.0,0.0,0.0,0.0,0.0,0.0,0.0,0.0,0.0,0.0,0.0,0.0,0.0,0.0,0.0,0.0,0.0,0.0,0.0,0.0,0.0,0.0,0.0,0.0,0.0,0.0,0.0,0.0,0.0,0.0,0.0,-0.8905,0.0,0.0,0.0,-0.8892,-0.8994,-0.9069,-0.9207,-0.9361,-0.9578,-0.9795,-0.9038,-0.8378,-0.7706,-0.5861,-0.4597,-0.389,-0.2083,-0.1177,-0.1169,-0.1192,-0.1198,-0.1117,-0.0381,0.0,0.0,0.0,0.0,0.0,0.0,0.0,0.0,0.0,0.0,0.0,0.0,0.0,0.0,0.0,0.0,0.0,0.0,0.0,0.0,0.0,0.0,0.0,0.0,0.0,0.0,0.0,0.0,0.0,0.0,0.0,0.0,0.0,0.0,0.0,0.0,0.0,0.0,0.0,0.0,0.0,0.0,0.0,0.0,0.0,0.0,0.0,0.0,0.0,0.0,0.0,0.0,0.0,0.0,0.0,0.0,0.0,0.0,0.0,0.0,0.0,0.0,0.0,0.0,0.0,0.0,0.0,0.0,0.0,0.0,0.0,0.0,0.0,0.0,0.0,0.0,0.0,0.0,0.0,0.0,0.0,0.0,0.0,0.0,0.0,0.0,0.0,0.0,0.0,0.0,0.0,0.0,0.0,0.0,0.0,0.0,0.0,-0.8885,-0.9001,-0.92,-0.898,-0.8837,-0.8938,-0.7655,-0.6751,-0.6289,-0.3871,-0.2467,-0.2016,-0.0672,0.0,0.0,0.0,0.0,0.0,0.0,0.0,0.0,0.0,0.0,0.0,0.0,0.0,0.0,0.0,0.0,0.0,0.0,0.0,0.0,0.0,0.0,0.0,0.0,0.0,0.0,0.0,0.0,0.0,0.0,0.0,0.0,0.0,0.0,0.0,0.0,0.0,0.0,0.0,0.0,0.0,0.0,0.0,0.0,0.0,0.0,0.0,0.0,0.0,0.0,0.0,0.0,0.0,0.0,0.0,0.0,0.0,0.0,0.0,0.0,0.0,0.0,0.0,0.0,0.0,0.0,0.0,0.0,0.0,0.0,0.0,0.0,0.0,0.0,0.0,0.0,0.0,0.0,0.0,0.0,0.0,0.0,0.0,0.0,0.0,0.0,0.0,0.0,0.0,0.0,0.0,0.0,0.0,0.0,0.0,0.0,0.0,0.0,0.0,-0.92,-0.92,-0.9089,-0.8898,-0.8885,-0.9001,-0.92,-0.795,-0.7194,-0.7199,-0.5798,0.0,-0.2826,-0.2575,-0.1699,-0.0135,-0.0067,0.0,0.0,0.0,0.0,0.0,0.0,0.0,0.0,0.0,0.0,0.0,0.0,0.0,0.0,0.0,0.0,0.0,0.0,0.0,0.0,0.0,0.0,0.0,0.0,0.0,0.0,0.0,0.0,0.0,0.0,0.0,0.0,0.0,0.0,0.0,0.0,0.0,0.0,0.0,0.0,0.0,0.0,0.0,0.0,0.0,0.0,0.0,0.0,0.0,0.0,0.0,0.0,0.0,0.0,0.0,0.0,0.0,0.0,0.0,0.0,0.0,0.0,0.0,0.0,0.0,0.0,0.0,0.0,0.0,0.0,0.0,0.0,0.0,0.0,0.0,0.0,0.0,0.0,0.0,0.0,0.0,0.0,0.0,0.0,0.0,0.0,0.0,0.0,0.0,0.0,0.0,0.0,0.0,0.0,0.0,0.0,0.0,0.0,0.0,0.0,-0.9069,-0.9028,-0.9076,-0.9164,-0.9245,-0.93,-0.8954,-0.8224,-0.714,-0.571,-0.4129,-0.2507,-0.1442,-0.0599,0.0,0.0,0.0,0.0,0.0,0.0,0.0,0.0,0.0,0.0,0.0,0.0,0.0,0.0,0.0,0.0,0.0,0.0,0.0,0.0,0.0,0.0,0.0,0.0,0.0,0.0,0.0,0.0,0.0,0.0,0.0,0.0,0.0,0.0,0.0,0.0,0.0,0.0,0.0,0.0,0.0,0.0,0.0,0.0,0.0,0.0,0.0,0.0,0.0,0.0,0.0,0.0,0.0,0.0,0.0,0.0,0.0,0.0,0.0,0.0,0.0,0.0,0.0,0.0,0.0,0.0,0.0,0.0,0.0,0.0,0.0,0.0,0.0,0.0,0.0,0.0,0.0,0.0,0.0,0.0,0.0,0.0,0.0,0.0,0.0,0.0,0.0,0.0,0.0,0.0,0.0,0.0,0.0,0.0,0.0,0.0,0.0,-0.9456,-0.9456,0.0,0.0,0.0,0.0,-0.9184,-0.9282,-0.932,-0.9381,-0.9381,-0.8508,-0.7459,-0.6348,-0.4321,-0.2757,-0.1685,-0.0592,0.0,0.0,0.0,0.0,0.0,0.0,0.0,0.0,0.0,0.0,0.0,0.0,0.0,0.0,0.0,0.0,0.0,0.0,0.0,0.0,0.0,0.0,0.0,0.0,0.0,0.0,0.0,0.0,0.0,0.0,0.0,0.0,0.0,0.0,0.0,0.0,0.0,0.0,0.0,0.0,0.0,0.0,0.0,0.0,0.0,0.0,0.0,0.0,0.0,0.0,0.0,0.0,0.0,0.0,0.0,0.0,0.0,0.0,0.0,0.0,0.0,0.0,0.0,0.0,0.0,0.0,0.0,0.0,0.0,0.0,0.0,0.0,0.0,0.0,0.0,0.0,0.0,0.0,0.0,0.0,0.0,0.0,0.0,0.0,0.0,0.0,0.0,0.0,0.0,0.0,0.0,0.0,0.0,0.0,0.0,0.0,0.0,0.0,-0.9618,-0.9618,0.0,0.0,0.0,0.0,0.0,-0.9408,-0.9401,-0.9408,-0.9401,-0.6496,-0.4784,-0.4732,-0.1752,-0.0064,0.0,0.0,0.0,0.0,0.0,0.0,0.0,0.0,0.0,0.0,0.0,0.0,0.0,0.0,0.0,0.0,0.0,0.0,0.0,0.0,0.0,0.0,0.0,0.0,0.0,0.0,0.0,0.0,0.0,0.0,0.0,0.0,0.0,0.0,0.0,0.0,0.0,0.0,0.0,0.0,0.0,0.0,0.0,0.0,0.0,0.0,0.0,0.0,0.0,0.0,0.0,0.0,0.0,0.0,0.0,0.0,0.0,0.0,0.0,0.0,0.0,0.0,0.0,0.0,0.0,0.0,0.0,0.0,0.0,0.0,0.0,0.0,0.0,0.0,0.0,0.0,0.0,0.0,0.0,0.0,0.0,0.0,0.0,0.0,0.0,0.0,0.0,0.0,0.0,0.0,0.0,0.0,0.0,0.0,0.0,0.0,0.0,-1.0202,-1.0161,-1.0025,-0.9869,0.0,0.0,0.0,-0.9618,-0.97,-0.9747,-0.97,-0.9903,-0.9985,-0.9869,-0.7935,-0.6281,-0.5057,-0.2947,-0.1235,0.0,0.0,0.0,0.0,0.0,0.0,0.0,0.0,0.0,0.0,0.0,0.0,0.0,0.0,0.0,0.0,0.0,0.0,0.0,0.0,0.0,0.0,0.0,0.0,0.0,0.0,0.0,0.0,0.0,0.0,0.0,0.0,0.0,0.0,0.0,0.0,0.0,0.0,0.0,0.0,0.0,0.0,0.0,0.0,0.0,0.0,0.0,0.0,0.0,0.0,0.0,0.0,0.0,0.0,0.0,0.0,0.0,0.0,0.0,0.0,0.0,0.0,0.0,0.0,0.0,0.0,0.0,0.0,0.0,0.0,0.0,0.0,0.0,0.0,0.0,0.0,0.0,0.0,0.0,0.0,0.0,0.0,0.0,0.0,0.0,0.0,0.0,0.0,0.0,0.0,0.0,0.0,0.0,0.0,0.0,-1.048,-1.0466,-1.0439,-1.0378,-1.029,-1.0188,0.0,0.0,0.0,-0.9802,-0.9978,-1.008,-1.0019,-1.0175,-1.0243,-1.0154,-0.7859,-0.6089,-0.5117,-0.2734,-0.0986,0.0,0.0,0.0,0.0,0.0,0.0,0.0,0.0,0.0,0.0,0.0,0.0,0.0,0.0,0.0,0.0,0.0,0.0,0.0,0.0,0.0,0.0,0.0,0.0,0.0,0.0,0.0,0.0,0.0,0.0,0.0,0.0,0.0,0.0,0.0,0.0,0.0,0.0,0.0,0.0,0.0,0.0,0.0,0.0,0.0,0.0,0.0,0.0,0.0,0.0,0.0,0.0,0.0,0.0,0.0,0.0,0.0,0.0,0.0,0.0,0.0,0.0,0.0,0.0,0.0,0.0,0.0,0.0,0.0,0.0,0.0,0.0,0.0,0.0,0.0,0.0,0.0,0.0,0.0,0.0,0.0,0.0,0.0,0.0,0.0,0.0,0.0,0.0,0.0,0.0,0.0,0.0,0.0,0.0,-1.0724,-1.0744,-1.0744,-1.0704,-1.0582,-1.0555,-1.0446,0.0,-1.0071,-1.0071,-1.0105,-1.0378,-1.0466,-1.0337,-1.0331,-1.0324,-1.0304,-0.7089,-0.5124,-0.5116,-0.1844,0.0,0.0,0.0,0.0,0.0,0.0,0.0,0.0,0.0,0.0,0.0,0.0,0.0,0.0,0.0,0.0,0.0,0.0,0.0,0.0,0.0,0.0,0.0,0.0,0.0,0.0,0.0,0.0,0.0,0.0,0.0,0.0,0.0,0.0,0.0,0.0,0.0,0.0,0.0,0.0,0.0,0.0378,0.0318,0.025,0.0084,0.0,0.0,0.0,0.0,0.0,0.0,0.0,0.0,0.0,0.0,0.0,0.0,0.0,0.0,0.0,0.0,0.0,0.0,0.0,0.0,0.0,0.0,0.0,0.0,0.0,0.0,0.0,0.0,0.0,0.0,0.0,0.0,0.0,0.0,0.0,0.0,0.0,0.0,0.0,0.0,0.0,0.0,0.0,0.0,0.0,0.0,0.0,0.0,0.0,-1.0717,-1.0758,-1.0813,-1.084,-1.0934,-1.1023,-1.0934,-1.0772,-1.0712,-1.0597,-1.0677,-1.0921,-1.0785,-1.0663,-1.0636,-1.0636,-1.0582,-1.046,-0.7262,-0.5363,-0.5319,-0.1929,0.0,0.0,0.0,0.0,0.0,0.0,0.0,0.0,0.0,0.0,0.0,0.0,0.0,0.0,0.0,0.0,0.0,0.0,0.0,0.0,0.0,0.0,0.0,0.0,0.0,0.0,0.0,0.0,0.0,0.0,0.0,0.0,0.0,0.0,0.0,0.0,0.0,0.0,0.0,0.0,0.0,0.2707,0.2369,0.1874,0.0325,0.0,0.0,0.0,0.0,0.0,0.0,0.0,0.0,0.0,0.0,0.0,0.0,0.0,0.0,0.0,0.0,0.0,0.0,0.0,0.0,0.0,0.0,0.0,0.0,0.0,0.0,0.0,0.0,0.0,0.0,0.0,0.0,0.0,0.0,0.0,0.0,0.0,0.0,0.0,0.0,0.0,0.0,0.0,0.0,0.0,0.0,0.0,0.0,-1.0766,-1.0894,-1.0962,-1.1043,-1.1118,-1.1165,-1.1165,-1.1165,-1.1118,-1.09,-1.0941,-1.0968,-1.105,-1.0989,-1.0914,-1.0839,-1.0766,-1.0772,-1.0616,-0.8256,-0.6392,-0.5443,-0.2809,-0.0941,0.0,0.0,0.0,0.0,0.0,0.0,0.0,0.0,0.0,0.0,0.0,0.0,0.0,0.0,0.0,0.0,0.0,0.0,0.0,0.0,0.0,0.0,0.0,0.0,0.0,0.0,0.0,0.0,0.0,0.0,0.0,0.0,0.0679,0.1628,0.0,0.0,0.0,0.5633,0.0,0.0,0.0,0.4376,0.4063,0.3067,0.2981,0.2948,0.2866,0.2149,0.1502,0.1427,0.0673,0.0,0.0,0.0,0.0,0.0,0.0,0.0,0.0,0.0,0.0,0.0,0.0,0.0,0.0,0.0,0.0,0.0,0.0,0.0,0.0,0.0,0.0,0.0,0.0,0.0,0.0,0.0,0.0,0.0,0.0,0.0,0.0,0.0,0.0,0.0,0.0,0.0,0.018,0.1345,0.1793,0.1971,-1.0989,-1.1084,-1.1234,-1.1234,-1.1287,-1.1348,-1.1226,-1.1335,-1.1348,-1.1042,-1.1226,-1.1301,-1.115,-1.128,-1.1314,-1.1253,-1.1076,-1.0954,-1.09,-0.9302,-0.7631,-0.5967,-0.3823,-0.2023,-0.0545,-0.0136,0.0,0.0,0.0,0.0,0.0,0.0,0.0,0.0,0.0,0.0,0.0,0.0,0.0,0.0,0.0,0.0,0.0,0.0,0.0,0.0,0.0,0.0,0.0,0.0,0.0,0.0,0.0,0.0,0.0,0.0,0.0,0.0,0.0,0.0,0.0,0.0,0.0,0.6363,0.0,0.0,0.0,0.5905,0.5893,0.5982,0.5883,0.4328,0.3095,0.2957,0.1285,0.0,0.0,0.0,0.0,0.0,0.0,0.0,0.0,0.0,0.0,0.0,0.0,0.0,0.0,0.0,0.0,0.0,0.0,0.0,0.0,0.0,0.0,0.0,0.0,0.0,0.0,0.0,0.0,0.0,0.0,0.0,0.0,0.0538,0.0718,0.0718,0.0718,0.0718,0.0987,0.3403,0.4295,0.4561,-1.1138,-1.1151,-1.1234,-1.1234,-1.1287,-1.1389,-1.1369,-1.1497,-1.1579,-1.1545,-1.1789,-1.2006,-1.2121,-1.2033,-1.206,-1.2305,0.0,0.0,-1.1518,0.0,-0.826,-0.7707,-0.449,-0.2538,-0.2247,-0.0745,0.0,0.0,0.0,0.0,0.0,0.0,0.0,0.0,0.0,0.0,0.0,0.0,0.0,0.0,0.0,0.0,0.0,0.0,0.0,0.0,0.0,0.0,0.0,0.0,0.0,0.0,0.0,0.0,0.0,0.0,0.0,0.0,0.0,0.0,0.0,0.0,0.8358,0.0,0.0,0.0,0.7918,0.6343,0.0,0.6042,0.6244,0.0,0.0,0.3052,0.1308,0.0,0.0,0.0,0.0,0.0,0.0,0.0,0.0,0.0,0.0,0.0,0.0,0.0,0.0,0.0,0.0,0.0,0.0,0.0,0.0,0.0,0.0,0.0,0.0,0.0,0.0,0.0,0.0,0.0,0.0,0.0,0.018,0.233,0.3224,0.3224,0.3224,0.3224,0.349,0.5811,0.67,0.67,-1.1234,-1.1307,-1.143,-1.143,-1.1484,-1.1552,-1.1633,-1.1775,-1.1877,-1.1877,-1.1986,-1.2149,-1.2386,0.0,0.0,0.0,0.0,-1.2094,0.0,0.0,0.0,-0.8568,-0.6919,-0.5,-0.2796,-0.2054,-0.1163,0.0,0.0,0.0,0.0,0.0,0.0,0.0,0.0,0.0,0.0,0.0,0.0,0.0,0.0,0.0,0.0,0.0,0.0,0.0,0.0,0.0,0.0,0.0,0.0,0.0,0.0,0.0,0.0,0.0,0.0,0.0,0.0,0.0,0.0,0.0,0.0,0.0,0.0,0.0,1.0325,0.0,0.0,0.0,0.0,0.0,0.0,0.0,0.3907,0.1779,0.1799,0.0787,0.0,0.0,0.0,0.0,0.0,0.0,0.0,0.0,0.0,0.0,0.0,0.0,0.0,0.0,0.0,0.0,0.0,0.0,0.0,0.0,0.0,0.0,0.009,0.1434,0.2061,0.215,0.349,0.4116,0.4206,0.5186,0.5633,0.5811,0.7149,0.6879,0.5901,0.8308,0.9197,0.9375,-1.1226,-1.1402,-1.1558,-1.1558,-1.1592,-1.1667,-1.1809,-1.1999,-1.2142,-1.2176,-1.2216,-1.2359,-1.2651,-1.2556,0.0,0.0,-1.28,-1.2644,0.0,0.0,-1.1276,0.0,0.0,0.0,0.0,-0.2624,-0.1441,0.0,0.0,0.0,0.0,0.0,0.0,0.0,0.0,0.0,0.0,0.0,0.0,0.0,0.0,0.0,0.0,0.0,0.0,0.0,0.0,0.0,0.0,0.0,0.0,0.0,0.0,0.0,0.0,0.0,0.0,0.0,0.2129,0.0,0.0,0.0,0.0,0.0,0.0,0.0,0.0,0.0,0.0,0.0,0.0,0.0,0.0,0.0,0.0,0.3775,0.0,0.1777,0.0,0.0,0.0,0.0,0.0,0.0,0.0,0.0,0.0,0.0,0.0,0.0,0.0,0.0,0.0627,0.0628,0.0,0.0628,0.0628,0.0,0.0628,0.0987,0.1076,0.349,0.4561,0.4651,0.6344,0.7057,0.7149,0.7773,0.8129,0.8308,1.0717,1.0629,0.9286,1.1072,1.1699,1.1971,-1.1382,-1.1389,-1.1396,-1.1396,-1.1518,-1.1667,-1.1809,-1.2088,-1.2332,-1.2467,-1.2617,0.0,0.0,0.0,0.0,0.0,0.0,-1.3152,-1.3146,0.0,-1.2142,0.0,0.0,-0.5653,0.0,0.0,-0.0069,0.0,0.0,0.0,0.0,0.0,0.0,0.0,0.0,0.0,0.0,0.0,0.0,0.0,0.0,0.0,0.0,0.0,0.0,0.0,0.0,0.0,0.0,0.0,0.0,0.0,0.0,0.0,0.0,0.0,0.0,0.0,0.0,0.0,0.0,0.2495,0.0,0.0,0.0,0.0,0.9571,0.0,0.0,0.0,0.0,0.0,0.0,0.0,0.0,0.0,0.0,0.0,0.0,0.0,0.0,0.0,0.0,0.0,0.0,0.0,0.0,0.0,0.0,0.0,0.0,0.0,0.2228,0.233,0.0,0.233,0.233,0.0,0.233,0.349,0.358,0.5901,0.6968,0.6968,0.7057,0.7057,0.7324,0.9646,1.054,1.0806,1.3224,1.4122,1.4122,1.4122,1.421,1.421,-1.1701,-1.1681,-1.1653,-1.1558,-1.1586,-1.1701,-1.1945,-1.2074,-1.2332,-1.2874,-1.2908,0.0,0.0,-1.3878,-1.3946,0.0,0.0,-1.3878,-1.3777,-1.3302,0.0,0.0,0.0,-0.9152,0.0,0.0,0.0,0.0,0.0,0.0,0.0,0.0,0.0,0.0,0.0,0.0,0.0,0.0,0.0,0.0,0.0,0.0,0.0,0.0,0.0,0.0,0.0,0.0,0.0,0.0,0.0,0.0,0.0,0.0,0.0,0.0,0.0,0.0,0.0,0.0,0.0169,0.0837,0.0,0.0,0.0,0.0,0.0,0.0,0.0,0.0,0.0,0.0,0.0,0.0,0.0,0.0,0.0,0.0,0.0,0.0,0.0,0.0,0.0,0.0,0.0,0.0,0.0,0.0,0.0,0.1467,0.228,0.2391,0.4632,0.4706,0.2418,0.3224,0.3224,0.2419,0.3224,0.4383,0.5987,0.8397,0.9464,0.9553,1.1161,1.1876,1.1971,1.2774,1.3046,1.3135,1.3945,1.4299,1.4299,1.4299,1.4299,1.4299,-1.187,-1.183,-1.1816,-1.1782,-1.1823,-1.1959,-1.2257,-1.2433,-1.2786,0.0,-1.3492,0.0,-1.438,0.0,-1.4353,0.0,-1.438,-1.4258,-1.4156,-1.3682,0.0,-1.3478,-1.2437,0.0,0.0,0.0,0.0,0.0,-0.0434,0.0,0.0,0.0,0.0,0.0,0.0,0.0,0.0,0.0,0.0,0.0,0.0,0.0,0.0,0.0,0.0,0.0,0.0,0.0,0.0,0.0,0.0,0.0,0.0,0.0,0.0,0.0,0.0,0.0,0.0,0.0,0.0,0.0,0.0935,0.0,0.456,0.0,0.0,0.0,0.0,0.0,0.0,0.0,0.0,0.0,0.0,0.0,0.0,0.743,0.0,0.0,0.0,0.0,0.0,0.0,0.0,0.0,0.0,0.0,0.0,0.2507,0.3693,0.45,0.6904,0.7071,0.4829,0.5722,0.5722,0.4829,0.5722,0.6882,0.8486,1.0895,1.1971,1.2059,1.3584,1.4299,1.4299,1.4299,1.4299,1.4299,1.4299,1.4299,1.4299,1.4299,1.4299,1.4299,-1.1904,-1.1857,-1.1911,-1.206,-1.2196,-1.2393,-1.2684,0.0,-1.362,0.0,-1.4319,-1.4441,-1.4753,-1.4536,-1.4414,-1.4536,-1.4421,-1.434,-1.4326,-1.3783,0.0,0.0,-1.1312,-1.0099,-1.0312,0.0,0.0,0.0,0.0,-0.015,0.0,0.0,0.0,0.0,0.0,0.0,0.0,0.0,0.0,0.0,0.0,0.0,0.0,0.0,0.0,0.0,0.0,0.0,0.0,0.0,0.0,0.0,0.0,0.0,0.0,0.0,0.0,0.0,0.0,0.0,0.0,0.0,0.0,0.0,0.0,0.0,0.3638,0.0,0.0,0.0,0.0,0.0,0.0,0.0,0.0,0.0,0.0,0.0,0.0,0.0,0.0,0.0,0.0,0.0,0.0,0.0,0.0,0.0,0.0,0.3266,0.4495,0.641,0.9166,0.9513,0.7324,0.9544,0.9544,0.7324,0.9646,1.0717,1.0984,1.3224,1.4299,1.4299,1.4299,1.4299,1.4299,1.4299,1.4299,1.4299,1.4299,1.4299,1.4299,1.4299,1.4299,1.4299,-1.206,-1.2176,-1.2345,-1.2379,-1.2332,-1.2393,-1.2684,-1.3112,0.0,0.0,-1.4557,-1.4828,-1.535,-1.5343,-1.5221,-1.5025,-1.4977,0.0,0.0,0.0,0.0,-1.4292,-1.3604,-1.2447,-1.0678,-0.9466,0.0,-0.3583,0.0,-0.1782,0.0,0.0,0.0,0.0,0.0,0.0,0.0,0.0,0.0,0.0,0.0,0.0,0.0,0.0,0.0,0.0,0.0,0.0,0.0,0.0,0.0,0.0,0.0,0.0,0.0,0.0,0.0,0.0,0.0,0.0,0.0,0.0,0.0,0.0518,0.0,0.0,0.0,0.0,0.0,0.0,0.0,0.0,0.0,0.0,0.0,0.0,0.0,0.0,0.0,1.0536,0.0,0.0,0.0,0.0,0.0,0.0,0.0,0.0,0.2962,0.5984,0.8184,0.9249,1.1265,1.1542,0.9819,1.0194,1.0194,0.9824,1.0357,1.161,1.3401,1.4027,1.4299,1.4299,1.4299,1.4299,1.4299,1.4299,1.4299,1.4299,1.4299,1.4299,1.4299,1.4299,1.4299,1.4299,-1.2223,-1.2298,-1.2427,-1.2488,-1.2759,-1.3024,-1.3193,-1.3485,0.0,-1.4706,-1.4997,0.0,-1.5689,-1.5791,-1.5764,-1.5594,-1.5337,0.0,-1.4943,0.0,0.0,-1.4611,-1.4489,-1.3761,-1.2289,-1.1229,0.0,-0.665,0.0,-0.2936,-0.1524,-0.0465,0.0,0.0,0.0,0.0,0.0,0.0,0.0,0.0,0.0,0.0,0.0,0.0,0.0,0.0,0.0,0.0,0.0,0.0,0.0,0.0,0.0,0.0,0.0,0.0,0.0,0.0,0.0,0.0,0.0,0.0,0.0,0.0264,0.1497,0.1849,0.193,0.0,0.0,0.0,0.0,0.0,0.0,0.0,0.0,0.0,0.0,0.0,0.0,0.0,1.1447,0.0,0.0,0.0,0.0,0.0,0.0,0.0,0.0,0.7872,0.9882,1.0892,1.2546,1.2849,1.1899,1.1864,1.1917,1.2062,1.2062,1.2835,1.4299,1.4299,1.4299,1.4299,1.4299,1.4299,1.4299,1.4299,1.4299,1.4299,1.4299,1.4299,1.4299,1.4299,1.4299,1.4299,-1.2345,-1.2305,-1.2372,-1.2535,-1.3275,-1.3871,-1.3973,-1.4183,0.0,-1.5215,0.0,-1.5771,-1.59,-1.6015,-1.6076,-1.6056,0.0,-1.5255,-1.5215,-1.4848,-1.4672,-1.4767,-1.4509,-1.4346,-1.4326,-1.2289,0.0,0.0,0.0,-0.3888,-0.3546,-0.1104,0.0,0.0,0.0,0.0,0.0,0.0,0.0,0.0,0.0,0.0,0.0,0.0,0.0,0.0,0.0,0.0,0.0,0.0,0.0,0.0,0.0,0.0,0.0,0.0,0.0,0.0,0.0,0.0,0.0,0.0,0.0,0.0,0.0,0.0,0.0,0.0,0.0,0.0,0.0,0.0,0.0,0.0,0.0,0.0,0.0,0.0,0.0,0.0,0.0,0.0,0.0,0.0,0.0,0.0,0.0,0.0,0.0,0.0,1.0491,1.1824,1.3024,1.3587,1.3492,1.3682,1.3831,1.3926,1.3871,1.4,1.4299,1.4299,1.4299,1.4299,1.4299,1.4299,1.4299,1.4299,1.4299,1.4299,1.4299,1.4299,1.4299,1.4299,1.4299,1.4299,-1.2325,-1.2386,0.0,0.0,0.0,-1.4048,-1.4679,-1.5316,-1.5778,-1.5906,-1.6083,-1.6205,-1.6225,-1.6144,-1.6029,-1.5906,-1.5798,0.0,0.0,0.0,0.0,-1.4943,-1.476,-1.4604,-1.4475,-1.3945,-1.2702,0.0,0.0,-0.5465,-0.3546,-0.1104,0.0,0.0,0.0,0.0,0.0,0.0,0.0,0.0,0.0,0.0,0.0,0.0,0.0,0.0,0.0,0.0,0.0,0.0,0.0,0.0,0.0,0.0,0.0,0.0,0.0,0.0,0.0,0.0,0.0,0.0,0.0,0.0,0.0,0.0,0.0,0.0,0.0,0.0,0.0,0.0,0.0,0.0,0.0,0.0,0.0,0.0,0.0,0.0,0.0,0.0,0.0,0.0,0.0,0.0,0.0,0.0,0.0,0.0,1.1458,0.0,1.244,1.301,0.0,0.0,1.379,1.4387,1.4014,1.4,1.4299,1.4299,1.4299,1.4299,1.4299,1.4299,1.4299,1.4299,1.4299,1.4299,1.4299,1.4299,1.4299,1.4299,1.4299,1.4299,-1.2651,0.0,0.0,0.0,0.0,0.0,0.0,-1.6015,-1.6408,-1.6015,-1.6164,-1.6252,-1.609,-1.6218,-1.6252,-1.6103,-1.5947,-1.5791,-1.5649,-1.5493,-1.535,-1.5208,-1.4984,0.0,-1.4631,-1.4482,-1.3833,-1.2591,0.0,0.0,-0.5352,-0.1722,0.0,0.0,0.0,0.0,0.0,0.0,0.0,0.0,0.0,0.0,0.0,0.0,0.0,0.0,0.0,0.0,0.0,0.0,0.0,0.0,0.0,0.0,0.0,0.0,0.0,0.0,0.0,0.0,0.0,0.0,0.0,0.0,0.0,0.0,0.0,0.0,0.0,0.0,0.0,0.0,0.0,0.0,0.0,0.0,0.0,0.0,0.0,0.0,0.0,0.0,0.0,0.0,0.0,0.0,0.0,0.0,0.0,0.0,1.1755,0.0,0.0,0.0,1.3715,0.0,1.381,1.4163,1.3946,1.4,1.4299,1.4299,1.4299,1.4299,1.4299,1.4299,1.4299,1.4299,1.4299,1.4299,1.4299,1.4299,1.4299,1.4299,1.4346,1.4401,-1.318,-1.3003,0.0,0.0,-1.4421,-1.512,-1.5696,-1.6435,-1.6727,-1.6164,-1.6273,-1.63,-1.6029,-1.6286,-1.6402,-1.6232,-1.6022,-1.5859,-1.5764,-1.5601,-1.5459,-1.5364,-1.514,-1.4943,-1.4794,-1.4604,-1.4455,0.0,0.0,0.0,-0.6995,-0.2194,0.0,0.0,0.0,0.0,0.0,0.0,0.0,0.0,0.0,0.0,0.0,0.0,0.0,0.0,0.0,0.0,0.0,0.0,0.0,0.0,0.0,0.0,0.0,0.0,0.0,0.0,0.0,0.0,0.0,0.0,0.0,0.0,0.0,0.0,0.0,0.0,0.0,0.0,0.0,0.0,0.0,0.0,0.0,0.0,0.0,0.0,0.0,0.0,0.0,0.0,0.0,0.0,0.0,0.0,0.0,0.0,1.048,0.0,0.0,0.0,0.0,1.3119,1.3397,0.0,1.3824,1.398,1.3885,1.4,1.4299,1.4299,1.4299,1.4299,1.4299,1.4299,1.4299,1.4333,1.4346,1.4346,1.4346,1.4367,1.4387,1.4353,1.4434,1.4543,0.0,-1.3946,0.0,0.0,0.0,-1.571,-1.6178,-1.6544,-1.6795,-1.6863,-1.6781,-1.6646,-1.6476,-1.6381,-1.6212,-1.592,-1.5995,-1.5886,-1.5479,-1.5676,-1.5628,-1.5221,-1.5174,-1.5099,-1.495,-1.4658,-1.4502,0.0,0.0,-0.7127,0.0,-0.2251,0.0,0.0,0.0,0.0,0.0,0.0,0.0,0.0,0.0,0.0,0.0,0.0,0.0,0.0,0.0,0.0,0.0,0.0,0.0,0.0,0.0,0.0,0.0,0.0,0.0,0.0,0.0,0.0,0.0,0.0,0.0,0.0,0.0,0.0,0.0,0.0,0.0,0.0,0.0,0.0,0.0,0.0,0.0,0.0,0.0,0.0,0.0,0.0,0.0,0.0,0.0,0.5117,0.0,0.0,0.9802,0.0,0.0,0.0,0.0,1.1416,1.204,1.2705,1.3397,1.3431,1.3783,1.4441,1.4034,1.4,1.4299,1.4299,1.4299,1.4299,1.4299,1.4299,1.4312,1.4441,1.4489,1.4489,1.4489,1.4577,1.4679,1.4543,1.459,1.4719,0.0,0.0,0.0,0.0,0.0,0.0,0.0,-1.6754,-1.691,-1.6971,-1.6931,-1.6795,-1.6551,-1.6551,-1.6449,-1.6151,-1.6185,-1.6103,-1.5832,-1.5839,-1.5771,-1.5594,-1.5418,-1.5296,-1.5235,-1.4943,-1.474,0.0,0.0,0.0,0.0,0.0,0.0,0.0,0.0,0.0,0.0,0.0,0.0,0.0,0.0,0.0,0.0,0.0,0.0,0.0,0.0,0.0,0.0,0.0,0.0,0.0,0.0,0.0,0.0,0.0,0.0,0.0,0.0,0.0,0.0,0.0,0.0,0.0,0.0,0.0,0.0,0.0,0.0,0.0,0.0,0.0,0.0,0.0,0.0,0.0,0.0,0.0,0.0,0.0,0.0,0.0,0.0,0.0,0.0,0.0,0.0,0.0,0.0,0.0,0.0,1.204,0.0,1.2779,1.379,1.3709,1.3905,1.438,1.4204,1.4183,1.4299,1.4299,1.4299,1.4299,1.4299,1.4346,1.4434,1.4489,1.4509,1.4509,1.4509,1.455,1.4597,1.4536,1.4665,1.4875,-1.5486,0.0,-1.5377,0.0,-1.6117,-1.6313,-1.6693,-1.6883,-1.6965,-1.6917,-1.6951,-1.6883,-1.6619,-1.6646,-1.6564,-1.6266,-1.6246,-1.6157,-1.5967,-1.5934,-1.5879,-1.5791,-1.5588,0.0,-1.5411,-1.512,-1.4916,-1.4808,-1.0543,0.0,0.0,0.0,0.0,0.0,0.0,0.0,0.0,0.0,0.0,0.0,0.0,0.0,0.0,0.0,0.0,0.0,0.0,0.0,0.0,0.0,0.0,0.0,0.0,0.0,0.0,0.0,0.0,0.0,0.0,0.0,0.0,0.0,0.0,0.0,0.0,0.0,0.0,0.0,0.0,0.0,0.0,0.0,0.0,0.0,0.0,0.0,0.0,0.0,0.0,0.0,0.0,0.1285,0.2121,0.4351,0.0,0.0,0.0,0.0,0.0,0.0,0.0,0.0,0.0,0.0,1.3797,1.3743,1.3912,1.4299,1.4299,1.4299,1.4299,1.4299,1.4326,1.436,1.436,1.4441,1.4584,1.4631,1.4645,1.4645,1.4645,1.4672,1.4706,1.4658,1.4808,1.5031,-1.6212,-1.6293,-1.6435,-1.6883,-1.6965,-1.6917,-1.6775,-1.6883,-1.6924,-1.6775,-1.689,-1.6917,-1.6761,-1.6612,-1.6402,-1.611,-1.6083,-1.5961,-1.5662,-1.592,-1.5947,0.0,0.0,-1.5567,-1.5411,-1.512,-1.497,-1.497,0.0,0.0,-0.7293,0.0,0.0,0.0,0.0,0.0,0.0,0.0,0.0,0.0,0.0,0.0,0.0,0.0,0.0,0.0,0.0,0.0,0.0,0.0,0.0,0.0,0.0,0.0,0.0,0.0,0.0,0.0,0.0,0.0,0.0,0.0,0.0,0.0,0.0,0.0,0.0,0.0,0.0,0.0,0.0,0.0,0.0,0.0,0.0,0.0,0.0,0.0,0.0,0.0,0.1841,0.2229,0.022,0.3642,0.0,0.0,0.0,0.0,0.0,0.0,0.0,0.8959,1.0806,0.0,1.3173,1.3336,1.3709,1.4299,1.4299,1.4299,1.4299,1.4299,1.4373,1.4509,1.4509,1.4597,1.4746,1.4903,1.4964,1.4964,1.4964,1.5052,1.516,1.5018,1.5059,1.5181,-1.6164,-1.6483,-1.6748,-1.668,-1.6842,-1.6965,-1.6917,-1.6951,-1.6965,-1.691,-1.6856,-1.6802,-1.6754,-1.6707,-1.6558,0.0,-1.6049,-1.5934,0.0,-1.5839,-1.5825,-1.5934,-1.5649,-1.5459,-1.5411,-1.512,-1.4916,-1.4814,0.0,0.0,0.0,-0.0696,0.0,0.0,0.0,0.0,0.0,0.0,0.0,0.0,0.0,0.0,0.0,0.0,0.0,0.0,0.0,0.0,0.0,0.0,0.0,0.0,0.0,0.0,0.0,0.0,0.0,0.0,0.0,0.0,0.0,0.0,0.0,0.0,0.0,0.0,0.0,0.0,0.0,0.0,0.0,0.0,0.0,0.0,0.0,0.0,0.0,0.0,0.0,0.0,0.0546,0.0745,0.0074,0.2376,0.0,0.0,0.0,0.0,0.0,0.0,0.0,0.0,1.2278,0.0,1.3777,1.3729,1.3905,1.4299,1.4299,1.4299,1.4306,1.4401,1.4468,1.4516,1.4624,1.4753,1.4896,1.4835,1.4814,1.4814,1.4814,1.4841,1.4889,1.495,1.5059,1.5181,-1.6456,-1.672,-1.6924,-1.6727,-1.6856,-1.6958,-1.6904,-1.6944,-1.6937,-1.6822,-1.6775,-1.6727,-1.6673,-1.6619,0.0,-1.6327,-1.6137,-1.6042,-1.6083,-1.5906,-1.5886,-1.6076,-1.5757,-1.5574,-1.5574,-1.5343,0.0,-1.3579,-0.8588,-0.454,-0.1335,-0.0445,0.0,0.0,0.0,0.0,0.0,0.0,0.0,0.0,0.0,0.0,0.0,0.0,0.0,0.0,0.0,0.0,0.0,0.0,0.0,0.0,0.0,0.0,0.0,0.0,0.0,0.0,0.0,0.0,0.0,0.0,0.0,0.0,0.0,0.0,0.0,0.0,0.0,0.0,0.0,0.0,0.0,0.0,0.0,0.0,0.0,0.0,0.0,0.0,0.0,0.0,0.0,0.1782,0.3172,0.0,0.0,0.0,0.0,0.0,0.0,1.1679,1.2609,1.3383,1.398,1.3885,1.3994,1.4299,1.4299,1.4299,1.4306,1.4448,1.4543,1.4604,1.476,1.4909,1.5045,1.4943,1.4909,1.4909,1.4909,1.4909,1.4916,1.5018,1.5106,1.5181,-1.6924,-1.6951,-1.6971,-1.6951,-1.6965,-1.6931,-1.6788,-1.689,-1.6876,-1.6592,-1.6666,-1.6693,-1.6537,-1.6402,-1.632,-1.6293,0.0,0.0,-1.609,-1.6062,-1.6062,-1.6083,-1.5927,-1.5839,-1.5636,-1.5398,-1.3891,-1.1065,-0.6141,-0.3637,-0.3328,-0.1018,0.0,0.0,0.0,0.0,0.0,0.0,0.0,0.0,0.0,0.0,0.0,0.0,0.0,0.0,0.0,0.0,0.0,0.0,0.0,0.0,0.0,0.0,0.0,0.0,0.0,0.0,0.0,0.0,0.0,0.0,0.0,0.0,0.0,0.0,0.0,0.0,0.0,0.0,0.0,0.0,0.0,0.0,0.0,0.0,0.0,0.0,0.0,0.0,0.0,0.0,0.0163,0.1744,0.2158,0.0,0.0,0.0,0.0,0.0,1.1371,1.0047,1.1997,1.3315,1.3865,1.3871,1.4021,1.4312,1.4326,1.4333,1.4333,1.4475,1.4618,1.4767,1.4916,1.5059,1.5181,1.5174,1.5167,1.5167,1.5167,1.5167,1.5167,1.5181,1.5181,1.5181,-1.6341,-1.6666,-1.6904,-1.6673,-1.6822,-1.6971,-1.6931,-1.6958,-1.6951,-1.6883,-1.6802,-1.6693,-1.6537,-1.649,-1.6381,-1.6157,-1.5927,-1.5879,-1.6069,-1.5872,-1.5845,-1.6069,-1.5832,-1.4705,-1.2639,-1.2519,-1.0226,-0.5685,-0.4444,-0.2809,-0.0843,-0.0279,0.0,0.0,0.0,0.0,0.0,0.0,0.0,0.0,0.0,0.0,0.0,0.0,0.0,0.0,0.0,0.0,0.0,0.0,0.0,0.0,0.0,0.0,0.0,0.0,0.0,0.0,0.0,0.0,0.0,0.0,0.0,0.0,0.0,0.0,0.0,0.0,0.0,0.0,0.0,0.0,0.0,0.0,0.0,0.0,0.0,0.0,0.0,0.0,0.0409,0.0575,0.0081,0.0422,0.1105,0.0,0.0,0.0,0.5385,0.8692,1.0375,1.0014,1.2642,1.4048,1.419,1.419,1.4285,1.4462,1.4577,1.4638,1.4638,1.4794,1.4882,1.4923,1.5072,1.5153,1.5174,1.5065,1.5018,1.5018,1.5018,1.5018,1.5031,1.514,1.5181,1.5181,-1.6524,-1.6754,-1.6931,-1.6761,-1.687,-1.6978,-1.6978,-1.6978,-1.6958,-1.6883,-1.6741,-1.6091,-1.4771,-1.4548,-1.3935,-1.2643,-1.3521,-1.4174,-1.4259,-1.2935,-1.2227,-1.2348,-1.2238,-1.1476,-0.999,-0.9896,-0.7869,-0.3859,-0.2664,-0.1324,0.0,0.0,0.0,0.0,0.0,0.0,0.0,0.0,0.0,0.0,0.0,0.0,0.0,0.0,0.0,0.0,0.0,0.0,0.0,0.0,0.0,0.0,0.0,0.0,0.0,0.0,0.0,0.0,0.0,0.0,0.0,0.0,0.0,0.0,0.0,0.0,0.0,0.0,0.0,0.0,0.0,0.0,0.0,0.0,0.0,0.0,0.0,0.0,0.0,0.0,0.0,0.0,0.0,0.0,0.0437,0.1536,0.1543,0.0,0.3348,0.6775,0.9198,1.0189,1.2892,1.4299,1.4299,1.4367,1.4434,1.4516,1.4665,1.474,1.4746,1.4903,1.497,1.4977,1.512,1.5181,1.5174,1.5099,1.5065,1.5065,1.5065,1.5065,1.5072,1.5079,1.5126,1.5174,-1.6978,-1.6978,-1.6978,-1.6978,-1.6978,-1.6978,-1.6978,-1.6978,-1.6826,-1.6165,-1.6021,-1.4886,-1.2184,-1.1691,-1.0594,-0.8438,-0.9961,-1.1138,-1.1449,-0.934,-0.8035,-0.8024,-0.8021,-0.7818,-0.7408,-0.7042,-0.5683,-0.3379,-0.1149,0.0,0.0,0.0,0.0,0.0,0.0,0.0,0.0,0.0,0.0,0.0,0.0,0.0,0.0,0.0,0.0,0.0,0.0,0.0,0.0,0.0,0.0,0.0,0.0,0.0,0.0,0.0,0.0,0.0,0.0,0.0,0.0,0.0,0.0,0.0,0.0,0.0,0.0,0.0,0.0,0.0,0.0,0.0,0.0,0.0,0.0,0.0,0.0,0.0,0.0,0.0,0.0,0.0,0.0,0.0,0.0,0.0,0.0,0.0,0.0,0.4549,0.8035,0.9975,1.2814,1.4312,1.4333,1.4496,1.4584,1.4584,1.4733,1.4808,1.4808,1.4943,1.5004,1.5011,1.5126,1.5181,1.5181,1.5181,1.5181,1.5181,1.5181,1.5181,1.5167,1.5045,1.5079,1.5167,-1.6978,-1.6978,-1.6978,-1.6978,-1.6978,-1.6978,-1.6978,-1.6978,-1.6118,-1.3647,-1.3329,-1.2176,-0.9296,-0.8902,-0.8622,-0.8062,-0.6346,-0.6243,-0.8442,-0.8242,-0.8011,-0.8045,-0.8042,-0.6928,-0.462,-0.2437,-0.1066,-0.058,-0.0192,0.0,0.0,0.0,0.0,0.0,0.0,0.0,0.0,0.0,0.0,0.0,0.0,0.0,0.0,0.0,0.0,0.0,0.0,0.0,0.0,0.0,0.0,0.0,0.0,0.0,0.0,0.0,0.0,0.0,0.0,0.0,0.0,0.0,0.0,0.0,0.0,0.0,0.0,0.0,0.0,0.0,0.0,0.0,0.0,0.0,0.0,0.0,0.0,0.0,0.0,0.0,0.0,0.0,0.0,0.0,0.0,0.0,0.0,0.0,0.0,0.4544,0.7324,0.7855,1.2016,1.436,1.4475,1.476,1.4903,1.4903,1.5045,1.5113,1.5113,1.514,1.5147,1.5153,1.5174,1.5181,1.5181,1.5181,1.5181,1.5181,1.5181,1.5181,1.5181,1.516,1.516,1.5181,-1.6978,-1.6978,-1.6978,-1.6978,-1.6978,-1.6446,-1.4949,-1.4633,-1.3675,-1.0813,-1.0412,-0.928,-0.6412,-0.605,-0.5388,-0.383,-0.2519,-0.2419,-0.3625,-0.3726,-0.372,-0.3702,-0.3683,-0.3157,-0.1849,-0.0679,0.0,0.0,0.0,0.0,0.0,0.0,0.0,0.0,0.0,0.0,0.0,0.0,0.0,0.0,0.0,0.0,0.0,0.0,0.0,0.0,0.0,0.0,0.0,0.0,0.0,0.0,0.0,0.0,0.0,0.0,0.0,0.0,0.0,0.0,0.0,0.0,0.0,0.0,0.0,0.0,0.0,0.0,0.0,0.0,0.0,0.0,0.0,0.0,0.0,0.0,0.0,0.0,0.0,0.0,0.0,0.0,0.0,0.0,0.0,0.0,0.0,0.0,0.0,0.334,0.5859,0.7201,1.195,1.457,1.4631,1.4855,1.497,1.497,1.5113,1.5181,1.5181,1.5181,1.5181,1.5181,1.5181,1.5181,1.5181,1.5181,1.5181,1.5181,1.5181,1.5181,1.5174,1.5099,1.512,1.5174,-1.6978,-1.6978,-1.6768,-1.6124,-1.6019,-1.506,-1.2189,-1.1763,-1.0707,-0.7852,-0.7462,-0.6249,-0.3523,-0.3178,-0.2235,-0.0202,0.0,0.0,0.0,0.0,0.0,0.0,0.0,0.0,0.0,0.0,0.0,0.0,0.0,0.0,0.0,0.0,0.0,0.0,0.0,0.0,0.0,0.0,0.0,0.0,0.0,0.0,0.0,0.0,0.0,0.0,0.0,0.0,0.0,0.0,0.0,0.0,0.0,0.0,0.0,0.0,0.0,0.0,0.0,0.0,0.0,0.0,0.0,0.0,0.0,0.0,0.0,0.0,0.0,0.0,0.0,0.0,0.0,0.0,0.0,0.0,0.0,0.0,0.0,0.0,0.0,0.0,0.0,0.0,0.0,0.0,0.0,0.0,0.0,0.2284,0.4905,0.7918,1.2329,1.476,1.4794,1.4943,1.5018,1.5025,1.5126,1.5181,1.5181,1.5181,1.5181,1.5181,1.5181,1.5181,1.5181,1.5181,1.5181,1.5181,1.5181,1.5181,1.5167,1.5059,1.5086,1.5167,-1.6978,-1.6978,-1.6124,-1.3464,-1.3037,-1.2084,-0.9228,-0.8805,-0.7746,-0.4888,-0.4502,-0.3419,-0.0623,-0.0307,-0.0202,0.0,0.0,0.0,0.0,0.0,0.0,0.0,0.0,0.0,0.0,0.0,0.0,0.0,0.0,0.0,0.0,0.0,0.0,0.0,0.0,0.0,0.0,0.0,0.0,0.0,0.0,0.0,0.0,0.0,0.0,0.0,0.0,0.0,0.0,0.0,0.0,0.0,0.0,0.0,0.0,0.0,0.0,0.0,0.0,0.0,0.0,0.0,0.0,0.0,0.0,0.0,0.0,0.0,0.0,0.0,0.0,0.0,0.0,0.0,0.0,0.0,0.0,0.0,0.0,0.0,0.0,0.0,0.0,0.0,0.0,0.0,0.0,0.0,0.0,0.2308,0.5799,1.047,1.3248,1.4808,1.495,1.5099,1.5167,1.5167,1.5174,1.5181,1.5181,1.5181,1.5181,1.5181,1.5181,1.5181,1.5181,1.5181,1.5181,1.5181,1.5181,1.5181,1.5181,1.5167,1.5174,1.5181,-1.4633,-1.4312,-1.3464,-1.0602,-1.0074,-0.9122,-0.6266,-0.5841,-0.4782,-0.1916,-0.1588,-0.1155,-0.0104,0.0,0.0,0.0,0.0,0.0,0.0,0.0,0.0,0.0,0.0,0.0,0.0,0.0,0.0,0.0,0.0,0.0,0.0,0.0,0.0,0.0,0.0,0.0,0.0,0.0,0.0,0.0,0.0,0.0,0.0,0.0,0.0,0.0,0.0,0.0,0.0,0.0,0.0,0.0,0.0,0.0,0.0,0.0,0.0,0.0,0.0,0.0,0.0,0.0,0.0,0.0,0.0,0.0,0.0,0.0,0.0,0.0,0.0,0.0,0.0,0.0,0.0,0.0,0.0,0.0,0.0,0.0,0.0,0.0,0.0,0.0,0.0,0.0,0.0,0.0,0.0,0.2319,0.518,0.8736,1.1243,1.3321,1.497,1.5113,1.5181,1.5181,1.5181,1.5181,1.5181,1.5181,1.5181,1.5181,1.5181,1.5181,1.5181,1.5181,1.5133,1.5059,1.5147,1.5126,1.5065,1.5153,1.5181,1.5181,-1.1767,-1.1341,-1.0496,-0.7641,-0.7111,-0.616,-0.3296,-0.2872,-0.2235,-0.0213,0.0,0.0,0.0,0.0,0.0,0.0,0.0,0.0,0.0,0.0,0.0,0.0,0.0,0.0,0.0,0.0,0.0,0.0,0.0,0.0,0.0,0.0,0.0,0.0,0.0,0.0,0.0,0.0,0.0,0.0,0.0,0.0,0.0,0.0,0.0,0.0,0.0,0.0,0.0,0.0,0.0,0.0,0.0,0.0,0.0,0.0,0.0,0.0,0.0,0.0,0.0,0.0,0.0,0.0,0.0,0.0,0.0,0.0,0.0,0.0,0.0,0.0,0.0,0.0,0.0,0.0,0.0,0.0,0.0,0.0,0.0,0.0,0.0,0.0,0.0,0.0,0.0,0.0,0.0,0.3079,0.5299,0.6269,1.025,1.2766,1.3839,1.4732,1.5181,1.5181,1.5181,1.5181,1.5181,1.5181,1.5181,1.5181,1.5181,1.516,1.5113,1.5113,1.5059,1.4977,1.5079,1.5086,1.5052,1.5147,1.5181,1.5181,-0.8487,-0.8487,-0.7535,-0.4676,-0.4147,-0.3191,-0.0426,0.0,0.0,0.0,0.0,0.0,0.0,0.0,0.0,0.0,0.0,0.0,0.0,0.0,0.0,0.0,0.0,0.0,0.0,0.0,0.0,0.0,0.0,0.0,0.0,0.0,0.0,0.0,0.0,0.0,0.0,0.0,0.0,0.0,0.0,0.0,0.0,0.0,0.0,0.0,0.0,0.0,0.0,0.0,0.0,0.0,0.0,0.0,0.0,0.0,0.0,0.0,0.0,0.0,0.0,0.0,0.0,0.0,0.0,0.0,0.0,0.0,0.0,0.0,0.0,0.0,0.0,0.0,0.0,0.0,0.0,0.0,0.0,0.0,0.0,0.0,0.0,0.0,0.0,0.0,0.0,0.0,0.0,0.4708,0.6176,0.3657,1.0742,1.3511,1.1217,1.3877,1.5181,1.5181,1.5181,1.5181,1.5181,1.5181,1.5181,1.5181,1.5181,1.5099,1.497,1.497,1.497,1.497,1.497,1.5059,1.5181,1.5181,1.5181,1.5181,-0.5841,-0.5523,-0.457,-0.1703,-0.1278,-0.0958,-0.0107,0.0,0.0,0.0,0.0,0.0,0.0,0.0,0.0,0.0,0.0,0.0,0.0,0.0,0.0,0.0,0.0,0.0,0.0,0.0,0.0,0.0,0.0,0.0,0.0,0.0,0.0,0.0,0.0,0.0,0.0,0.0,0.0,0.0,0.0,0.0,0.0,0.0,0.0,0.0,0.0,0.0,0.0,0.0,0.0,0.0,0.0,0.0,0.0,0.0,0.0,0.0,0.0,0.0,0.0,0.0,0.0,0.0,0.0,0.0,0.0,0.0,0.0,0.0,0.0,0.0,0.0,0.0,0.0,0.0,0.0,0.0,0.0,0.0,0.0,0.0,0.0,0.0,0.0,0.0,0.0,0.0,0.0,0.1426,0.2653,0.3693,0.5898,0.8416,1.1334,1.3834,1.5086,1.5181,1.5181,1.5181,1.5181,1.5181,1.5181,1.5174,1.5079,1.5011,1.4964,1.4855,1.4746,1.4672,1.4889,1.493,1.4896,1.5106,1.5181,1.5167,-0.2872,-0.2553,-0.2022,-0.032,0.0,0.0,0.0,0.0,0.0,0.0,0.0,0.0,0.0,0.0,0.0,0.0,0.0,0.0,0.0,0.0,0.0,0.0,0.0,0.0,0.0,0.0,0.0,0.0,0.0,0.0,0.0,0.0,0.0,0.0,0.0,0.0,0.0,0.0,0.0,0.0,0.0,0.0,0.0,0.0,0.0,0.0,0.0,0.0,0.0,0.0,0.0,0.0,0.0,0.0,0.0,0.0,0.0,0.0,0.0,0.0,0.0,0.0,0.0,0.0,0.0,0.0,0.0,0.0,0.0,0.0,0.0,0.0,0.0,0.0,0.0,0.0,0.0,0.0,0.0,0.0,0.0,0.0,0.0,0.0,0.0,0.0,0.0,0.0,0.0,0.0954,0.1715,0.2285,0.4221,0.6272,0.8353,1.0762,1.254,1.3664,1.3664,1.3664,1.3758,1.4704,1.5181,1.5174,1.5031,1.4936,1.4869,1.4713,1.4597,1.4529,1.4719,1.4808,1.4855,1.5031,1.5099,1.5086,0.0,0.0,0.0,0.0,0.0,0.0,0.0,0.0,0.0,0.0,0.0,0.0,0.0,0.0,0.0,0.0,0.0,0.0,0.0,0.0,0.0,0.0,0.0,0.0,0.0,0.0,0.0,0.0,0.0,0.0,0.0,0.0,0.0,0.0,0.0,0.0,0.0,0.0,0.0,0.0,0.0,0.0,0.0,0.0,0.0,0.0,0.0,0.0,0.0,0.0,0.0,0.0,0.0,0.0,0.0,0.0,0.0,0.0,0.0,0.0,0.0,0.0,0.0,0.0,0.0,0.0,0.0,0.0,0.0,0.0,0.0,0.0,0.0,0.0,0.0,0.0,0.0,0.0,0.0,0.0,0.0,0.0,0.0,0.0,0.0,0.0,0.0,0.0,0.0,0.219,0.238,0.0095,0.4386,0.5773,0.3801,0.5776,0.8196,1.1102,1.1102,1.1197,1.1485,1.3758,1.4986,1.5153,1.5011,1.4862,1.4706,1.4557,1.4502,1.4509,1.4509,1.4692,1.495,1.4964,1.4964,1.495,0.0,0.0,0.0,0.0,0.0,0.0,0.0,0.0,0.0,0.0,0.0,0.0,0.0,0.0,0.0,0.0,0.0,0.0,0.0,0.0,0.0,0.0,0.0,0.0,0.0,0.0,0.0,0.0,0.0,0.0,0.0,0.0,0.0,0.0,0.0,0.0,0.0,0.0,0.0,0.0,0.0,0.0,0.0,0.0,0.0,0.0,0.0,0.0,0.0,0.0,0.0,0.0,0.0,0.0,0.0,0.0,0.0,0.0,0.0,0.0,0.0,0.0,0.0,0.0,0.0,0.0,0.0,0.0,0.0,0.0,0.0,0.0,0.0,0.0,0.0,0.0,0.0,0.0,0.0,0.0,0.0,0.0,0.0,0.0,0.0,0.0,0.0,0.0,0.0,0.0477,0.0572,0.0,0.1036,0.2352,0.3803,0.2352,0.3853,0.8447,0.8447,0.9488,1.139,1.1956,1.3228,1.5011,1.4855,1.4706,1.455,1.4407,1.4414,1.4509,1.4509,1.4624,1.4801,1.493,1.4896,1.4774,0.0,0.0,0.0,0.0,0.0,0.0,0.0,0.0,0.0,0.0,0.0,0.0,0.0,0.0,0.0,0.0,0.0,0.0,0.0,0.0,0.0,0.0,0.0,0.0,0.0,0.0,0.0,0.0,0.0,0.0,0.0,0.0,0.0,0.0,0.0,0.0,0.0,0.0,0.0,0.0,0.0,0.0,0.0,0.0,0.0,0.0,0.0,0.0,0.0,0.0,0.0,0.0,0.0,0.0,0.0,0.0,0.0,0.0,0.0,0.0,0.0,0.0,0.0,0.0,0.0,0.0,0.0,0.0,0.0,0.0,0.0,0.0,0.0,0.0,0.0,0.0,0.0,0.0,0.0,0.0,0.0,0.0,0.0,0.0,0.0,0.0,0.0,0.0,0.0,0.0,0.0,0.0,0.0,0.0661,0.2,0.0661,0.1321,0.3995,0.5225,0.7122,0.9582,1.0766,1.2719,1.5059,1.4835,1.474,1.4719,1.457,1.4557,1.4611,1.4536,1.4604,1.4753,1.4828,1.4808,1.4706,0.0,0.0,0.0,0.0,0.0,0.0,0.0,0.0,0.0,0.0,0.0,0.0,0.0,0.0,0.0,0.0,0.0,0.0,0.0,0.0,0.0,0.0,0.0,0.0,0.0,0.0,0.0,0.0,0.0,0.0,0.0,0.0,0.0,0.0,0.0,0.0,0.0,0.0,0.0,0.0,0.0,0.0,0.0,0.0,0.0,0.0,0.0,0.0,0.0,0.0,0.0,0.0,0.0,0.0,0.0,0.0,0.0,0.0,0.0,0.0,0.0,0.0,0.0,0.0,0.0,0.0,0.0,0.0,0.0,0.0,0.0,0.0,0.0,0.0,0.0,0.0,0.0,0.0,0.0,0.0,0.0,0.0,0.0,0.0,0.0,0.0,0.0,0.0,0.0,0.0,0.0,0.0,0.0,0.0,0.0,0.0,0.0,0.0,0.257,0.5126,0.7666,1.0133,1.2661,1.5092,1.4848,1.4814,1.4923,1.4794,1.4753,1.476,1.4584,1.4618,1.4774,1.4746,1.474,1.4699,0.0,0.0,0.0,0.0,0.0,0.0,0.0,0.0,0.0,0.0,0.0,0.0,0.0,0.0,0.0,0.0,0.0,0.0,0.0,0.0,0.0,0.0,0.0,0.0,0.0,0.0,0.0,0.0,0.0,0.0,0.0,0.0,0.0,0.0,0.0,0.0,0.0,0.0,0.0,0.0,0.0,0.0,0.0,0.0,0.0,0.0,0.0,0.0,0.0,0.0,0.0,0.0,0.0,0.0,0.0,0.0,0.0,0.0,0.0,0.0,0.0,0.0,0.0,0.0,0.0,0.0,0.0,0.0,0.0,0.0,0.0,0.0,0.0,0.0,0.0,0.0,0.0,0.0,0.0,0.0,0.0,0.0,0.0,0.0,0.0,0.0,0.0,0.0,0.0,0.0,0.0,0.0,0.0,0.0,0.0,0.0,0.0,0.0,0.257,0.5107,0.7497,1.0008,1.2477,1.4801,1.476,1.4753,1.4767,1.4746,1.4821,1.4909,1.4624,1.4685,1.4923,1.4787,1.474,1.4713,0.0,0.0,0.0,0.0,0.0,0.0,0.0,0.0,0.0,0.0,0.0,0.0,0.0,0.0,0.0,0.0,0.0,0.0,0.0,0.0,0.0,0.0,0.0,0.0,0.0,0.0,0.0,0.0,0.0,0.0,0.0,0.0,0.0,0.0,0.0,0.0,0.0,0.0,0.0,0.0,0.0,0.0,0.0,0.0,0.0,0.0,0.0,0.0,0.0,0.0,0.0,0.0,0.0,0.0,0.0,0.0,0.0,0.0,0.0,0.0,0.0,0.0,0.0,0.0,0.0,0.0,0.0,0.0,0.0,0.0,0.0,0.0,0.0,0.0,0.0,0.0,0.0,0.0,0.0,0.0,0.0,0.0,0.0,0.0,0.0,0.0,0.0,0.0,0.0,0.0,0.0,0.0,0.0,0.0,0.0,0.0,0.0,0.0,0.3972,0.6406,0.7635,1.0026,1.2534,1.4984,1.4903,1.4916,1.4991,1.4991,1.5025,1.5059,1.4753,1.4719,1.4814,1.4577,1.4597,1.4719]},{"header":{"parameterUnit":"m.s-1","parameterCategory":1,"la1":30.6,"la2":28.766,"lo1":-90.7593,"lo2":-88.6598,"dy":0.0162,"dx":0.0183,"nx":116,"ny":114,"refTime":"2023-09-30T12:00:00:Z","depth":0,"parameterNumber":3,"parameterNumberName":"V-component_of_WINDS"},"data":[0.0,0.0,0.0,0.0,0.0,0.0,0.0,0.0,0.0,0.0,0.0,0.0,0.0,0.0,0.0,0.0,0.0,0.0,0.0,0.0,0.0,0.0,0.0,0.0,0.0,0.0,0.0,0.0,0.0,0.0,0.0,0.0,0.0,0.0,0.0,0.0,0.0,0.0,0.0,0.0,0.0,0.0,0.0,0.0,0.0,0.0,0.0,0.0,0.0,0.0,0.0,0.0,0.0,0.0,0.0,0.0,0.0,0.0,0.0,0.0,0.0,0.0,0.0,0.0,0.0,0.0,0.0,0.0,0.0,0.0,0.0,0.0,0.0,0.0,0.0,0.0,0.0,0.0,0.0,0.0,0.0,0.0,0.0,0.0,0.0,0.0,0.0,0.0,0.0,0.0,0.0,0.0,0.0,0.0,0.0,0.0,0.0,0.0,0.0,0.0,0.0,0.0,0.0,0.0,0.0,0.0,0.0,0.0,0.0,0.0,0.0,0.0,0.0,0.0,0.0,0.0,0.0,0.0,0.0,0.0,0.0,0.0,0.0,0.0,0.0,0.0,0.0,0.0,0.0,0.0,0.0,0.0,0.0,0.0,0.0,0.0,0.0,0.0,0.0,0.0,0.0,0.0,0.0,0.0,0.0,0.0,0.0,0.0,0.0,0.0,0.0,0.0,0.0,0.0,0.0,0.0,0.0,0.0,0.0,0.0,0.0,0.0,0.0,0.0,0.0,0.0,0.0,0.0,0.0,0.0,0.0,0.0,0.0,0.0,0.0,0.0,0.0,0.0,0.0,0.0,0.0,0.0,0.0,0.0,0.0,0.0,0.0,0.0,0.0,0.0,0.0,0.0,0.0,0.0,0.0,0.0,0.0,0.0,0.0,0.0,0.0,0.0,0.0,0.0,0.0,0.0,0.0,0.0,0.0,0.0,0.0,0.0,0.0,0.0,0.0,0.0,0.0,0.0,0.0,0.0,0.0,0.0,0.0,0.0,0.0,0.0,0.0,0.0,0.0,0.0,0.0,0.0,0.0,0.0,0.0,0.0,0.0,0.0,0.0,0.0,0.0,0.0,0.0,0.0,0.0,0.0,0.0,0.0,0.0,0.0,0.0,0.0,0.0,0.0,0.0,0.0,0.0,0.0,0.0,0.0,0.0,0.0,0.0,0.0,0.0,0.0,0.0,0.0,0.0,0.0,0.0,0.0,0.0,0.0,0.0,0.0,0.0,0.0,0.0,0.0,0.0,0.0,0.0,0.0,0.0,0.0,0.0,0.0,0.0,0.0,0.0,0.0,0.0,0.0,0.0,0.0,0.0,0.0,0.0,0.0,0.0,0.0,0.0,0.0,0.0,0.0,0.0,0.0,0.0,0.0,0.0,0.0,0.0,0.0,0.0,0.0,0.0,0.0,0.0,0.0,0.0,0.0,0.0,0.0,0.0,0.0,0.0,0.0,0.0,0.0,0.0,0.0,0.0,0.0,0.0,0.0,0.0,0.0,0.0,0.0,0.0,0.0,0.0,0.0,0.0,0.0,0.0,0.0,0.0,0.0,0.0,0.0,0.0,0.0,0.0,0.0,0.0,0.0,0.0,0.0,0.0,0.0,0.0,0.0,0.0,0.0,0.0,0.0,0.0,0.0,0.0,0.0,0.0,0.0,0.0,0.0,0.0,0.0,0.0,0.0,0.0,0.0,0.0,0.0,0.0,0.0,0.0,0.0,0.0,0.0,0.0,0.0,0.0,0.0,0.0,0.0,0.0,0.0,0.0,0.0,0.0,0.0,0.0,0.0,0.0,0.0,0.0,0.0,0.0,0.0,0.0,0.0,0.0,0.0,0.0,0.0,0.0,0.0,0.0,0.0,0.0,0.0,0.0,0.0,0.0,0.0,0.0,0.0,0.0,0.0,0.0,0.0,0.0,0.0,0.0,0.0,0.0,0.0,0.0,0.0,0.0,0.0,0.0,0.0,0.0,0.0,0.0,0.0,0.0,0.0,0.0,0.0,0.0,0.0,0.0,0.0,0.0,0.0,0.0,0.0,0.0,0.0,0.0,0.0,0.0,0.0,0.0,0.0,0.0,0.0,0.0,0.0,0.0,0.0,0.0,0.0,0.0,0.0,0.0,0.0,0.0,0.0,0.0,0.0,0.0,0.0,0.0,0.0,0.0,0.0,0.0,0.0,0.0,0.0,0.0,0.0,0.0,0.0,0.0,0.0,0.0,0.0,0.0,0.0,0.0,0.0,0.0,0.0,0.0,0.0,0.0,0.0,0.0,0.0,0.0,0.0,0.0,0.0,0.0,0.0,0.0,0.0,0.0,0.0,0.0,0.0,0.0,0.0,0.0,0.0,0.0,0.0,0.0,0.0,0.0,0.0,0.0,0.0,0.0,0.0,0.0,0.0,0.0,0.0,0.0,0.0,0.0,0.0,0.0,0.0,0.0,0.0,0.0,0.0,0.0,0.0,0.0,0.0,0.0,0.0,0.0,0.0,0.0,0.0,0.0,0.0,0.0,0.0,0.0,0.0,0.0,0.0,0.0,0.0,0.0,0.0,0.0,0.0,0.0,0.0,0.0,0.0,0.0,0.0,0.0,0.0,0.0,0.0,0.0,0.0,0.0,0.0,0.0,0.0,0.0,0.0,0.0,0.0,0.0,0.0,0.0,0.0,0.0,0.0,0.0,0.0,0.0,0.0,0.0,0.0,0.0,0.0,0.0,0.0,0.0,0.0,0.0,0.0,0.0,0.0,0.0,0.0,0.0,0.0,0.0,0.0,0.0,0.0,0.0,0.0,0.0,0.0,0.0,0.0,0.0,0.0,0.0,0.0,0.0,0.0,0.0,0.0,0.0,0.0,0.0,0.0,0.0,0.0,0.0,0.0,0.0,0.0,0.0,0.0,0.0,0.0,0.0,0.0,0.0,0.0,0.0,0.0,0.0,0.0,0.0,0.0,0.0,0.0,0.0,0.0,0.0,0.0,0.0,0.0,0.0,0.0,0.0,0.0,0.0,0.0,0.0,0.0,0.0,0.0,0.0,0.0,0.0,0.0,0.0,0.0,0.0,0.0,0.0,0.0,0.0,0.0,0.0,0.0,0.0,0.0,0.0,0.0,0.0,0.0,0.0,0.0,0.0,0.0,0.0,0.0,0.0,0.0,0.0,0.0,0.0,0.0,0.0,0.0,0.0,0.0,0.0,0.0,0.0,0.0,0.0,0.0,0.0,0.0,0.0,0.0,0.0,0.0,0.0,0.0,0.0,0.0,0.0,0.0,0.0,0.0,0.0,0.0,0.0,0.0,0.0,0.0,0.0,0.0,0.0,0.0,0.0,0.0,0.0,0.0,0.0,0.0,0.0,0.0,0.0,0.0,0.0,0.0,0.0,0.0,0.0,0.0,0.0,0.0,0.0,0.0,0.0,0.0,0.0,0.0,0.0,0.0,0.0,0.0,0.0,0.0,0.0,0.0,0.0,0.0,0.0,0.0,0.0,0.0,0.0,0.0,0.0,0.0,0.0,0.0,0.0,0.0,0.0,0.0,0.0,0.0,0.0,0.0,0.0,0.0,0.0,0.0,0.0,0.0,0.0,0.0,0.0,0.0,0.0,0.0,0.0,0.0,0.0,0.0,0.0,0.0,0.0,0.0,0.0,0.0,0.0,0.0,0.0,0.0,0.0,0.0,0.0,0.0,0.0,0.0,0.0,0.0,0.0,0.0,0.0,0.0,0.0,0.0,0.0,0.0,0.0,0.0,0.0,0.0,0.0,0.0,0.0,0.0,0.0,0.0,0.0,0.0,0.0,0.0,0.0,0.0,0.0,0.0,0.0,0.0,0.0,0.0,0.0,0.0,0.0,0.0,0.0,0.0,0.0,0.0,0.0,0.0,0.0,0.0,0.0,0.0,0.0,0.0,0.0,0.0,0.0,0.0,0.0,0.0,0.0,0.0,0.0,0.0,0.0,0.0,0.0,0.0,0.0,0.0,0.0,0.0,0.0,0.0,0.0,0.0,0.0,0.0,0.0,0.0,0.0,0.0,0.0,0.0,0.0,0.0,0.0,0.0,0.0,0.0,0.0,0.0,0.0,0.0,0.0,0.0,0.0,0.0,0.0,0.0,0.0,0.0,0.0,0.0,0.0,0.0,0.0,0.0,0.0,0.0,0.0,0.0,0.0,0.0,0.0,0.0,0.0,0.0,0.0,0.0,0.0,0.0,0.0,0.0,0.0,0.0,0.0,0.0,0.0,0.0,0.0,0.0,0.0,0.0,0.0,0.0,0.0,0.0,0.0,0.0,0.0,0.0,0.0,0.0,0.0,0.0,0.0,0.0,0.0,0.0,0.0,0.0,0.0,0.0,0.0,0.0,0.0,0.0,0.0,0.0,0.0,0.0,0.0,0.0,0.0,0.0,0.0,0.0,0.0,0.0,0.0,0.0,0.0,0.0,0.0,0.0,0.0,0.0,0.0,0.0,0.0,0.0,0.0,0.0,0.0,0.0,0.0,0.0,0.0,0.0,0.0,0.0,0.0,0.0,0.0,0.0,0.0,0.0,0.0,0.0,0.0,0.0,0.0,0.0,0.0,0.0,0.0,0.0,0.0,0.0,0.0,0.0,0.0,0.0,0.0,0.0,0.0,0.0,0.0,0.0,0.0,0.0,0.0,0.0,0.0,0.0,0.0,0.0,0.0,0.0,0.0,0.0,0.0,0.0,0.0,0.0,0.0,0.0,0.0,0.0,0.0,0.0,0.0,0.0,0.0,0.0,0.0,0.0,0.0,0.0,0.0,0.0,0.0,0.0,0.0,0.0,0.0,0.0,0.0,0.0,0.0,0.0,0.0,0.0,0.0,0.0,0.0,0.0,0.0,0.0,0.0,0.0,0.0,0.0,0.0,0.0,0.0,0.0,0.0,0.0,0.0,0.0,0.0,0.0,0.0,0.0,0.0,0.0,0.0,0.0,0.0,0.0,0.0,0.0,0.0,0.0,0.0,0.0,0.0,0.0,0.0,0.0,0.0,0.0,0.0,0.0,0.0,0.0,0.0,0.0,0.0,0.0,0.0,0.0,0.0,0.0,0.0,0.0,0.0,0.0,0.0,0.0,0.0,0.0,0.0,0.0,0.0,0.0,0.0,0.0,0.0,0.0,0.0,0.0,0.0,0.0,0.0,0.0,0.0,0.0,0.0,0.0,0.0,0.0,0.0,0.0,0.0,0.0,0.0,0.0,0.0,0.0,0.0,0.0,0.0,0.0,0.0,0.0,0.0,0.0,0.0,0.0,0.0,0.0,0.0,0.0,0.0,0.0,0.0,0.0,0.0,0.0,0.0,0.0,0.0,0.0,0.0,0.0,0.0,0.0,0.0,0.0,0.0,0.0,0.0,0.0,0.0,0.0,0.0,0.0,0.0,0.0,0.0,0.0,0.0,0.0,0.0,0.0,0.0,0.0,0.0,0.0,0.0,0.0,0.0,0.0,0.0,0.0,0.0,0.0,0.0,0.0,0.0,0.0,0.0,0.0,0.0,0.0,0.0,0.0,0.0,0.0,0.0,0.0,0.0,0.0,0.0,0.0,0.0,0.0,0.0,0.0,0.0,0.0,0.0,0.0,0.0,0.0,0.0,0.0,0.0,0.0,0.0,0.0,0.0,0.0,0.0,0.0,0.0,0.0,0.0,0.0,0.0,0.0,0.0,0.0,0.0,0.0,0.0,0.0,0.0,0.0,0.0,0.0,0.0,0.0,0.0,0.0,0.0,0.0,0.0,0.0,0.0,0.0,0.0,0.0,0.0,0.0,0.0,0.0,0.0,0.0,0.0,0.0,0.0,0.0,0.0,0.0,0.0,0.0,0.0,0.0,0.0,0.0,0.0,0.0,0.0,0.0,0.0,0.0,0.0,0.0,0.0,0.0,0.0,0.0,0.0,0.0,0.0,0.0,0.0,0.0,0.0,0.0,0.0,0.0,0.0,0.0,0.0,0.0,0.0,0.0,0.0,0.0,0.0,0.0,0.0,0.0,0.0,0.0,0.0,0.0,0.0,0.0,0.0,0.0,0.0,0.0,0.0,0.0,0.0,0.0,0.0,0.0,0.0,0.0,0.0,0.0,0.0,0.0,0.0,0.0,5.6641,0.0,0.0,0.0,0.0,0.0,0.0,0.0,0.0,0.0,0.0,0.0,0.0,0.0,0.0,0.0,0.0,0.0,0.0,0.0,0.0,0.0,0.0,0.0,0.0,0.0,0.0,0.0,0.0,0.0,0.0,0.0,0.0,0.0,0.0,0.0,0.0,0.0,0.0,4.7327,4.8071,4.8984,5.0002,4.9826,4.8923,4.7572,0.0,0.0,0.0,0.0,0.0,0.0,0.0,0.0,0.0,0.0,0.0,0.0,0.0,0.0,0.0,0.0,0.0,0.0,0.0,0.0,0.0,0.0,0.0,0.0,0.0,0.0,0.0,0.0,0.0,0.0,0.0,0.0,0.0,0.0,0.0,0.0,0.0,0.0,0.0,0.0,0.0,0.0,0.0,0.0,0.0,0.0,0.0,0.0,0.0,0.0,0.0,0.0,0.0,0.0,0.0,0.0,0.0,0.0,0.0,0.0,0.0,0.0,0.0,0.0,0.0,0.0,0.0,0.0,0.0,0.0,0.0,5.7464,0.0,0.0,0.0,0.0,0.0,0.0,0.0,0.0,0.0,0.0,0.0,0.0,0.0,0.0,0.0,0.0,0.0,0.0,0.0,0.0,0.0,0.0,0.0,4.6605,4.6543,4.5917,4.6116,4.5936,4.5184,0.0,0.0,0.0,0.0,0.0,4.5703,4.5838,4.6616,4.8075,4.9357,5.1048,5.3112,5.389,5.2942,5.0507,4.9864,0.0,0.0,0.0,0.0,0.0,0.0,0.0,0.0,0.0,0.0,0.0,0.0,0.0,0.0,0.0,0.0,0.0,0.0,0.0,0.0,0.0,0.0,0.0,0.0,0.0,0.0,0.0,0.0,0.0,0.0,0.0,0.0,0.0,0.0,0.0,0.0,0.0,0.0,0.0,0.0,0.0,0.0,0.0,0.0,0.0,0.0,0.0,0.0,0.0,0.0,0.0,0.0,0.0,0.0,0.0,0.0,0.0,0.0,0.0,0.0,0.0,0.0,0.0,6.6508,6.6434,6.6358,6.6358,6.5882,6.4899,6.2871,6.1961,6.1796,5.9841,0.0,0.0,0.0,0.0,0.0,0.0,0.0,0.0,0.0,0.0,0.0,0.0,0.0,0.0,0.0,0.0,0.0,0.0,0.0,4.6531,4.6425,4.7108,4.7544,4.7437,4.806,4.8179,4.7449,4.6765,4.6158,4.5596,4.5568,4.5602,4.5703,4.6312,4.7394,4.8849,5.2232,5.4668,5.6224,5.6968,5.7103,5.6562,5.3315,5.186,5.1792,0.0,0.0,0.0,0.0,0.0,0.0,0.0,0.0,0.0,0.0,0.0,0.0,0.0,0.0,0.0,0.0,0.0,0.0,0.0,0.0,0.0,0.0,0.0,0.0,0.0,0.0,0.0,0.0,0.0,0.0,0.0,0.0,0.0,0.0,0.0,0.0,0.0,0.0,0.0,0.0,0.0,5.664,5.7294,0.0,0.0,0.0,0.0,0.0,0.0,0.0,0.0,0.0,0.0,0.0,0.0,0.0,6.3066,6.4863,6.7038,6.7858,6.7465,7.0026,7.0878,7.0239,7.0239,7.0941,7.2004,6.9713,0.0,6.2844,6.3084,0.0,0.0,0.0,0.0,0.0,0.0,0.0,0.0,0.0,0.0,0.0,0.0,0.0,0.0,0.0,0.0,0.0,0.0,0.0,0.0,0.0,5.0219,5.1562,5.1586,5.3599,5.3841,5.1272,5.0814,4.9679,4.7605,4.7113,4.6865,4.6865,4.7174,4.8924,5.2087,5.5858,5.8457,5.9945,6.0689,6.1061,6.096,5.8896,5.6562,5.416,5.3078,0.0,0.0,0.0,0.0,0.0,0.0,0.0,0.0,0.0,0.0,0.0,0.0,0.0,0.0,0.0,0.0,0.0,0.0,0.0,0.0,0.0,0.0,0.0,0.0,0.0,0.0,0.0,0.0,0.0,0.0,0.0,0.0,0.0,0.0,0.0,0.0,0.0,0.0,0.0,5.7578,5.9112,5.7621,5.7335,5.6094,0.0,0.0,0.0,0.0,0.0,0.0,0.0,0.0,0.0,6.3147,6.5268,6.689,6.8035,7.033,7.178,7.2391,7.374,7.4431,7.454,7.454,7.4918,7.5566,7.4577,7.2418,6.9491,6.7086,6.4281,6.127,0.0,0.0,0.0,0.0,5.2901,5.3717,0.0,0.0,0.0,0.0,0.0,0.0,0.0,0.0,0.0,0.0,0.0,0.0,5.0435,5.3841,5.6188,5.6358,5.8861,5.8932,5.5383,5.4392,5.261,4.9618,4.8741,4.8381,4.8381,4.9943,5.2875,5.7276,6.084,6.3148,6.4244,6.4954,6.5066,6.4613,6.4038,6.1197,5.6765,5.5649,5.3957,5.2029,0.0,0.0,0.0,0.0,0.0,0.0,0.0,0.0,0.0,0.0,0.0,0.0,0.0,0.0,0.0,0.0,0.0,0.0,0.0,0.0,0.0,0.0,0.0,0.0,0.0,0.0,0.0,0.0,0.0,0.0,0.0,0.0,0.0,0.0,0.0,0.0,0.0,6.0178,6.1763,5.9556,6.0469,5.9759,0.0,0.0,0.0,0.0,0.0,0.0,6.2523,6.4389,6.5987,6.7201,6.9563,7.1404,7.2569,7.4368,7.5763,7.6754,7.6754,7.6937,7.7273,7.7273,7.7273,7.7273,7.7273,7.6613,7.5152,7.0731,6.7563,6.5149,6.2785,6.0249,5.7925,5.716,5.6885,5.7209,0.0,0.0,0.0,0.0,0.0,0.0,0.0,0.0,0.0,0.0,0.0,5.2123,5.2931,5.7276,6.0408,6.1202,6.2107,6.1635,5.9283,5.623,5.354,5.118,5.0297,4.9882,4.9882,5.5745,6.0767,6.4767,6.7864,6.931,6.9159,6.9921,6.9357,6.7692,6.7624,6.4749,5.9742,5.7611,5.5818,5.4228,5.2097,0.0,0.0,0.0,0.0,0.0,0.0,0.0,0.0,0.0,0.0,0.0,0.0,0.0,0.0,0.0,0.0,0.0,0.0,0.0,0.0,0.0,0.0,0.0,0.0,0.0,0.0,0.0,0.0,0.0,0.0,0.0,0.0,0.0,0.0,0.0,0.0,0.0,0.0,6.5915,6.8087,0.0,0.0,0.0,0.0,6.1727,6.3111,6.5059,6.7306,6.8283,7.0835,7.5372,7.5629,7.687,7.9286,7.9433,7.914,7.8479,7.8479,7.8075,7.7273,7.7273,7.7273,7.7273,7.7273,7.7237,7.6907,7.3641,7.085,6.8222,6.3651,6.1343,6.0149,5.7071,5.7366,5.9522,0.0,0.0,0.0,0.0,0.0,0.0,4.928,4.9155,4.9168,4.9433,5.2084,5.4535,5.6132,6.1557,6.5632,6.6953,6.8752,6.8596,6.5706,6.1478,5.8276,5.6418,5.3159,5.283,5.5959,6.0713,6.4567,6.7474,7.0057,7.1511,7.1877,7.1494,7.0972,7.0354,7.0354,6.8779,6.5959,6.3033,6.0114,5.7342,5.6576,5.4664,0.0,0.0,0.0,0.0,0.0,0.0,0.0,0.0,0.0,0.0,0.0,0.0,0.0,0.0,0.0,0.0,0.0,0.0,0.0,0.0,0.0,0.0,0.0,0.0,0.0,0.0,0.0,0.0,0.0,0.0,0.0,0.0,0.0,0.0,0.0,0.0,0.0,6.8602,7.0076,0.0,6.6733,6.7276,6.7431,6.6632,6.9884,7.248,7.3855,7.4732,7.5989,7.7671,7.7708,7.8112,7.9029,7.9029,7.914,7.936,7.8295,7.7892,7.8112,7.753,7.7273,7.7273,7.7273,7.7273,7.7127,7.4955,7.323,7.1742,6.8995,6.6809,6.5149,6.4493,6.4134,6.4077,0.0,0.0,0.0,0.0,0.0,0.0,4.9687,4.9575,4.989,5.1029,5.4535,5.7864,6.0317,6.6235,7.0592,7.1958,7.3329,7.2386,6.8348,6.4016,6.0272,5.7313,5.5189,5.6745,6.2493,6.5646,6.8538,7.1179,7.2981,7.3938,7.4046,7.3416,7.2777,7.2215,7.2494,7.1761,7.0224,6.8349,6.5176,6.1427,6.0699,5.8614,5.5697,0.0,0.0,0.0,0.0,0.0,0.0,0.0,0.0,0.0,0.0,0.0,0.0,0.0,0.0,0.0,0.0,0.0,0.0,0.0,0.0,0.0,0.0,0.0,0.0,0.0,0.0,0.0,0.0,0.0,0.0,0.0,0.0,0.0,0.0,6.6654,7.0112,7.1153,7.3297,7.382,7.1608,7.2454,7.3099,7.3099,7.5733,7.7818,7.8919,7.925,7.9543,7.98,8.0094,8.0094,7.98,8.0094,8.0204,8.0167,7.8809,7.8295,7.8552,7.7708,7.698,7.6503,7.7053,7.698,7.643,7.5652,7.4845,7.3927,7.2055,7.0146,6.8531,6.8788,6.8054,6.688,0.0,0.0,0.0,0.0,0.0,0.0,5.0123,4.9768,5.0415,5.2968,5.764,6.2042,6.5425,7.1118,7.507,7.5928,7.5365,7.259,6.7006,6.3479,5.9121,5.357,5.6492,6.1594,6.8862,7.0587,7.2973,7.613,7.6937,7.6793,7.5857,7.5787,7.4904,7.3324,7.4029,7.357,7.2261,7.3006,7.0771,6.6503,6.4152,6.2266,6.0416,0.0,0.0,0.0,0.0,0.0,0.0,0.0,0.0,0.0,0.0,0.0,0.0,0.0,0.0,0.0,0.0,0.0,0.0,0.0,0.0,0.0,0.0,0.0,0.0,0.0,0.0,0.0,0.0,0.0,0.0,0.0,0.0,0.0,6.4266,6.973,7.3815,7.3978,7.8185,8.0461,7.8883,8.0167,8.1122,8.1085,8.0388,8.0645,8.2186,8.1525,8.1415,8.215,8.2957,8.2957,8.2113,8.2994,8.2627,8.1048,8.0204,7.9396,7.8589,7.7745,7.6466,7.5065,7.6613,7.6393,7.5028,7.5799,7.5652,7.4698,7.2312,7.0881,7.0036,6.9229,6.8385,6.754,0.0,0.0,0.0,0.0,0.0,5.0563,5.0563,4.9914,5.0459,5.3286,5.854,6.3386,6.7032,7.3204,7.7382,7.821,7.7003,7.4374,7.0041,6.4502,5.9996,5.6808,6.0933,6.5888,7.1394,7.3083,7.4918,7.6974,7.7163,7.7181,7.6856,7.6128,7.5541,7.5082,7.5297,7.5153,7.4828,7.5762,7.5111,7.3141,6.9471,6.6388,6.3658,0.0,0.0,0.0,0.0,0.0,0.0,0.0,0.0,0.0,0.0,0.0,0.0,0.0,0.0,0.0,0.0,0.0,0.0,0.0,0.0,0.0,0.0,0.0,0.0,0.0,0.0,0.0,0.0,0.0,0.0,0.0,6.6953,7.0201,7.0185,7.2715,7.5879,7.9438,8.1562,8.259,8.2113,8.303,8.3361,8.281,8.3618,8.4095,8.3948,8.3177,8.2333,8.1379,8.2113,8.1856,8.0461,8.2406,8.2884,8.1856,8.1048,8.0241,7.9433,7.8626,7.7671,7.665,7.709,7.7053,7.6613,7.624,7.5983,7.5579,7.3744,7.2202,7.0881,7.0073,6.8531,6.6623,0.0,0.0,0.0,0.0,0.0,5.0712,5.0712,5.0289,5.1065,5.4188,6.0032,6.5299,6.8883,7.5017,7.8934,7.9047,7.7635,7.429,6.8585,6.3081,6.0763,6.2387,6.5817,6.969,7.3927,7.5249,7.6356,7.7273,7.7273,7.7273,7.7273,7.6728,7.6396,7.6396,7.6396,7.6396,7.6465,7.7051,7.7017,7.6362,7.3598,7.0796,6.7956,6.4919,6.29,6.1536,6.0356,6.0408,6.0791,6.0148,0.0,0.0,0.0,0.0,0.0,0.0,0.0,0.0,0.0,0.0,0.0,0.0,0.0,0.0,0.0,0.0,0.0,0.0,0.0,0.0,0.0,0.0,0.0,0.0,6.9669,7.3707,7.5763,7.657,7.8369,8.226,8.3434,8.4168,8.4866,8.5049,8.5049,8.4939,8.5453,8.5894,8.6114,8.5673,8.4535,8.259,8.3948,8.3471,8.0828,8.3214,8.3985,8.3177,8.2039,8.1269,8.0755,7.925,7.8112,7.7273,7.7273,7.709,7.679,7.668,7.6423,0.0,0.0,0.0,0.0,0.0,6.8715,6.7283,0.0,0.0,0.0,0.0,0.0,5.0712,5.0712,5.0519,5.1741,5.5511,6.1512,6.6859,7.0514,7.6229,7.9514,7.8904,7.7121,7.2738,6.4917,6.0928,6.1901,6.8682,7.0513,7.2955,7.639,7.7172,7.748,7.7426,7.7426,7.7365,7.7273,7.7273,7.7273,7.7273,7.7273,7.7273,7.7273,7.7273,7.7273,7.7237,7.6423,7.4771,7.2349,6.8605,6.7112,6.6831,6.5337,6.442,6.4045,6.4495,0.0,0.0,0.0,0.0,0.0,0.0,0.0,0.0,0.0,0.0,0.0,0.0,0.0,0.0,0.0,0.0,0.0,0.0,0.0,0.0,0.0,0.0,0.0,0.0,7.2333,7.6013,8.0698,8.0708,8.1048,8.3398,8.4389,8.549,8.6995,8.6481,8.6407,8.7215,8.6628,8.6811,8.828,0.0,0.0,0.0,0.0,8.6297,8.2627,8.4829,8.5527,8.4719,8.3287,8.2443,8.2113,8.0094,7.8589,7.7567,7.7567,7.7151,7.6507,7.7169,7.6972,7.6177,7.458,7.3353,7.2239,7.0,6.909,6.8825,0.0,0.0,0.0,0.0,0.0,5.0712,5.0712,4.951,5.0818,5.7011,6.0742,6.4897,7.0321,7.5057,7.8046,7.8522,7.4551,7.0049,6.5404,6.3365,6.503,7.1086,7.2892,7.5269,7.854,7.8765,7.8602,7.8128,7.8128,7.7854,7.7273,7.7273,7.7273,7.7273,7.7273,7.7273,7.7273,7.7273,7.7273,7.7237,7.6423,7.5432,7.4221,7.2129,7.0942,7.0271,6.9284,6.9659,7.0381,6.8587,6.8715,6.9421,6.8128,6.6402,0.0,0.0,0.0,0.0,0.0,0.0,0.0,0.0,0.0,0.0,0.0,0.0,0.0,0.0,0.0,0.0,0.0,0.0,0.0,7.4131,7.686,7.9793,8.3232,8.315,8.3361,8.5123,8.604,8.6921,8.7876,8.7839,8.8059,8.8904,8.8793,8.8867,8.916,8.8573,8.7692,8.6591,8.6995,8.6554,8.5123,8.6224,8.6371,8.5563,0.0,0.0,8.2186,8.2406,8.1342,7.9323,7.9323,7.9141,7.8796,7.8313,7.792,7.7477,7.6051,7.4275,7.2361,7.109,7.0306,6.9633,0.0,0.0,0.0,0.0,0.0,5.0404,4.951,4.9048,5.0125,5.3972,5.7434,6.1473,6.6551,6.9398,7.1437,7.2668,6.9283,6.723,6.7477,6.8051,7.0497,7.5226,7.6612,7.7851,7.9184,7.9198,7.9058,7.8754,7.8754,7.8576,7.8272,7.8272,7.8272,7.8272,7.8272,7.809,7.7826,7.7826,7.7629,7.7237,7.6864,7.646,7.5946,7.4331,7.345,7.3046,7.2642,7.2753,7.2899,7.1725,7.1578,7.1762,7.0954,6.9889,6.8421,0.0,0.0,0.0,0.0,0.0,0.0,0.0,0.0,0.0,0.0,0.0,0.0,0.0,0.0,6.7802,6.8679,0.0,7.4524,7.7764,8.041,8.3126,8.6329,8.6863,8.6899,8.6947,8.7327,8.803,8.9251,8.9362,8.9384,8.9416,8.9784,9.0005,9.0005,9.0386,8.988,8.8215,8.9299,8.892,8.6937,8.81,8.8286,8.7436,8.7056,8.6013,8.441,8.4,8.3143,8.1951,8.1131,8.0688,8.0516,7.9241,7.8688,7.858,7.8165,7.6624,7.4499,7.3157,7.2487,7.1988,0.0,0.0,0.0,0.0,0.0,5.0173,4.8586,4.8817,4.9625,5.101,5.4318,5.805,6.2115,6.3474,6.4397,6.5089,6.4474,6.5513,6.8975,7.2206,7.5595,7.9187,7.9971,8.0162,7.9784,7.967,7.9567,7.9645,7.9456,7.9313,7.9198,7.9198,7.9198,7.9198,7.9198,7.8914,7.8484,7.8484,7.8173,7.768,7.768,7.768,7.7533,7.6204,7.5588,7.5395,7.5395,7.4771,7.3964,7.4294,7.3744,7.301,7.334,7.323,7.2202,6.8348,6.8348,0.0,0.0,0.0,0.0,0.0,0.0,0.0,0.0,6.6716,6.7492,6.8934,7.0412,7.1916,7.3586,7.5637,7.8126,8.1423,8.3781,8.6203,8.92,9.0221,9.0287,8.9329,8.8978,8.9377,9.0804,9.0954,9.0789,9.0338,9.0898,9.1301,9.1301,9.2486,9.2306,9.0281,9.1903,9.1563,8.8973,8.9928,9.0053,8.931,8.8544,8.7676,8.6782,8.5662,8.4907,8.4354,8.2647,8.1786,8.1536,8.0157,7.9556,7.9637,8.0105,7.9208,7.7438,7.5797,7.4897,7.4336,0.0,0.0,0.0,0.0,0.0,0.0,4.9394,4.8663,4.9356,5.251,5.401,5.6088,5.955,6.1396,6.1216,5.8369,6.3358,6.6859,6.7359,7.2629,7.7269,8.0722,8.0953,8.1305,8.1947,8.1255,8.0991,8.1151,8.0369,7.9744,7.9198,7.9198,7.9198,7.9198,7.9198,7.9152,7.9105,7.9105,7.9058,7.8986,7.8986,7.8986,7.8948,7.8798,7.8,7.7017,7.7017,7.6093,7.4992,7.6423,7.5879,7.4882,7.6283,7.5769,7.4001,7.066,6.8862,6.688,6.1887,6.0544,6.1763,6.6723,6.731,6.8063,0.0,7.3829,7.3662,7.4529,7.6044,7.7689,7.9358,8.1042,8.3217,8.6409,8.7867,8.9225,9.0913,9.1331,9.1912,9.3112,9.2039,9.1531,9.2446,9.2521,9.2833,9.354,9.3662,9.3699,9.3699,9.3897,9.384,9.3577,9.3056,9.2631,9.2264,9.1035,9.0291,9.0152,8.9348,8.8518,8.7751,8.8291,8.7348,8.5172,8.3319,8.2084,8.142,8.1047,8.0871,8.0871,8.0959,8.0844,8.0455,7.8941,7.7123,7.5356,0.0,0.0,0.0,0.0,0.0,0.0,0.0,4.8317,4.8625,5.0048,5.0125,5.1548,5.5395,5.6049,5.4818,5.1433,5.778,6.3012,6.5474,7.2129,7.7515,8.0939,8.1093,8.1246,8.1593,8.1285,8.1151,8.1235,8.0852,8.0573,8.0296,8.0296,8.0296,8.0296,8.0296,8.0086,7.9706,7.9706,7.9513,7.9198,7.9198,7.8896,7.8421,7.8421,7.7201,7.5403,7.5123,7.4071,0.0,7.3046,7.2973,7.312,7.4698,7.4111,7.2459,7.0624,6.8935,6.7206,6.4979,6.5919,6.791,6.9397,7.1207,7.3284,7.5761,7.6419,7.691,7.8179,8.0071,8.1841,8.3058,8.4528,8.6469,8.9286,9.0508,9.1671,9.3273,9.399,9.4386,9.45,9.3531,9.277,9.2703,9.3604,9.3757,9.2668,9.3536,9.4102,9.4102,9.4502,9.4743,9.4743,9.4822,9.4583,9.4064,9.3399,9.2809,9.2291,9.1451,9.0648,8.9808,8.9634,8.845,8.6467,8.4709,8.3459,8.2612,8.1529,8.1093,8.1093,8.1093,8.1093,8.0962,7.9824,7.8832,7.7946,0.0,0.0,0.0,0.0,0.0,0.0,0.0,0.0,0.0,0.0,4.7471,4.8394,5.1471,5.1231,4.9885,4.7423,5.3356,5.9242,6.3935,7.0975,7.6669,8.0554,8.0977,8.1208,8.1439,8.1439,8.1554,8.1785,8.1785,8.1785,8.1785,8.1554,8.1439,8.14,8.1208,8.0838,8.037,8.037,8.0125,7.9723,7.9723,7.9191,7.8411,7.8145,7.6087,7.33,7.2993,7.1678,6.9932,6.9315,6.9499,7.0228,7.1347,7.1236,7.0449,6.9193,6.7665,6.6518,6.6963,6.9444,7.1991,7.2467,7.5127,7.781,7.8534,7.935,8.0376,8.1782,8.3557,8.5188,8.6298,8.7576,8.9133,9.121,9.2479,9.3595,9.4826,9.5518,9.5557,9.4441,9.3518,9.2526,9.1288,9.337,9.4265,9.2934,9.3997,9.4718,9.4718,9.5212,9.5511,9.5511,9.602,9.5865,9.5018,9.4749,9.421,9.3364,9.2518,9.1825,9.1171,9.0056,8.8786,8.7286,8.5363,8.417,8.3478,8.1785,8.1093,8.1093,8.1093,8.1093,8.1016,8.04,8.0015,7.9708,0.0,0.0,0.0,0.0,0.0,0.0,0.0,0.0,0.0,0.0,4.7586,4.8125,4.824,4.824,4.8163,4.8086,5.2087,5.7088,6.2962,6.8975,7.4553,7.9631,8.0669,8.1477,8.2247,8.2247,8.267,8.3516,8.3516,8.3516,8.3516,8.267,8.2247,8.2247,8.1439,8.1093,8.1077,8.1077,8.1061,8.1061,8.1061,8.0507,7.9661,7.8792,7.5529,7.1403,7.1597,6.9595,6.6808,6.665,6.6708,6.6845,6.6725,6.7873,6.8704,6.6261,6.4443,6.3785,6.6142,6.7936,7.0467,7.6173,7.8633,8.0369,8.283,8.4061,8.4945,8.5753,8.6637,8.7808,8.9462,9.0462,9.1402,9.2326,9.3826,9.4941,9.498,9.5018,9.4441,9.2749,9.1825,9.0325,0.0,9.1308,9.4405,9.604,9.6193,9.6232,9.6232,9.6251,9.6269,9.6269,9.6269,9.5865,9.5018,9.4172,9.3326,9.2518,9.1633,9.1248,9.1133,8.9479,8.8248,8.7248,8.4709,8.3632,8.3478,8.1785,8.1093,8.1093,8.1093,8.1093,8.1093,8.1054,8.0516,7.9823,0.0,0.0,0.0,0.0,0.0,0.0,0.0,0.0,0.0,0.0,0.0,0.0,0.0,0.0,0.0,0.0,4.9459,5.3011,5.7176,6.4089,6.9783,7.3707,7.7977,8.0362,8.0631,8.1208,8.1631,8.1939,8.1939,8.1939,8.1939,8.1631,8.1516,8.1477,8.1208,8.1093,8.1093,8.1093,8.1093,8.1054,8.0477,7.9708,7.8669,7.613,7.2775,6.9006,0.0,6.4153,6.2504,6.1921,6.2128,6.2767,6.38,6.3782,6.3031,6.1092,6.3192,6.6163,6.6425,7.1254,7.6654,7.865,8.1574,8.4362,8.5786,8.6363,8.6786,8.7632,8.6709,8.5901,8.6478,8.7248,8.8286,8.9748,9.1864,9.3941,9.5634,9.4864,9.3941,9.3364,9.2556,0.0,0.0,0.0,0.0,9.2941,9.5018,9.6288,9.6288,9.6288,9.6288,9.6288,9.6288,9.6172,9.5865,9.5557,9.5288,9.5018,9.3557,9.1979,9.0325,8.9748,8.8402,8.6478,8.5055,8.3824,8.2631,8.1554,8.1093,8.1093,8.1093,8.1093,8.1093,8.1093,8.09,8.0592,0.0,0.0,0.0,0.0,0.0,0.0,0.0,0.0,0.0,0.0,0.0,0.0,0.0,0.0,0.0,0.0,0.0,5.0097,5.4336,5.9486,6.4303,6.8579,7.3046,7.5285,7.4964,7.7035,7.7936,7.7615,7.9469,8.037,8.037,8.0611,8.0916,8.1172,8.0461,8.0516,8.1054,8.0439,8.0169,8.0054,7.8554,7.7092,7.5399,7.2052,6.8859,0.0,6.2358,6.0365,5.9109,5.8273,5.8767,5.983,6.0557,6.0725,6.0583,6.0456,6.4199,6.864,6.9965,7.5403,8.0977,8.2208,8.5016,8.7517,8.7786,8.8325,8.8748,8.8709,8.7132,8.5593,8.5016,8.5324,8.6055,8.7171,8.921,9.1672,9.4557,9.371,9.2903,9.321,9.2556,9.2133,0.0,0.0,0.0,9.2095,9.4134,9.5365,9.5365,9.5365,9.5672,9.6288,9.6288,9.6288,9.6288,9.598,9.5518,9.4903,9.348,9.1633,8.9479,8.9479,8.7748,8.4747,8.4516,8.3285,8.14,8.117,8.1093,8.1093,8.1093,8.1093,8.1093,8.1093,8.1093,8.1016,0.0,0.0,0.0,0.0,0.0,0.0,0.0,0.0,0.0,0.0,0.0,0.0,0.0,0.0,0.0,0.0,0.0,0.0,5.4119,5.5513,5.8642,6.4294,6.6353,6.7006,6.626,7.0285,7.2002,7.1178,7.6116,7.8543,7.8573,7.9231,7.9962,8.0674,7.8819,7.8915,8.0323,7.8707,7.8015,7.7746,7.5361,7.2899,7.0321,6.7013,6.4243,6.187,6.0127,5.8434,5.6945,5.6088,5.7049,5.8434,5.7703,5.9165,6.1666,6.4089,6.7321,7.1129,7.5976,7.99,8.3401,8.6671,8.8748,8.9787,8.8979,8.9979,9.0594,8.8902,8.7671,8.6363,8.4747,8.4439,8.4516,8.4786,8.6324,8.8671,9.2133,9.1902,9.1672,9.2479,9.1902,0.0,0.0,0.0,0.0,9.3633,0.0,9.3826,9.3826,9.3826,9.4595,9.6249,9.6288,9.6288,9.6288,9.548,9.421,9.2556,9.171,9.0402,8.8709,8.8709,8.6363,8.2401,8.3247,8.217,7.9939,8.0746,8.1093,8.1093,8.1093,8.1093,8.1093,8.1093,8.1093,8.1093,0.0,0.0,0.0,0.0,0.0,0.0,0.0,0.0,0.0,0.0,0.0,0.0,0.0,0.0,0.0,0.0,0.0,0.0,5.0014,5.3864,5.6763,5.8311,6.3019,6.553,6.5336,6.7045,6.814,6.849,6.9826,7.0806,7.1428,7.1611,7.1736,7.1855,7.1352,7.1325,7.1668,7.186,7.1552,7.0937,7.0283,6.9244,6.7782,6.5013,6.3205,6.187,6.0127,5.8858,5.7934,5.7703,5.9588,6.2204,6.3281,6.4936,6.659,6.7244,7.1206,7.563,7.6938,8.2093,8.7286,8.8132,8.9633,9.0825,9.0594,8.994,8.8863,8.7132,8.3093,7.9554,7.8477,7.8284,7.9515,8.3324,8.644,8.9748,9.3787,9.4172,9.3864,9.3441,9.4326,9.4672,9.3787,9.4672,0.0,0.0,9.4903,9.5634,9.5634,9.5634,9.5826,9.6288,9.6288,9.6288,9.6288,9.6095,9.5095,9.3403,9.3172,9.1518,8.8709,8.8709,8.6709,8.3285,8.3478,8.2516,8.0785,8.1016,8.1093,8.1093,8.1093,8.1093,8.1093,8.1093,8.1093,8.1093,0.0,0.0,0.0,0.0,0.0,0.0,0.0,0.0,0.0,0.0,0.0,0.0,0.0,0.0,0.0,0.0,0.0,0.0,0.0,5.1899,5.3663,5.4018,5.7623,5.9404,5.9053,6.1006,6.2453,6.3271,6.4801,6.617,6.7417,6.7651,6.7876,6.8157,6.7624,6.7767,6.8385,6.8129,6.7744,0.0,0.0,6.5089,6.4012,6.1089,6.0396,6.0742,5.9011,5.9319,6.0742,6.2243,6.3743,6.5397,6.7859,6.9821,7.1552,7.3437,7.6592,7.99,8.1785,8.5978,8.9902,9.0248,9.1325,9.1825,8.994,8.8786,8.7094,8.3516,7.9862,7.6823,7.5207,7.5822,7.7746,8.1362,8.4786,8.8517,9.2749,9.3672,9.4134,9.4749,9.6019,0.0,9.6134,9.6557,9.6288,9.4941,9.5057,9.5172,9.5172,9.5172,9.5518,9.6288,9.6288,9.6288,9.6288,9.5903,9.5057,9.371,9.3326,9.1787,8.921,8.8863,8.6632,8.3054,0.0,8.2208,8.0015,8.0785,8.1093,8.1093,8.1093,8.1093,8.1093,8.1093,8.1093,8.1093,0.0,0.0,0.0,0.0,0.0,0.0,0.0,0.0,0.0,0.0,5.1069,0.0,0.0,0.0,0.0,0.0,0.0,0.0,0.0,0.0,5.0621,5.1324,5.2108,5.2148,5.1405,5.4336,5.6328,5.7226,6.0312,6.2617,6.4217,6.4813,6.542,6.5984,6.5002,6.5358,6.6628,6.5282,6.4628,6.4359,6.2397,6.1062,6.0012,0.0,5.7588,5.9319,5.7984,5.9935,6.3705,6.7475,6.8436,6.8706,7.2129,7.4514,7.6746,8.0362,8.2324,8.4093,8.7709,9.0094,9.171,9.2479,9.3018,9.2364,8.844,8.7055,8.4978,7.9323,7.7169,7.563,7.3553,7.5053,7.7438,7.99,8.2978,8.6555,9.0941,9.2479,9.3941,9.6057,9.7019,9.7519,9.7519,9.7288,9.6942,9.6326,9.4903,9.4057,9.4057,9.4057,9.4749,9.6249,9.6288,9.6288,9.6288,9.5557,9.4672,9.3672,9.2979,9.1633,8.971,8.9017,8.6401,8.2516,8.3247,8.1785,7.8938,8.0477,8.1093,8.1093,8.1093,8.1093,8.1093,8.1093,8.1093,8.1093,0.0,0.0,0.0,0.0,0.0,0.0,0.0,0.0,0.0,0.0,5.0972,5.1089,0.0,0.0,0.0,0.0,0.0,0.0,0.0,0.0,0.0,5.1152,5.1344,5.1375,5.1256,5.1949,5.2734,5.3594,5.4922,5.6011,5.6955,5.7746,5.8067,5.7916,5.771,5.7719,5.7934,5.8357,5.8138,5.755,5.855,5.8434,5.7753,5.855,0.0,0.0,5.9973,6.105,6.3128,6.8629,7.1783,7.3976,7.74,8.0631,8.3131,8.317,8.5747,8.8594,8.8671,9.0941,9.3287,9.3441,9.2556,9.1095,8.894,8.5209,8.1093,7.7246,7.3553,7.1091,7.1321,7.2283,7.5245,8.1862,8.4593,8.7632,9.2556,9.5211,9.6557,9.6326,9.7019,9.7519,9.7519,9.6249,0.0,0.0,9.6019,9.5865,9.5865,9.5865,9.598,9.6288,9.6288,9.6288,9.6288,9.6134,9.5288,9.371,9.3557,9.1864,8.8902,8.8748,8.6748,8.3362,8.3516,0.0,8.0669,8.0977,8.1093,8.1093,8.1093,8.1093,8.1093,8.1093,8.1093,8.1093,0.0,0.0,0.0,0.0,0.0,0.0,0.0,5.0712,5.0856,5.1279,5.1443,5.137,5.0952,5.0874,5.0874,0.0,0.0,0.0,0.0,0.0,0.0,5.1089,5.1148,5.1136,5.1136,5.1219,5.2094,5.385,0.0,5.4651,5.6281,5.6173,5.6058,5.5915,5.5834,5.575,5.5742,5.6137,5.6329,5.6445,5.728,5.7896,5.8319,5.8742,0.0,0.0,6.1627,6.2935,6.4705,6.8859,7.2245,7.5515,8.0285,8.3824,8.6209,8.6247,8.8325,9.0594,9.0671,9.2479,9.4364,9.4364,9.2787,9.0171,8.6247,8.2131,7.763,7.2437,7.0129,6.9013,6.8936,7.0706,7.3976,7.9438,8.2439,8.5901,9.1018,9.3903,9.5865,9.6826,9.7673,9.8019,9.7557,9.6403,9.5672,9.5634,9.5634,9.5826,9.6288,9.6288,9.6288,9.6288,9.6288,9.6288,9.6288,9.5865,9.498,9.3672,9.3287,9.1979,8.9979,8.9094,8.7555,8.5517,8.467,8.3054,8.1131,8.1554,8.1208,8.0477,8.0939,8.1093,8.1093,8.1093,8.1093,8.1093,0.0,0.0,0.0,0.0,0.0,0.0,0.0,5.0712,5.0971,5.1769,5.1885,5.1731,5.1279,5.1241,5.1164,0.0,0.0,0.0,0.0,0.0,0.0,0.0,0.0,0.0,5.1047,0.0,0.0,5.464,5.4474,0.0,0.0,0.0,0.0,0.0,5.6038,5.5857,5.5703,5.5703,5.6214,0.0,0.0,5.8165,5.9435,0.0,0.0,0.0,0.0,6.3743,6.5474,6.8013,7.1014,7.4514,7.9554,8.367,8.6748,8.7632,8.944,9.1441,9.2479,9.398,9.5211,9.5057,9.3095,8.9633,8.367,7.9554,7.5245,6.8936,6.7782,6.7859,6.7898,6.9821,7.2745,7.6861,7.9631,8.3247,8.9094,9.1941,9.4518,9.7442,9.8365,0.0,9.7827,9.6865,0.0,9.5326,9.5288,9.5557,9.6249,9.6288,9.6288,9.6288,9.6288,9.6288,9.6288,9.5634,9.4749,9.3672,9.3056,9.2095,9.0902,8.9556,8.8286,8.7055,8.5747,8.3708,8.14,8.2054,8.1439,8.0169,8.0823,8.1093,8.1093,8.1093,8.1093,8.1093,0.0,0.0,0.0,0.0,0.0,0.0,0.0,5.0712,5.0971,5.1769,5.1885,5.2154,5.2895,5.2972,5.2664,0.0,0.0,0.0,0.0,0.0,0.0,0.0,0.0,0.0,0.0,0.0,0.0,5.3724,5.5969,0.0,0.0,0.0,0.0,0.0,0.0,5.6445,5.5703,5.5703,0.0,0.0,0.0,0.0,0.0,0.0,0.0,0.0,0.0,6.1627,6.2832,6.5397,6.7975,7.0514,7.2591,7.8169,8.4132,8.4978,8.8055,9.1556,9.3133,9.4864,9.598,9.5211,9.3095,8.9633,8.367,7.9092,7.4861,7.0398,6.7667,6.7051,7.0014,6.9552,7.086,7.7323,7.8054,8.0592,8.8748,9.1479,9.4134,9.8211,9.875,0.0,9.8673,9.725,9.6288,9.6172,9.6172,9.6211,9.6288,9.6288,9.6288,9.6288,9.6288,9.6288,9.6288,9.6211,9.5365,9.371,9.3633,9.2326,9.0017,8.9863,8.8479,8.6209,8.6055,0.0,0.0,8.2285,8.1785,8.0977,8.1054,8.1093,8.1093,8.1093,8.1093,8.1093,0.0,0.0,0.0,0.0,0.0,0.0,5.0712,5.0712,5.1164,5.251,5.2692,5.3203,5.4549,5.4703,5.4164,5.2818,0.0,0.0,0.0,0.0,0.0,0.0,0.0,0.0,0.0,0.0,5.3094,5.4138,5.5647,0.0,0.0,0.0,0.0,0.0,0.0,5.5549,5.5703,5.5703,0.0,0.0,0.0,0.0,0.0,0.0,0.0,0.0,0.0,0.0,6.3666,6.4166,6.5705,6.7436,6.759,7.1475,7.6746,8.0669,8.5555,9.0056,9.1748,9.421,9.6095,9.5211,9.2326,8.8286,8.2824,7.8284,7.386,6.909,6.7321,6.7013,6.8359,6.8052,6.9167,7.3937,7.4861,7.7438,8.4362,8.6824,9.0136,9.6027,9.6754,9.7194,9.8388,0.0,9.6514,9.5959,9.5442,9.5597,9.6657,9.6566,9.6536,9.6721,9.6217,9.5946,9.5946,9.4938,9.4085,9.3387,9.2857,9.2082,9.1074,9.0582,8.9496,8.8022,8.7518,0.0,0.0,8.3796,8.3137,8.1558,8.2605,8.2721,8.2245,8.2245,8.1896,8.1458,0.0,0.0,0.0,0.0,0.0,5.0712,5.0712,5.0712,5.1202,5.2626,5.3049,5.3857,5.5511,5.5703,5.5318,5.4395,5.3549,0.0,0.0,0.0,0.0,0.0,0.0,0.0,0.0,0.0,5.3741,5.5241,5.628,5.7588,0.0,0.0,5.7484,5.6945,0.0,0.0,0.0,0.0,0.0,0.0,0.0,0.0,0.0,0.0,0.0,0.0,0.0,0.0,0.0,0.0,0.0,6.4974,6.4128,6.659,7.0898,7.663,8.2516,8.7709,9.0171,9.3133,9.5441,9.5095,9.1633,8.7055,8.2208,7.7784,7.3399,6.8821,6.7667,6.7628,6.8129,6.7821,6.8513,7.1668,7.2937,7.5399,8.0785,8.3285,8.6724,9.2702,9.3668,9.4679,9.6854,9.7023,9.6749,9.6117,9.5524,9.5746,9.7029,9.6954,9.6787,9.6614,9.603,9.5602,9.532,9.4153,9.3453,9.319,9.2567,9.1992,9.1486,9.0864,8.9969,8.8918,8.8334,0.0,0.0,8.4645,8.375,8.1812,8.3058,8.3174,8.2622,8.2622,8.2233,8.1688,0.0,0.0,0.0,0.0,0.0,0.0,5.0712,5.0712,5.0971,5.1808,5.2654,5.3857,5.5511,5.5703,5.6049,5.6907,5.6165,0.0,0.0,0.0,0.0,0.0,0.0,0.0,0.0,0.0,5.6088,5.6983,5.8627,5.9896,6.0742,5.9896,5.8588,5.6945,0.0,0.0,0.0,0.0,0.0,0.0,0.0,0.0,6.0781,0.0,0.0,0.0,0.0,0.0,0.0,0.0,0.0,0.0,0.0,6.4448,6.8129,7.3245,7.8977,8.4555,8.8786,9.1787,9.3941,9.4788,9.1171,8.6286,8.2054,7.7784,7.3745,7.036,6.9013,6.8898,7.0552,6.9513,6.9206,7.1783,7.2937,7.4976,7.9246,8.2016,8.4917,8.838,8.9639,9.1281,9.3891,9.5889,9.7012,9.6973,9.6973,0.0,9.7363,9.7407,9.6869,9.5767,9.5719,9.5281,9.4425,9.4387,9.3997,9.319,9.319,9.2295,9.0621,9.0583,8.9688,8.8092,0.0,0.0,0.0,8.4209,8.3237,8.1688,8.1727,8.1727,8.1727,8.1727,8.1727,8.1688,0.0,0.0,0.0,0.0,0.0,0.0,0.0,5.0712,5.0971,5.1769,5.2654,5.3626,5.4741,5.5357,5.5818,5.6088,5.5357,0.0,0.0,0.0,0.0,0.0,0.0,0.0,0.0,5.5164,5.6126,5.6983,5.8665,5.9627,5.9896,5.9088,5.8088,5.6907,5.4895,5.4049,0.0,0.0,0.0,0.0,0.0,5.9435,5.9973,0.0,0.0,0.0,0.0,0.0,0.0,0.0,0.0,0.0,0.0,0.0,0.0,6.8513,7.413,7.9708,8.1593,8.4824,8.7478,8.6555,8.4247,8.14,7.8323,7.5668,7.3091,7.0283,6.9475,6.9436,6.9975,6.9667,7.0321,7.3399,7.413,7.5639,7.9482,8.2252,8.5467,8.9744,9.3794,9.6523,9.7381,9.6432,9.625,9.7385,9.6406,9.63,9.7529,9.706,9.6624,9.6253,9.5664,9.4923,9.4063,9.3478,9.3048,9.2775,9.2775,9.1877,9.0198,9.0823,8.9846,0.0,0.0,0.0,8.4734,8.532,8.4539,8.3055,8.3641,8.3523,8.3016,8.3016,8.2625,8.2118,0.0,0.0,0.0,0.0,0.0,0.0,0.0,5.0712,5.0894,5.1395,5.2202,5.3049,5.3895,5.4741,5.5511,5.6137,5.5742,0.0,0.0,0.0,0.0,0.0,0.0,0.0,5.4934,5.578,5.6445,5.6983,5.9011,5.9665,5.905,5.8858,5.7934,5.6445,5.4511,5.3818,0.0,0.0,0.0,0.0,5.8165,5.8781,5.955,0.0,0.0,0.0,0.0,0.0,0.0,0.0,0.0,0.0,0.0,0.0,0.0,0.0,7.009,7.4976,7.74,8.0708,8.3362,8.2901,8.0823,7.8438,7.6861,7.4668,7.2476,7.0552,7.0748,7.1041,7.0399,7.0854,7.1783,7.3269,7.4595,7.6211,7.8447,8.1563,8.5118,8.909,9.3645,9.6636,9.7031,9.6523,9.6562,9.7617,9.6719,9.6484,9.7226,9.6758,9.6211,9.5547,9.5,9.4297,9.3437,9.2851,9.2422,9.2109,9.2109,9.1211,8.9531,9.0078,8.9101,0.0,0.0,8.6484,0.0,8.5,8.4375,8.3164,8.3711,8.3594,8.3125,8.3125,8.2773,8.2304,0.0,0.0,0.0,0.0,0.0,0.0,0.0,5.0712,5.0712,5.0712,5.1395,5.2192,5.301,5.3933,5.5126,5.6676,0.0,0.0,0.0,0.0,0.0,0.0,0.0,0.0,5.5703,5.656,5.7022,5.7099,5.9511,5.9896,5.8319,5.905,5.8088,5.5665,5.4857,5.401,0.0,0.0,0.0,0.0,5.778,5.8588,0.0,0.0,0.0,0.0,0.0,0.0,0.0,0.0,0.0,0.0,0.0,0.0,0.0,0.0,0.0,0.0,0.0,7.853,8.0823,8.2324,7.9777,7.6852,7.6837,7.4403,0.0,7.126,7.255,7.3335,7.1716,7.2927,7.3639,7.1952,7.452,7.6706,7.6773,8.0688,8.45,8.7276,9.0605,9.3015,9.3828,9.6211,9.7695,9.7695,9.7656,9.7304,9.6523,9.6367,9.5586,9.3945,9.3828,9.3437,9.2617,9.2617,9.2148,9.1211,9.1289,9.0312,8.8515,8.8633,8.7734,0.0,8.6172,8.5195,8.3594,8.3594,8.3086,8.2304,8.2304,8.2304,8.2304,8.2304,8.2304,8.2304,0.0,0.0,0.0,0.0,0.0,0.0,0.0,0.0,0.0,0.0,5.1395,5.1962,5.2192,5.3587,5.4664,0.0,0.0,0.0,0.0,0.0,0.0,0.0,0.0,0.0,5.5703,5.656,5.7319,5.7973,5.9204,5.9281,5.8319,5.8511,5.755,5.5665,5.4857,5.401,0.0,0.0,0.0,0.0,5.6242,5.6819,0.0,0.0,0.0,0.0,6.0281,6.0781,0.0,0.0,0.0,0.0,0.0,0.0,0.0,0.0,6.709,6.8989,7.0335,0.0,7.4245,7.3937,7.3254,7.2604,0.0,7.2015,7.1947,7.2932,7.3577,7.3846,7.3418,7.4785,7.5436,7.3688,7.5765,7.7845,7.8618,8.4291,8.9089,9.1089,9.4332,9.5779,9.4062,9.6211,9.7695,9.7695,9.7148,9.6719,9.6523,9.5234,9.4336,9.3906,9.3242,9.2812,9.2617,9.2617,9.1836,9.0312,9.0976,8.9726,8.6836,8.8125,8.7422,8.5234,8.5898,8.5195,8.3594,8.3594,8.3086,8.2304,8.2304,8.2304,8.2304,8.2304,8.2304,8.2304,0.0,0.0,0.0,0.0,0.0,0.0,0.0,0.0,0.0,0.0,0.0,5.1356,5.1356,5.251,0.0,0.0,0.0,0.0,0.0,0.0,0.0,0.0,0.0,5.4703,5.5126,5.5972,5.6434,5.6549,5.855,5.8665,5.7126,5.7934,5.7357,5.5665,5.5241,5.478,0.0,0.0,0.0,5.6252,5.5857,0.0,0.0,0.0,0.0,0.0,6.0204,6.0781,0.0,6.0781,6.1358,6.2243,0.0,0.0,0.0,0.0,6.7255,6.8665,6.8765,7.0243,7.1822,7.2214,7.1843,7.1511,7.2161,7.1905,7.1962,7.3579,7.4028,7.4255,7.465,7.5244,7.5506,7.4952,7.64,7.8604,8.1495,8.523,8.875,9.164,9.3633,9.4844,9.5078,9.6328,9.7148,9.7148,9.6367,9.5742,9.5312,9.4414,9.3711,9.332,9.2851,9.2617,9.2617,9.2617,9.1719,9.0,9.0898,8.9726,8.6836,8.8125,8.7539,8.5469,8.5156,8.4453,8.3554,8.2734,8.2344,8.2304,8.2304,8.2304,8.2304,8.2304,8.2304,8.2304,0.0,0.0,0.0,0.0,0.0,0.0,0.0,0.0,0.0,0.0,0.0,0.0,0.0,0.0,0.0,0.0,0.0,0.0,0.0,0.0,0.0,0.0,5.4857,5.4511,5.4511,5.5164,5.5318,5.4895,5.7857,5.828,5.6319,5.778,5.755,5.5895,5.5895,5.5818,0.0,0.0,0.0,5.6907,5.6049,0.0,0.0,0.0,0.0,0.0,0.0,0.0,0.0,6.0839,6.1389,6.2286,6.3102,0.0,0.0,0.0,0.0,0.0,6.8954,7.0285,7.2043,7.3603,7.2757,7.1946,7.3607,7.2737,7.21,7.4035,7.4615,7.4954,7.5696,7.5811,7.5742,7.5703,7.7109,7.9922,8.4961,8.6015,8.7578,9.1094,9.1953,9.3281,9.5859,9.6445,9.6679,9.6679,9.5742,9.4883,9.414,9.3867,9.3359,9.2617,9.2461,9.2383,9.2383,9.2539,9.164,8.9804,9.0703,8.9765,8.7344,8.8164,8.7656,8.6133,0.0,0.0,8.3476,8.1992,8.1758,8.2304,8.2304,8.2304,8.2304,8.2304,8.2304,8.2304,0.0,0.0,0.0,0.0,0.0,0.0,0.0,0.0,0.0,0.0,0.0,0.0,0.0,0.0,0.0,0.0,0.0,0.0,0.0,0.0,0.0,5.4703,5.4549,5.4511,5.4511,5.4626,5.5318,5.6637,5.7857,5.8627,5.8934,5.9204,5.8434,5.6791,5.6791,5.6406,5.5703,5.5703,0.0,5.6907,5.6049,0.0,0.0,0.0,0.0,0.0,0.0,0.0,0.0,6.0916,6.1562,6.2441,6.341,0.0,0.0,0.0,0.0,0.0,6.9112,7.1425,7.3851,7.3983,7.2841,7.2071,7.3633,7.2924,7.2798,7.583,7.6616,7.6795,7.6912,7.9257,7.9726,7.5508,7.9219,8.414,8.8594,9.1133,9.25,9.2422,9.4961,9.6094,9.4453,9.625,9.7539,9.7539,9.6094,9.5156,9.5,9.3594,9.2734,9.2617,9.1875,9.1484,9.1484,9.2226,9.1367,8.8906,8.9765,8.8867,8.6445,8.7304,8.7148,8.6172,0.0,8.4961,8.3594,8.332,8.2851,8.2304,8.2304,8.2304,8.2304,8.2304,8.2304,8.2304,0.0,0.0,0.0,0.0,0.0,0.0,0.0,0.0,0.0,0.0,0.0,0.0,0.0,0.0,0.0,0.0,0.0,0.0,0.0,0.0,5.6022,5.5203,5.5164,5.4703,5.3818,5.4241,5.5318,5.6983,5.8319,5.9396,6.0165,5.9281,5.8204,5.6983,5.6522,5.6088,5.5703,5.5703,5.6214,5.6983,0.0,0.0,0.0,0.0,0.0,0.0,0.0,0.0,0.0,0.0,6.1934,6.3199,6.3638,0.0,0.0,0.0,0.0,0.0,6.8732,7.0806,7.3496,7.5266,7.4853,7.4512,7.6594,7.4792,7.3788,7.7607,7.6638,7.5781,7.8125,7.9492,8.039,8.0781,8.4336,8.7734,8.9726,9.0625,9.1484,9.2461,9.3984,9.5039,9.5273,9.6367,9.7031,9.7031,9.5469,9.4492,9.4492,9.3281,9.2617,9.2617,9.2226,9.1992,9.1992,9.1914,9.082,8.8711,8.957,8.8672,8.6211,8.7109,8.6758,8.5469,0.0,8.3906,8.3515,8.2578,8.2226,8.2304,8.2304,8.2304,8.2304,8.2304,8.2304,8.2304,0.0,0.0,0.0,0.0,0.0,0.0,0.0,0.0,0.0,0.0,0.0,0.0,0.0,0.0,0.0,0.0,0.0,0.0,0.0,5.5934,5.6137,5.5434,5.5434,5.4895,5.3818,5.4626,5.5895,5.7599,5.9281,6.0435,6.1089,5.9781,5.8511,5.728,5.6588,5.6088,5.5742,5.6126,5.6703,5.7291,0.0,0.0,0.0,0.0,0.0,0.0,0.0,0.0,0.0,0.0,0.0,0.0,0.0,0.0,0.0,6.6563,6.7841,6.8984,6.8359,7.0195,7.2969,7.5625,7.5469,7.5703,7.9726,7.6992,7.5,7.9922,7.7969,7.6406,7.9687,7.9648,8.0703,8.5703,8.8633,9.0586,9.1406,9.1094,9.1562,9.3554,9.3789,9.457,9.6601,9.6797,9.6719,9.6523,9.5078,9.4101,9.3906,9.3086,9.2617,9.2617,9.2187,9.1992,9.1992,9.0937,8.9922,8.9023,8.9297,8.8281,8.6211,8.6679,8.6172,8.4844,8.3476,8.3164,8.3515,8.2148,8.1875,8.2304,8.2304,8.2304,8.2304,8.2304,8.2304,8.2304,0.0,0.0,0.0,0.0,0.0,0.0,0.0,0.0,0.0,0.0,0.0,0.0,0.0,0.0,0.0,0.0,0.0,0.0,0.0,5.4203,5.4664,5.4587,5.4587,5.4895,5.5511,5.6368,5.7638,5.9319,6.105,6.1947,6.1985,6.187,6.0512,5.8204,5.8127,5.7203,5.5818,5.7434,5.8165,5.8204,5.8204,0.0,0.0,0.0,0.0,0.0,0.0,0.0,0.0,0.0,0.0,0.0,0.0,0.0,6.4765,6.6406,6.7539,6.8281,6.8203,7.0664,7.3281,7.3515,7.2305,7.3203,8.1445,7.875,7.6406,8.3125,8.3008,8.1758,8.207,8.1406,8.2265,8.6679,8.9531,9.2344,9.5586,9.6601,9.7109,9.7304,9.7344,9.7422,9.7617,9.7617,9.7304,9.6562,9.5625,9.4765,9.3945,9.3086,9.2617,9.2617,9.1015,9.0195,9.0195,8.8594,8.8476,8.9883,8.8398,8.7148,8.6172,8.5429,8.5039,8.4883,8.4765,8.4297,8.3594,8.3476,8.2969,8.2304,8.2304,8.2304,8.2304,8.2304,8.2304,8.2304,0.0,0.0,0.0,0.0,0.0,0.0,0.0,0.0,0.0,0.0,0.0,0.0,0.0,0.0,0.0,0.0,0.0,0.0,0.0,5.3703,5.4511,5.4511,5.4972,5.5626,5.6483,5.7357,5.8896,6.1127,6.282,6.3397,6.282,6.1204,5.9704,5.8242,5.7165,5.6626,5.656,5.7203,5.8088,5.905,5.905,5.9815,0.0,0.0,0.0,0.0,0.0,0.0,0.0,0.0,6.3017,6.3509,6.5117,6.5742,6.6055,6.6719,6.7539,6.8086,6.7539,6.9492,7.2187,7.4375,7.2773,7.2812,8.0937,8.0195,7.914,8.3906,8.4375,8.3906,8.3906,8.4531,8.5937,8.8633,9.1679,9.4375,9.625,9.7187,9.7695,9.7695,9.7265,9.6953,9.6953,9.6953,9.6601,9.5742,9.539,9.4804,9.3945,9.3086,9.2617,9.2617,9.1445,9.082,9.082,8.9101,8.8554,8.9179,8.75,8.625,8.5351,8.4492,8.3789,8.3281,8.3281,8.3086,8.2773,8.2773,8.2617,8.2304,8.2304,8.2304,8.2304,8.2304,8.2304,8.2304,0.0,0.0,0.0,0.0,0.0,0.0,0.0,0.0,0.0,0.0,0.0,0.0,0.0,0.0,0.0,0.0,0.0,0.0,5.1885,5.301,5.3933,5.4472,5.5011,5.5857,5.6983,5.8088,5.9781,6.2101,6.4051,6.4282,6.2897,6.1127,5.9588,5.828,5.7319,5.7088,5.7434,5.7984,5.8721,5.9616,5.9886,6.0432,0.0,0.0,0.0,0.0,0.0,0.0,0.0,0.0,6.3741,6.4492,6.5664,6.6211,6.6523,6.6836,6.7539,6.8086,6.7461,6.8789,7.1055,7.4297,7.3086,7.3203,8.1289,8.1562,8.1406,8.5976,8.6484,8.6015,8.5781,8.6484,8.7656,8.9336,9.2265,9.4765,9.5937,9.6562,9.6914,9.6914,9.6406,9.6094,9.6094,9.6094,9.5742,9.4844,9.4804,9.4414,9.3554,9.2929,9.2461,9.2187,9.1328,9.0742,9.0469,8.9023,8.8164,8.789,8.6484,8.5469,8.4844,8.3711,8.2851,8.2304,8.2304,8.2304,8.2304,8.2304,8.2304,8.2304,8.2304,8.2304,8.2304,8.2304,8.2304,8.2304,0.0,0.0,0.0,0.0,0.0,0.0,0.0,0.0,0.0,0.0,0.0,0.0,0.0,0.0,0.0,0.0,0.0,0.0,5.1846,5.1885,5.2654,5.4395,5.4511,5.528,5.6945,5.8627,6.0358,6.2101,6.4628,6.4551,6.2101,6.2062,6.0704,5.8357,5.9165,5.9088,5.8434,6.01,6.0419,5.9882,6.0696,6.1128,6.1289,0.0,0.0,0.0,0.0,0.0,0.0,0.0,6.4297,6.4609,6.6367,6.6328,6.5781,6.668,6.7539,6.8203,6.8203,6.8789,7.0039,7.2656,7.2656,7.4297,8.289,8.2851,8.2969,8.9883,8.9922,8.8437,8.7656,8.6836,8.6797,8.8437,9.0898,9.3203,9.4922,9.5195,9.5195,9.5195,9.5195,9.5195,9.5195,9.5195,9.4804,9.3945,9.3867,9.3515,9.2617,9.2578,9.2187,9.1328,9.0429,8.957,8.8711,8.789,8.707,8.6172,8.5312,8.4883,8.4844,8.3086,8.2304,8.2304,8.2304,8.2304,8.2304,8.2304,8.2304,8.2304,8.2304,8.2304,8.2304,8.2304,8.2304,8.2304,0.0,0.0,0.0,0.0,0.0,0.0,0.0,0.0,0.0,0.0,0.0,0.0,0.0,0.0,0.0,0.0,0.0,0.0,5.1885,5.1885,5.2385,5.3549,5.4164,5.5011,5.6049,5.8319,6.0627,6.2935,6.3128,6.2524,6.1166,5.9973,5.9011,5.8357,5.9781,6.0019,5.9466,6.1157,6.1488,6.0864,6.1097,6.1312,6.1424,0.0,0.0,0.0,0.0,0.0,0.0,0.0,0.0,0.0,6.6367,6.7148,6.7617,6.8476,6.8476,6.832,6.8906,6.9258,7.0078,7.2656,7.4492,7.6797,8.1172,8.25,8.4804,9.1719,9.0312,8.8125,8.9101,8.9062,8.8828,8.8711,9.0898,9.3008,9.414,9.4804,9.5195,9.5195,9.4648,9.4297,9.4297,9.4297,9.3672,9.2187,9.2656,9.2344,9.0859,9.0781,9.0664,9.039,8.9531,8.8945,8.8711,8.789,8.707,8.6172,8.5312,8.457,8.3945,8.2812,8.2304,8.2304,8.2304,8.2304,8.2304,8.2304,8.2304,8.2304,8.2304,8.2304,8.2304,8.2304,8.2304,8.2304,0.0,0.0,0.0,0.0,0.0,0.0,0.0,0.0,0.0,0.0,5.1779,5.2202,0.0,0.0,0.0,0.0,0.0,0.0,5.1885,5.1587,5.1972,5.3164,5.3703,5.4664,5.6175,5.805,5.9935,6.1781,6.2012,6.132,5.9819,5.9819,5.9463,5.8963,6.1008,6.1543,6.098,6.1982,6.2011,6.1412,6.1763,6.1751,6.1658,0.0,0.0,0.0,0.0,0.0,0.0,0.0,0.0,0.0,6.6055,6.7461,6.8672,6.8515,6.8828,6.9453,7.0625,7.0742,7.1523,7.582,7.7031,7.8125,8.1719,8.4414,8.7812,9.3711,9.2304,9.0234,9.0898,9.0742,9.0351,8.9804,9.1367,9.2773,9.332,9.3828,9.4179,9.4179,9.3711,9.3242,9.289,9.2851,9.2304,9.0898,9.1289,9.1094,9.0078,9.0,8.9844,8.9492,8.8984,8.8398,8.7695,8.7226,8.6367,8.5156,8.4648,8.3945,8.3086,8.2539,8.2304,8.2304,8.2304,8.2304,8.2304,8.2304,8.2304,8.2304,8.2304,8.2304,8.2304,8.2304,8.2304,8.2304,0.0,0.0,0.0,0.0,0.0,0.0,0.0,0.0,0.0,0.0,5.2587,5.3356,0.0,0.0,0.0,0.0,0.0,0.0,0.0,5.1202,5.151,5.3126,5.3433,5.4664,5.706,5.7973,5.8742,5.9396,6.105,6.0666,5.8473,6.0854,6.125,6.0024,6.2581,6.3325,6.2602,6.2713,6.2245,6.159,6.2374,6.2287,6.1875,6.3476,0.0,0.0,0.0,0.0,0.0,0.0,0.0,0.0,6.5586,6.7305,6.8984,6.7461,6.8789,7.1094,7.2812,7.2734,7.3672,8.0195,7.9805,7.918,8.4492,8.8008,9.1289,9.539,9.5,9.3672,9.2969,9.2109,9.1523,9.1445,9.2031,9.25,9.2578,9.2539,9.2461,9.2461,9.2461,9.2148,9.1289,9.1172,9.082,8.9961,8.9883,8.9804,8.9648,8.9726,8.9336,8.8398,8.8437,8.7695,8.6094,8.6094,8.5234,8.3594,8.3594,8.3125,8.2304,8.2304,8.2304,8.2304,8.2304,8.2304,8.2304,8.2304,8.2304,8.2304,8.2304,8.2304,8.2304,8.2304,8.2304,8.2304,0.0,0.0,0.0,0.0,0.0,0.0,0.0,0.0,0.0,0.0,0.0,0.0,0.0,0.0,0.0,0.0,0.0,0.0,0.0,5.1731,5.2125,5.3164,5.5126,5.6742,5.7973,5.8819,5.9011,5.855,5.9588,5.9781,5.9281,6.0616,6.1048,6.0838,6.3588,6.4048,6.2804,6.3417,6.2923,6.1677,6.1872,6.1835,6.1758,6.2109,6.2148,0.0,0.0,0.0,0.0,0.0,0.0,0.0,6.539,6.6445,6.7539,6.7812,6.9258,7.1094,7.2812,7.3164,7.3867,7.7422,8.0273,8.3945,9.0469,9.1484,9.1679,9.3984,9.414,9.4062,9.4531,9.3945,9.3125,9.2422,9.1914,9.1836,9.25,9.1992,9.1562,9.1562,9.1562,9.125,9.0351,9.0273,8.9922,8.9062,8.8984,8.8398,8.7109,8.7656,8.7304,8.5781,8.6367,8.625,8.5195,8.5195,8.4648,8.3594,8.3594,8.3125,8.2304,8.2304,8.2304,8.2304,8.2304,8.2304,8.2304,8.2304,8.2304,8.2304,8.2304,8.2304,8.2304,8.2304,8.2304,8.2304,0.0,0.0,0.0,0.0,0.0,0.0,0.0,0.0,0.0,0.0,0.0,0.0,0.0,0.0,0.0,0.0,0.0,0.0,0.0,0.0,5.2462,5.378,5.5857,5.7214,5.7665,5.8575,5.9031,5.9031,5.9502,5.9502,5.907,6.0879,6.1765,6.1968,6.4637,6.4957,6.3539,6.3966,6.3196,6.1758,6.2148,6.207,6.1797,6.2617,6.2695,6.2305,6.2265,0.0,0.0,0.0,0.0,0.0,0.0,0.0,6.6914,6.6953,6.8437,7.0547,7.2695,7.4219,7.6172,8.0469,8.4414,8.8125,9.1328,9.2304,9.2812,9.3711,9.4219,9.4414,9.4023,9.3906,9.3594,9.2734,9.2226,9.207,9.2539,9.1836,9.1289,9.1289,9.0937,9.0508,9.0039,8.9609,8.9179,8.8711,8.8359,8.7578,8.6289,8.664,8.6289,8.4922,8.5351,8.5156,8.4297,8.4297,8.3828,8.2969,8.2969,8.2734,8.2304,8.2304,8.2304,8.2304,8.2304,8.2304,8.2304,8.2304,8.2304,8.2304,8.2304,8.2304,8.2304,8.2304,8.2304,8.2304,0.0,0.0,0.0,0.0,0.0,0.0,0.0,0.0,0.0,0.0,0.0,0.0,0.0,0.0,0.0,0.0,0.0,0.0,0.0,0.0,0.0,5.4857,5.6252,5.7159,5.7482,5.8315,5.9171,6.0057,6.017,6.0071,5.9738,6.21,6.3306,6.3545,6.5697,6.5764,6.4297,6.3984,6.3008,6.1758,6.25,6.2344,6.1875,6.3281,6.3398,6.2851,6.3437,6.3359,6.3086,6.3672,0.0,0.0,0.0,0.0,6.6328,6.5781,6.7305,6.9765,7.2383,7.543,7.9219,8.4804,8.832,9.0429,9.0429,9.1875,9.332,9.3594,9.4492,9.4726,9.3125,9.3398,9.3594,9.2734,9.2344,9.2187,9.2344,9.1484,9.0859,9.0859,9.0078,8.9492,8.9375,8.8672,8.8281,8.8281,8.7656,8.6914,8.6015,8.5976,8.5508,8.4492,8.4609,8.4258,8.3398,8.3398,8.3008,8.2304,8.2304,8.2304,8.2304,8.2304,8.2304,8.2304,8.2304,8.2304,8.2304,8.2304,8.2304,8.2304,8.2304,8.2304,8.2304,8.2304,8.2304,8.2304,0.0,0.0,0.0,0.0,0.0,0.0,0.0,0.0,0.0,0.0,5.1395,5.1279,0.0,0.0,0.0,0.0,0.0,0.0,5.1885,0.0,0.0,5.6599,5.6868,5.7755,5.9404,5.9555,6.0127,6.1097,6.1244,6.2382,6.4482,6.5549,6.6067,6.6121,6.6632,6.5898,6.4219,6.2695,6.1914,6.1719,6.1836,6.1797,6.1719,6.1953,6.1953,6.1797,6.1133,6.1836,6.289,6.2265,6.2969,0.0,0.0,0.0,6.4765,6.539,6.6914,6.8906,7.1484,7.625,8.1406,8.5234,8.6523,8.7812,9.1445,9.1367,9.0937,9.2461,9.4062,9.4883,9.3906,9.3828,9.3594,9.2734,9.1328,9.0625,9.1367,9.0078,8.9062,8.9062,8.832,8.7539,8.6797,8.6601,8.6523,8.6523,8.6445,8.5976,8.5117,8.5078,8.4336,8.2695,8.3398,8.3359,8.2461,8.2461,8.2422,8.2304,8.2304,8.2304,8.2304,8.2304,8.2304,8.2304,8.2304,8.2304,8.2304,8.2304,8.2304,8.2304,8.2304,8.2304,8.2304,8.2304,8.2304,8.2304,0.0,0.0,0.0,0.0,0.0,0.0,0.0,0.0,0.0,0.0,0.0,5.0827,0.0,0.0,0.0,5.075,5.101,5.1433,5.1885,5.3087,5.4318,5.5549,5.7062,5.8228,5.903,6.0184,6.096,6.14,6.1566,6.3465,6.6982,6.8271,6.8661,6.8272,6.9803,6.8437,6.5,6.4726,6.3476,6.1719,6.1719,6.1992,6.2383,6.1875,6.1992,6.2305,6.1445,0.0,6.2305,6.2383,6.293,6.3672,6.414,0.0,0.0,0.0,6.6094,6.8555,7.3555,7.6133,7.8945,8.5312,8.582,8.5976,9.0781,9.0898,9.0508,9.2226,9.3203,9.3633,9.3242,9.2773,9.2461,9.2578,9.1133,9.0312,9.1172,8.9804,8.8515,8.8086,8.7265,8.6601,8.625,8.6211,8.6406,8.6875,8.6484,8.582,8.4961,8.4453,8.3594,8.2344,8.2656,8.2695,8.2304,8.2304,8.2304,8.2304,8.2304,8.2304,8.2304,8.2304,8.2304,8.2304,8.2304,8.2304,8.2304,8.2304,8.2304,8.2304,8.2304,8.2304,8.2304,8.2304,8.2304,8.2304,0.0,0.0,0.0,0.0,0.0,0.0,0.0,0.0,0.0,0.0,0.0,0.0,0.0,0.0,0.0,0.0,5.0712,5.1048,5.1846,5.2955,5.389,5.4506,5.6712,5.8125,5.8609,6.0071,6.1083,6.1568,6.1637,6.3945,6.8242,7.0156,7.1055,7.1172,7.2422,7.0703,6.6914,6.6914,6.5547,6.3281,6.2617,6.2617,6.289,6.2031,6.2226,6.289,6.2265,0.0,0.0,0.0,0.0,6.3789,6.4414,6.4648,0.0,0.0,0.0,6.8437,7.4023,7.5078,7.6328,8.3437,8.3906,8.3867,8.8594,8.9336,8.9609,9.1523,9.2304,9.2617,9.2617,9.207,9.1758,9.2187,9.0976,9.0156,9.0586,8.9336,8.8086,8.7265,8.6406,8.5781,8.5547,8.5547,8.582,8.6445,8.5898,8.5273,8.4609,8.375,8.2969,8.2304,8.2304,8.2304,8.2304,8.2304,8.2304,8.2304,8.2304,8.2304,8.2304,8.2304,8.2304,8.2304,8.2304,8.2304,8.2304,8.2304,8.2304,8.2304,8.2304,8.2304,8.2304,8.2304,8.2304,8.2304,0.0,0.0,0.0,0.0,0.0,0.0,0.0,0.0,0.0,0.0,0.0,0.0,5.1846,5.1846,5.1548,5.0789,5.0712,5.1048,5.1846,5.3593,5.4646,5.4684,5.5754,0.0,5.8838,5.8967,5.9898,6.1679,6.1719,6.3945,6.8242,7.0742,7.3242,7.5469,7.3125,7.1445,7.0273,6.789,6.7265,6.7656,6.5156,6.3711,6.289,6.2031,6.2226,0.0,0.0,0.0,0.0,0.0,0.0,0.0,0.0,6.5547,6.5703,0.0,0.0,0.0,7.0508,7.2773,7.5312,7.8242,7.9453,8.0859,8.4414,8.5859,8.7109,8.9609,9.1445,9.2617,9.2617,9.2578,9.2265,9.1484,9.0586,8.9726,8.8945,8.8086,8.7226,8.6367,8.5508,8.4648,8.3828,8.375,8.375,8.3789,8.375,8.3711,8.3672,8.2851,8.2344,8.2304,8.2304,8.2304,8.2304,8.2304,8.2304,8.2304,8.2304,8.2304,8.2304,8.2304,8.2304,8.2304,8.2304,8.2304,8.2304,8.2304,8.2304,8.2304,8.2304,8.2304,8.2304,8.2304,8.2304,8.2304,0.0,0.0,0.0,0.0,0.0,0.0,0.0,0.0,0.0,0.0,0.0,0.0,0.0,5.1433,5.1202,5.1471,5.1972,5.2433,5.2741,5.387,5.4619,5.4692,5.6705,5.8135,5.8892,6.0061,6.1013,6.1719,6.1719,6.3086,6.5742,6.7773,6.9531,7.1133,7.5156,7.4609,7.0703,7.0937,6.8633,6.4961,6.6289,6.5625,6.375,6.2851,0.0,0.0,0.0,0.0,0.0,0.0,0.0,0.0,0.0,0.0,0.0,6.6797,6.6719,6.7148,6.9922,7.0586,7.164,7.6445,7.6601,7.6797,8.1367,8.3515,8.4961,8.6406,8.9414,9.1601,9.1015,9.1406,9.1836,9.2109,9.0469,8.9258,8.9492,8.8359,8.6953,8.5547,8.5078,8.4336,8.289,8.3281,8.3594,8.3594,8.2578,8.2422,8.3554,8.1719,8.1133,8.2265,8.2304,8.2304,8.2304,8.2304,8.2304,8.2304,8.2304,8.2304,8.2304,8.2304,8.2304,8.2304,8.2304,8.2304,8.2304,8.2304,8.2304,8.2304,8.2304,8.2304,8.2304,8.2304,8.2304,8.2304,0.0,0.0,0.0,0.0,0.0,0.0,0.0,0.0,5.3626,5.3626,0.0,0.0,0.0,0.0,5.2087,5.2308,5.2856,5.3203,5.3203,5.4101,5.4807,5.5183,5.7298,5.8724,5.939,6.0349,6.1133,6.1719,6.1133,6.2031,6.4336,6.5781,6.7226,6.8867,7.4258,7.5117,7.2539,7.3984,7.2148,6.8203,6.8203,6.7851,6.7109,0.0,0.0,0.0,0.0,0.0,0.0,0.0,0.0,0.0,0.0,0.0,0.0,0.0,6.6484,6.6523,6.8828,6.8828,6.9219,7.3515,7.3711,7.3906,7.793,8.1094,8.3398,8.4297,8.8125,9.1133,9.0547,9.1133,9.1719,9.1719,9.0273,8.914,8.914,8.7969,8.6523,8.5078,8.4648,8.3906,8.2422,8.2812,8.3164,8.3164,8.2109,8.1953,8.3086,8.1523,8.1094,8.2265,8.2304,8.2304,8.2304,8.2304,8.2304,8.2304,8.2304,8.2304,8.2304,8.2304,8.2304,8.2304,8.2304,8.2304,8.2304,8.2304,8.2304,8.2304,8.2304,8.2304,8.2304,8.2304,8.2304,8.2304,0.0,0.0,0.0,0.0,0.0,0.0,0.0,0.0,5.4549,5.4549,0.0,0.0,0.0,0.0,0.0,5.3356,5.3318,5.3356,5.3318,5.4379,5.538,5.6207,5.7356,5.8711,6.0312,5.9648,6.0078,6.1719,6.0039,6.0937,6.418,6.5039,6.6797,6.9258,7.0195,7.2461,7.5742,7.668,7.75,7.7539,0.0,7.0312,7.2656,0.0,0.0,0.0,7.2344,7.1719,0.0,0.0,0.0,0.0,0.0,0.0,0.0,0.0,0.0,6.6914,0.0,0.0,0.0,6.914,7.0625,7.2344,7.4101,7.8437,8.2344,8.3242,8.7539,9.1133,9.1133,9.1914,9.1953,9.0234,8.9961,8.9414,8.7812,8.6797,8.5898,8.5,8.414,8.3242,8.2383,8.2304,8.2304,8.2304,8.2265,8.2265,8.2304,8.2304,8.2304,8.2304,8.2304,8.2304,8.2304,8.2304,8.2304,8.2304,8.2304,8.2304,8.2304,8.2304,8.2304,8.2304,8.2304,8.2304,8.2304,8.2304,8.2304,8.2304,8.2304,8.2304,8.2304,8.2304,8.2304,8.2304,0.0,0.0,0.0,0.0,0.0,5.7857,5.7627,5.6857,5.6329,0.0,0.0,0.0,5.4549,5.5011,5.528,5.5011,5.6165,5.6626,5.5972,5.691,5.7352,5.7081,5.8676,5.9557,5.9531,6.0508,6.125,6.1719,6.0586,6.0234,6.0625,6.1445,6.2226,6.3047,6.6445,6.8828,7.0508,7.3242,7.2344,6.9492,7.3203,7.2265,0.0,0.0,0.0,0.0,0.0,7.2734,7.3203,0.0,7.1953,6.9726,0.0,0.0,0.0,0.0,0.0,0.0,6.6914,0.0,0.0,0.0,0.0,0.0,7.1406,7.4336,7.7148,7.8672,8.3086,8.6875,8.75,8.9297,9.0351,8.9258,8.9609,8.9844,8.9375,8.75,8.5898,8.5,8.414,8.3242,8.2383,8.2304,8.2304,0.0,8.1133,8.0976,8.2226,8.2304,8.2304,8.2304,8.2304,8.2304,8.2304,8.2304,8.2304,8.2304,8.2304,8.2304,8.2304,8.2304,8.2304,8.2304,8.2304,8.2304,8.2304,8.2304,8.2304,8.2304,8.2304,8.2304,8.2304,8.2304,8.2304,8.2304,0.0,0.0,0.0,5.9435,5.9358,5.9204,5.8858,5.8357,5.778,0.0,0.0,0.0,5.5588,5.6588,5.7165,5.6819,5.7703,5.8088,5.7588,5.8222,5.8551,5.8487,5.9625,6.0265,6.0234,6.0859,6.1328,6.1719,6.0508,6.0039,6.0234,6.0351,6.0586,6.1055,6.3594,6.5195,6.6211,6.8945,7.0234,7.0703,7.3789,0.0,0.0,7.4531,7.4844,0.0,0.0,0.0,7.6289,7.6601,7.4531,0.0,0.0,0.0,0.0,0.0,0.0,0.0,0.0,0.0,0.0,0.0,0.0,0.0,6.9922,7.3008,7.5976,7.6992,8.1328,8.4922,8.5078,8.664,8.7812,8.7695,8.7773,8.8125,8.8867,8.7031,8.5469,8.4961,8.3828,8.2851,8.2344,8.2304,8.2304,8.2304,8.1367,8.1211,8.2265,8.2304,8.2304,8.2304,8.2304,8.2304,8.2304,8.2304,8.2304,8.2304,8.2304,8.2304,8.2304,8.2304,8.2304,8.2304,8.2304,8.2304,8.2304,8.2304,8.2304,8.2304,8.2304,8.2304,8.2304,8.2304,8.2304,8.2304,0.0,0.0,6.0819,6.0935,6.0935,6.0704,6.0012,5.9858,5.9242,0.0,5.7484,5.7484,5.7676,5.8858,5.9358,5.8627,5.8588,5.855,5.8434,5.8793,5.931,5.9977,6.0362,6.0859,6.1523,6.0976,6.1015,6.1719,6.0312,6.0312,6.168,6.0898,6.1015,6.1836,6.1758,6.2187,6.3125,6.4765,6.9609,7.5976,7.3437,7.6094,0.0,0.0,7.8008,7.8711,8.1367,8.0703,7.8711,7.9375,7.7031,0.0,0.0,0.0,0.0,0.0,6.8828,0.0,0.0,0.0,0.0,0.0,0.0,0.0,6.9335,7.2968,7.6445,7.6836,8.0625,8.3711,8.3125,8.375,8.457,8.5351,8.4844,8.5039,8.707,8.5937,8.4844,8.4648,8.3242,8.2304,8.2304,8.2304,8.2304,8.2304,8.2304,8.2304,8.2304,8.2304,8.2304,8.2304,8.2304,8.2304,8.2304,8.2304,8.2304,8.2304,8.2304,8.2304,8.2304,8.2304,8.2304,8.2304,8.2304,8.2304,8.2304,8.2304,8.2304,8.2304,8.2304,8.2304,8.2304,8.2304,8.2304,8.2304,0.0,6.0781,6.1012,6.1716,6.187,6.2012,6.2512,6.2012,6.1485,6.1139,6.0485,6.055,6.1935,6.1166,6.0473,6.0319,6.0319,6.0012,5.9319,6.0228,6.0544,6.0038,6.0946,6.1211,6.0664,6.1875,6.2226,6.1719,6.207,6.207,6.1719,6.1523,6.1914,6.2734,6.1992,6.2187,6.3086,6.4101,6.664,7.0273,7.375,0.0,7.7461,8.0234,7.9687,7.789,8.1133,8.1094,7.9375,0.0,7.8164,7.6875,0.0,0.0,0.0,0.0,0.0,0.0,0.0,0.0,0.0,0.0,0.0,0.0,6.8892,7.0038,7.1577,7.4491,7.6484,7.8047,7.9258,8.0156,8.0781,8.0937,8.082,8.207,8.5898,8.5547,8.4375,8.2969,8.25,8.2304,8.2304,8.2304,8.2304,8.2304,8.2304,8.2304,8.2304,8.2304,8.2304,8.2304,8.2304,8.2304,8.2304,8.2304,8.2304,8.2304,8.2304,8.2304,8.2304,8.2304,8.2304,8.2304,8.2304,8.2304,8.2304,8.2304,8.2304,8.2304,8.2304,8.2304,8.2304,8.2304,8.2304,8.2304,6.1447,6.1781,6.2166,6.2627,6.3051,6.332,6.332,6.332,6.3051,6.2216,6.205,6.2204,6.2666,6.232,6.1897,6.1473,6.1447,6.1089,6.0204,6.1164,6.1465,6.0694,6.1264,6.1633,6.1719,6.2148,6.2344,6.2344,6.2773,6.2773,6.2344,6.2773,6.2773,6.2383,6.2812,6.2539,6.1797,6.3086,6.539,6.8594,7.3359,0.0,7.7578,8.1015,8.125,7.9961,8.1679,8.1758,8.0742,7.9062,7.8515,0.0,0.0,7.3398,7.1758,0.0,6.9137,6.7832,0.0,0.0,0.0,6.6912,0.0,0.0,0.0,6.908,7.0195,7.2044,7.3807,7.502,7.5023,7.5751,7.6509,7.694,7.7106,7.8203,8.1289,8.2422,8.2969,8.2969,8.2578,8.2304,8.2304,8.2304,8.2304,8.2304,8.2304,8.2304,8.2304,8.2304,8.2304,8.2304,8.2304,8.2304,8.2304,8.2304,8.2304,8.2304,8.2304,8.2304,8.2304,8.2304,8.2304,8.2304,8.2304,8.2304,8.2304,8.2304,8.2304,8.2304,8.2304,8.2304,8.2304,8.2176,8.2168,8.2125,6.232,6.2858,6.3308,6.3308,6.4012,6.4359,6.3666,6.4282,6.4359,6.3024,6.3666,6.4089,6.364,6.3974,6.4166,6.382,6.3217,6.2524,6.182,6.2238,6.215,6.1272,6.1404,6.1803,6.2458,6.2148,6.2226,6.2734,6.3086,6.3242,6.3281,6.3984,6.3711,6.2734,6.3476,6.3203,6.2226,6.3281,6.5742,6.9297,0.0,7.6328,7.8086,8.1133,8.1992,8.164,8.2109,8.2304,8.1914,7.9531,0.0,7.8359,7.7461,7.4922,0.0,0.0,0.0,0.0,0.0,0.0,0.0,0.0,0.0,6.7631,0.0,0.0,0.0,7.0142,7.1868,7.2958,7.1751,7.2057,7.2707,7.3221,7.3621,7.4414,7.5976,7.8242,0.0,8.1914,8.164,8.1328,8.1328,8.1601,8.1953,8.2265,8.2304,8.2304,8.2304,8.2304,8.2304,8.2304,8.2304,8.2304,8.2304,8.2304,8.2304,8.2304,8.2304,8.2304,8.2304,8.2304,8.2304,8.2304,8.2304,8.2304,8.2304,8.2264,8.2223,8.2223,8.2223,8.2223,8.222,8.2039,8.1958,8.1904,6.3166,6.3243,6.3308,6.3308,6.4012,6.4589,6.4474,6.5205,6.5667,6.5474,6.6859,6.809,6.8744,6.8244,6.8398,6.9783,0.0,0.0,6.532,0.0,6.274,6.1117,6.132,6.1197,6.0544,6.2066,6.2539,6.1836,6.3398,6.414,6.414,6.4258,6.5039,6.6172,6.3281,6.4414,6.8398,6.7031,6.8437,0.0,7.6328,7.6836,0.0,8.0469,8.0898,7.9219,8.1484,8.2304,8.2031,0.0,7.9101,7.8359,0.0,7.5351,7.3008,0.0,0.0,0.0,0.0,0.0,0.0,0.0,6.6862,0.0,0.0,0.0,6.8174,6.9869,0.0,7.0836,7.1368,0.0,0.0,6.9894,7.0535,7.1484,7.2461,7.418,7.5703,7.664,7.7383,7.7773,7.7773,7.9101,8.0625,8.2187,8.2304,8.2304,8.2304,8.2304,8.2304,8.2304,8.2304,8.2304,8.2304,8.2304,8.2304,8.2304,8.2304,8.2304,8.2304,8.2304,8.2304,8.2304,8.2304,8.2304,8.2304,8.2115,8.2046,8.2046,8.2046,8.2046,8.1996,8.1825,8.1718,8.1718,6.3308,6.4128,6.482,6.482,6.5128,6.5513,6.5974,6.6782,6.7359,6.7359,6.7975,6.8898,7.0244,0.0,0.0,0.0,0.0,6.859,0.0,0.0,0.0,6.3999,6.3177,6.2652,6.2476,6.274,6.2723,6.2461,6.3203,6.3555,6.3555,6.457,6.5156,6.5351,6.4375,6.5469,6.7969,6.7734,6.9336,0.0,0.0,0.0,0.0,8.0312,8.164,8.0703,8.0781,8.1445,8.1719,0.0,7.8515,0.0,0.0,0.0,0.0,0.0,0.0,0.0,0.0,0.0,0.0,0.0,0.0,0.0,0.0,0.0,6.7575,0.0,0.0,0.0,0.0,0.0,0.0,0.0,7.0165,7.0876,7.1696,7.2105,7.3398,7.6328,0.0,0.0,7.8555,7.8398,7.875,8.0,8.0547,8.0586,8.0117,8.1484,8.2304,8.2304,8.2304,8.2304,8.2304,8.2304,8.2304,8.2304,8.2304,8.2304,8.2304,8.2175,8.2122,8.212,8.1996,8.1967,8.1962,8.1867,8.1837,8.1825,8.1719,8.1703,8.1819,8.1609,8.1514,8.1494,6.3666,6.4666,6.5551,6.5551,6.5743,6.6167,6.6974,6.8052,6.8859,6.9052,6.9283,7.009,7.1745,7.1206,0.0,0.0,7.2591,7.1706,0.0,0.0,6.7383,0.0,0.0,0.0,0.0,6.3266,6.2913,6.3008,6.3008,6.3125,6.3398,6.4883,6.539,6.5039,6.543,6.6601,6.8359,6.9219,7.1211,7.3945,7.5664,7.6367,7.6719,8.0,8.1679,8.2148,8.0859,8.1211,8.164,7.7422,7.8359,0.0,7.7109,0.0,0.0,0.0,0.0,0.0,7.2273,0.0,0.0,0.0,0.0,0.0,0.0,0.0,0.0,0.0,0.0,0.0,0.0,0.0,0.0,0.0,0.0,7.0563,0.0,7.0798,0.0,0.0,0.0,0.0,0.0,7.7617,7.7265,7.7422,7.8398,7.8672,7.7812,8.0195,8.1719,8.1953,8.2107,8.2224,8.2304,8.2263,8.2263,8.2304,8.2224,8.222,8.2219,8.1996,8.1904,8.1899,8.1746,8.1688,8.1719,8.1662,8.1627,8.1609,8.1407,8.1418,8.1504,8.1359,8.1311,8.1311,6.4551,6.4589,6.4628,6.4628,6.532,6.6167,6.6974,6.8552,6.9937,7.0706,7.1552,0.0,0.0,0.0,0.0,0.0,0.0,7.4591,7.4553,0.0,6.8859,0.0,0.0,6.3812,0.0,0.0,6.3008,6.3008,6.3008,6.3437,6.4297,6.5195,6.6055,6.6797,6.5976,6.793,7.1875,7.2773,7.5117,7.8437,8.0117,8.0781,8.0625,0.0,8.0156,8.2304,8.2226,0.0,0.0,8.0156,7.914,0.0,0.0,0.0,0.0,0.0,0.0,0.0,0.0,0.0,0.0,7.1441,0.0,0.0,0.0,0.0,6.7567,0.0,0.0,0.0,0.0,0.0,0.0,0.0,0.0,0.0,0.0,0.0,0.0,0.0,0.0,0.0,0.0,7.625,7.6523,0.0,7.6328,7.6914,7.6015,7.8398,8.0156,8.1015,8.1688,8.2115,8.2304,8.2115,8.2115,8.2304,8.2115,8.1996,8.1992,8.1819,8.1695,8.1695,8.1688,8.1688,8.1664,8.1501,8.143,8.1395,8.1196,8.1124,8.1124,8.1124,8.1108,8.1108,6.6359,6.6244,6.609,6.5551,6.5705,6.6359,6.7744,6.8475,6.9937,7.3014,7.3206,0.0,0.0,7.8707,7.9092,0.0,0.0,7.8707,7.813,7.5438,0.0,0.0,0.0,6.9517,0.0,0.0,0.0,6.4726,6.414,6.4023,6.4336,6.5195,6.6055,6.6875,6.6601,6.8203,7.1289,0.0,0.0,0.0,0.0,8.0508,8.1015,0.0,8.1562,8.2304,8.2304,8.2304,0.0,8.0273,8.0273,8.0859,7.9961,7.9101,7.875,8.0508,7.8594,0.0,0.0,0.0,7.7461,7.6753,0.0,0.0,0.0,0.0,0.0,0.0,0.0,0.0,0.0,0.0,0.0,0.0,0.0,0.0,0.0,0.0,0.0,0.0,0.0,0.0,0.0,0.0,0.0,0.0,7.2031,0.0,7.0859,7.4712,7.7388,7.8245,8.0022,8.1309,8.2074,8.2046,8.2046,8.2113,8.2046,8.1914,8.1773,8.16,8.1483,8.1473,8.1347,8.1285,8.1311,8.1228,8.1224,8.121,8.1154,8.1093,8.1093,8.1093,8.1093,8.1093,6.7321,6.709,6.7013,6.6821,6.7051,6.7821,6.9513,7.0514,7.2514,0.0,7.6515,0.0,8.1554,0.0,8.14,0.0,8.1554,8.0862,8.0285,7.7592,0.0,7.6438,7.4318,0.0,0.0,0.0,0.0,0.0,6.6366,6.582,6.6133,6.6719,6.7109,6.7383,6.8008,6.8984,7.0469,7.4023,7.6172,0.0,0.0,8.0234,0.0,0.0,8.1953,8.2734,0.0,8.2304,8.2148,8.1015,8.1367,8.2109,8.0976,8.0625,8.0859,8.1953,8.0351,7.8515,8.0195,8.0234,0.0,7.9375,7.7924,0.0,7.5918,0.0,0.0,0.0,0.0,0.0,0.0,0.0,0.0,0.0,0.0,0.0,0.0,6.9958,0.0,0.0,0.0,0.0,0.0,0.0,0.0,0.0,0.0,0.0,0.0,7.1792,7.5183,7.6313,7.8917,8.0824,8.1889,8.1831,8.1831,8.1889,8.1831,8.1742,8.1591,8.1383,8.1311,8.1298,8.1176,8.1093,8.1093,8.1093,8.1093,8.1093,8.1093,8.1093,8.1093,8.1093,8.1093,8.1093,6.7513,6.7244,6.7552,6.8398,6.9167,7.0283,7.1937,0.0,7.7246,0.0,8.1208,8.19,8.367,8.2439,8.1747,8.2439,8.1785,8.1323,8.1246,7.8169,0.0,0.0,7.4576,7.3607,7.5155,0.0,0.0,0.0,0.0,6.8789,6.9531,6.9492,6.9023,6.8281,6.9961,7.0156,6.9609,7.4961,7.7265,7.7461,7.8984,8.0156,8.0898,8.0039,8.1328,8.3476,8.2617,8.2304,8.2304,8.2304,8.2304,8.2304,8.2304,8.2304,8.2304,8.2304,8.2304,8.2304,8.2304,8.2304,8.1719,7.9297,7.8633,0.0,0.0,0.0,7.5733,0.0,0.0,0.0,0.0,0.0,0.0,0.0,0.0,0.0,0.0,0.0,0.0,0.0,0.0,0.0,0.0,0.0,0.0,0.0,0.0,0.0,0.0,6.9572,7.3495,7.5157,7.8175,8.0376,8.1664,8.1395,8.1395,8.1664,8.1501,8.1407,8.1371,8.1196,8.1093,8.1093,8.1093,8.1093,8.1093,8.1093,8.1093,8.1093,8.1093,8.1093,8.1093,8.1093,8.1093,8.1093,6.8398,6.9052,7.0014,7.0206,6.9937,7.0283,7.1937,7.4361,0.0,0.0,8.2554,8.4093,8.7055,8.7017,8.6324,8.5209,8.4939,0.0,0.0,0.0,0.0,8.1054,8.0222,7.9144,7.7825,7.6408,0.0,7.4601,0.0,7.0993,7.1289,7.0039,6.8984,6.8281,6.9961,6.9531,6.7969,7.4453,7.793,7.8984,7.8164,7.9101,8.0898,0.0,8.1328,8.3476,8.2617,8.2304,8.2304,8.2304,8.2304,8.2304,8.2304,8.2304,8.2304,8.2304,8.2304,8.2304,8.2304,8.2304,8.2148,8.1484,8.0351,7.9178,0.0,0.0,0.0,0.0,0.0,0.0,0.0,0.0,0.0,0.0,0.0,0.0,0.0,0.0,0.0,6.8452,0.0,0.0,0.0,0.0,0.0,0.0,0.0,0.0,6.3094,6.6724,7.0464,7.3994,7.4821,7.7228,8.1441,8.0135,8.0135,8.148,8.1414,8.1324,8.1167,8.11,8.1093,8.1093,8.1093,8.1093,8.1093,8.1093,8.1093,8.1093,8.1093,8.1093,8.1093,8.1093,8.1093,8.1093,6.9321,6.9744,7.0475,7.0821,7.236,7.386,7.4822,7.6476,0.0,8.3401,8.5055,0.0,8.8979,8.9556,8.9402,8.844,8.6978,0.0,8.4747,0.0,0.0,8.2862,8.217,8.1146,7.9841,7.8655,0.0,7.6979,0.0,7.2714,7.3539,7.1092,6.9531,6.8789,7.0508,7.0039,6.8398,7.457,7.8164,7.9609,7.8672,7.9609,0.0,8.0195,8.1094,8.2969,8.2461,8.2304,8.2304,8.2304,8.2304,8.2304,8.2304,8.2304,8.2304,8.2304,8.2304,8.2304,8.2304,8.2304,8.2304,8.2304,8.1562,8.082,8.0728,8.0682,8.0406,0.0,0.0,0.0,0.0,0.0,0.0,0.0,0.0,0.0,0.0,0.0,0.0,0.0,6.7949,0.0,0.0,0.0,0.0,0.0,0.0,0.0,0.0,6.5898,6.922,7.0768,7.3983,7.6784,7.9031,7.8799,7.9147,8.0112,8.0112,8.0467,8.1093,8.1093,8.1093,8.1093,8.1093,8.1093,8.1093,8.1093,8.1093,8.1093,8.1093,8.1093,8.1093,8.1093,8.1093,8.1093,7.0014,6.9783,7.0167,7.1091,7.5284,7.8669,7.9246,8.0439,0.0,8.6286,0.0,8.944,9.0171,9.0825,9.1171,9.1056,0.0,8.6517,8.6286,8.4209,8.3208,8.3747,8.2285,8.1362,8.1246,7.9841,0.0,0.0,0.0,7.4195,7.5542,7.2257,7.0234,6.9453,7.0976,7.1133,7.0547,7.4844,7.7851,7.9687,7.9687,8.0625,8.1836,8.0547,8.1054,8.2461,8.2344,8.2304,8.2304,8.2304,8.2304,8.2304,8.2304,8.2304,8.2304,8.2304,8.2304,8.2304,8.2304,8.2383,8.2461,8.2461,8.2578,8.2656,8.2656,8.2539,8.2461,8.2461,8.2383,8.1836,0.0,0.0,0.0,0.0,0.0,0.0,0.0,0.0,0.0,0.0,0.0,0.0,0.0,0.0,0.0,0.0,0.0,0.0,0.0,0.0,6.8656,6.7488,7.386,7.7053,7.6515,7.7592,7.8438,7.8977,7.8669,7.94,8.1093,8.1093,8.1093,8.1093,8.1093,8.1093,8.1093,8.1093,8.1093,8.1093,8.1093,8.1093,8.1093,8.1093,8.1093,8.1093,6.9898,7.0244,0.0,0.0,0.0,7.9669,8.3247,8.6863,8.9479,9.021,9.121,9.1902,9.2018,9.1556,9.0902,9.021,8.9594,0.0,0.0,0.0,0.0,8.4747,8.3708,8.2824,8.2093,8.1154,8.0765,0.0,0.0,7.578,7.5542,7.2257,7.0234,6.9414,6.9726,7.168,7.4726,7.4219,0.0,7.9687,7.9687,7.9883,8.0273,8.1406,8.2461,8.3281,8.2578,8.2304,8.2304,8.2304,8.2304,8.2304,8.2304,8.2304,8.2304,8.2304,8.2304,8.2304,8.2304,8.2812,8.3359,8.3359,8.3906,8.4453,8.4453,8.3906,8.3359,8.3359,8.2812,8.2226,8.1914,0.0,0.0,0.0,0.0,0.0,0.0,0.0,0.0,0.0,0.0,0.0,0.0,0.0,0.0,0.0,0.0,0.0,0.0,0.0,6.6679,0.0,7.0552,7.3783,0.0,0.0,7.8207,8.1593,7.9477,7.94,8.1093,8.1093,8.1093,8.1093,8.1093,8.1093,8.1093,8.1093,8.1093,8.1093,8.1093,8.1093,8.1093,8.1093,8.1093,8.1093,7.1745,0.0,0.0,0.0,0.0,0.0,0.0,9.0825,9.3056,9.0825,9.1672,9.2172,9.1248,9.1979,9.2172,9.1325,9.0441,8.9556,8.8748,8.7863,8.7055,8.6247,8.4978,0.0,8.2978,8.2131,8.157,8.1217,0.0,0.0,7.5357,7.1737,6.9805,6.9492,7.0351,7.2422,7.5273,0.0,0.0,7.9805,8.1172,8.1719,8.1875,8.3164,8.3906,8.4219,8.3789,8.3633,8.3515,8.2617,8.2304,8.2383,8.2812,8.2969,8.3047,8.3515,8.3633,8.3633,8.3633,8.3945,8.4258,8.4258,8.4258,8.4219,8.4219,8.3554,8.2929,8.2929,8.2578,8.2031,8.1133,7.9258,0.0,0.0,0.0,0.0,0.0,0.0,0.0,0.0,0.0,0.0,0.0,0.0,0.0,0.0,0.0,0.0,0.0,0.0,6.6667,0.0,0.0,0.0,7.7784,0.0,7.8323,8.0323,7.9092,7.94,8.1093,8.1093,8.1093,8.1093,8.1093,8.1093,8.1093,8.1093,8.1093,8.1093,8.1093,8.1093,8.1093,8.1093,8.1362,8.167,7.4745,7.3745,0.0,0.0,8.1785,8.5747,8.9017,9.321,9.4864,9.1672,9.2287,9.2441,9.0902,9.2364,9.3018,9.2056,9.0864,8.994,8.9402,8.8479,8.7671,8.7132,8.5863,8.4747,8.3901,8.2824,8.1977,0.0,0.0,0.0,7.5222,7.1802,7.0078,6.9844,7.2109,7.3867,0.0,0.0,7.9453,8.0703,8.2773,8.3711,8.3945,8.4648,8.5039,8.5156,8.4961,8.5039,8.4922,8.3398,8.2851,8.2969,8.3672,8.3867,8.4023,8.4687,8.4883,8.4883,8.4883,8.5039,8.5195,8.5195,8.4804,8.4375,8.4179,8.3633,8.3086,8.289,8.2695,8.2109,8.0547,7.9961,0.0,0.0,0.0,0.0,0.0,0.0,0.0,0.0,0.0,0.0,0.0,0.0,0.0,0.0,0.0,0.0,5.9435,0.0,0.0,0.0,0.0,7.4399,7.5976,0.0,7.84,7.9285,7.8746,7.94,8.1093,8.1093,8.1093,8.1093,8.1093,8.1093,8.1093,8.1285,8.1362,8.1362,8.1362,8.1477,8.1593,8.14,8.1862,8.2477,0.0,7.9092,0.0,0.0,0.0,8.9094,9.1748,9.3826,9.5249,9.5634,9.5172,9.4403,9.3441,9.2903,9.1941,9.0287,9.071,9.0094,8.7786,8.8902,8.8632,8.6324,8.6055,8.5632,8.4786,8.3131,8.2247,0.0,0.0,7.7564,0.0,7.3676,7.2109,7.0781,0.0,0.0,0.0,7.8828,8.1015,8.3242,8.3515,8.4062,8.4804,8.4883,8.539,8.5976,8.5195,8.539,8.5937,8.4961,8.4648,8.4687,8.4765,8.4765,8.4804,8.4883,8.4883,8.4883,8.4883,8.5469,8.6094,8.6094,8.6601,8.6914,8.6133,8.5898,8.5625,8.4804,8.4023,8.3203,8.2226,8.0781,7.9101,0.0,0.0,0.0,0.0,0.0,0.0,0.0,0.0,0.0,0.0,6.7854,0.0,0.0,6.0184,0.0,0.0,0.0,0.0,6.4743,6.8282,7.2052,7.5976,7.6169,7.8169,8.19,7.9592,7.94,8.1093,8.1093,8.1093,8.1093,8.1093,8.1093,8.117,8.19,8.217,8.217,8.217,8.267,8.3247,8.2477,8.2747,8.3478,0.0,0.0,0.0,0.0,0.0,0.0,0.0,9.5018,9.5903,9.6249,9.6019,9.5249,9.3864,9.3864,9.3287,9.1595,9.1787,9.1325,8.9787,8.9825,8.944,8.844,8.744,8.6748,8.6401,8.4747,8.3593,0.0,0.0,0.0,0.0,0.0,0.0,0.0,0.0,7.8242,7.8828,8.0547,8.2187,8.3672,8.4726,8.5351,8.5742,8.625,8.6992,8.7656,8.7304,8.7383,8.7656,8.7304,8.6172,8.5078,8.6133,8.6445,8.664,8.7656,8.7969,8.7851,8.7304,8.7422,8.7578,8.7109,8.6836,8.664,8.6289,8.5781,8.5312,8.4961,8.4609,8.4101,8.3242,8.25,8.1328,0.0,0.0,0.0,0.0,0.0,0.0,0.0,0.0,0.0,0.0,0.0,0.0,0.0,0.0,0.0,0.0,0.0,0.0,6.8282,0.0,7.2476,7.8207,7.7746,7.8861,8.1554,8.0554,8.0439,8.1093,8.1093,8.1093,8.1093,8.1093,8.1362,8.1862,8.217,8.2285,8.2285,8.2285,8.2516,8.2785,8.2439,8.317,8.4362,8.7825,0.0,8.7209,0.0,9.1402,9.2518,9.4672,9.5749,9.6211,9.5942,9.6134,9.5749,9.4249,9.4403,9.3941,9.2249,9.2133,9.1633,9.0556,9.0364,9.0056,8.9556,8.8402,0.0,8.7401,8.5747,8.4593,8.3978,8.076,0.0,0.0,0.0,0.0,0.0,7.8476,7.9922,8.0547,8.2031,8.332,8.4453,8.5703,8.6367,8.664,8.7265,8.8008,8.8711,8.8711,8.8867,8.9062,8.9062,8.789,8.6562,8.7539,8.8047,8.8476,8.9648,9.0,8.9883,8.9258,8.9062,8.8867,8.8047,8.7383,8.6797,8.6328,8.5937,8.5586,8.5351,8.5273,8.5039,8.414,8.3789,8.2812,8.0469,0.0,0.0,0.0,0.0,0.0,0.0,0.0,6.9285,6.9421,6.6381,0.0,0.0,0.0,0.0,0.0,0.0,0.0,0.0,0.0,0.0,7.8246,7.7938,7.89,8.1093,8.1093,8.1093,8.1093,8.1093,8.1246,8.1439,8.1439,8.19,8.2708,8.2978,8.3054,8.3054,8.3054,8.3208,8.3401,8.3131,8.3978,8.5247,9.1941,9.2402,9.321,9.5749,9.6211,9.5942,9.5134,9.5749,9.598,9.5134,9.5788,9.5942,9.5057,9.421,9.3018,9.1364,9.121,9.0517,8.8825,9.0287,9.0441,0.0,0.0,8.8286,8.7401,8.5747,8.4901,8.4901,0.0,0.0,8.0333,0.0,7.918,7.8555,8.1133,8.2265,8.2344,8.3203,8.457,8.6172,8.6172,8.6719,8.75,8.75,8.8008,8.8711,8.8711,8.9258,8.9961,8.9961,8.9961,8.9804,8.8945,8.9297,8.9961,9.0,9.0,9.0,9.0,8.9961,8.9765,8.8906,8.8672,8.8242,8.6562,8.6875,8.7226,8.6367,8.6172,8.5937,8.5039,8.4179,8.3047,8.1289,0.0,0.0,0.0,0.0,0.0,0.0,7.3375,7.0433,6.7265,6.8067,0.0,0.0,0.0,0.0,0.0,0.0,0.0,6.4774,6.6352,0.0,7.4707,7.563,7.7746,8.1093,8.1093,8.1093,8.1093,8.1093,8.1516,8.2285,8.2285,8.2785,8.3632,8.4516,8.4863,8.4863,8.4863,8.5363,8.5978,8.517,8.5401,8.6094,9.1672,9.348,9.498,9.4595,9.5518,9.6211,9.5942,9.6134,9.6211,9.5903,9.5595,9.5288,9.5018,9.4749,9.3903,0.0,9.1018,9.0364,0.0,8.9825,8.9748,9.0364,8.8748,8.7671,8.7401,8.5747,8.4593,8.4016,0.0,0.0,0.0,7.9762,8.0195,8.1133,8.2578,8.3515,8.414,8.5,8.5703,8.625,8.6836,8.7265,8.7578,8.8125,8.8476,8.8867,9.0039,9.0273,9.0078,9.0703,9.0898,9.0859,9.0547,9.0664,9.1015,9.1601,9.1758,9.164,9.1054,9.0898,9.0664,8.9804,8.9609,8.9297,8.8164,8.7695,8.7578,8.7851,8.7461,8.6836,8.5937,8.5547,8.4414,8.1484,8.1758,0.0,0.0,0.0,0.0,0.0,7.1482,6.8277,6.7812,6.8044,0.0,0.0,0.0,0.0,0.0,0.0,0.0,0.0,7.1453,0.0,7.813,7.7861,7.8861,8.1093,8.1093,8.1093,8.1131,8.167,8.2054,8.2324,8.2939,8.367,8.4478,8.4132,8.4016,8.4016,8.4016,8.417,8.4439,8.4786,8.5401,8.6094,9.3326,9.4826,9.598,9.4864,9.5595,9.6172,9.5865,9.6095,9.6057,9.5403,9.5134,9.4864,9.4557,9.4249,0.0,9.2595,9.1518,9.0979,9.121,9.021,9.0094,9.1171,8.9363,8.8325,8.8325,8.7017,0.0,8.5135,8.4368,8.3157,8.1551,8.1639,8.2226,8.3281,8.3867,8.457,8.5429,8.5976,8.6406,8.6758,8.7265,8.75,8.7578,8.8398,8.8906,8.9375,9.0781,9.1172,9.1054,9.1601,9.1797,9.1797,9.1797,9.1797,9.1914,9.2422,9.2617,9.2461,9.1953,9.1797,9.1562,9.0703,9.0508,9.0273,8.9375,8.8789,8.8594,8.9062,8.8515,8.7773,8.7226,8.6601,8.539,8.2851,8.3086,8.2812,8.0508,0.0,0.0,0.0,0.0,0.0,0.0,7.0993,7.0866,0.0,0.0,0.0,0.0,0.0,0.0,7.1711,7.3378,7.5899,7.9285,7.8746,7.9361,8.1093,8.1093,8.1093,8.1131,8.1939,8.2477,8.2824,8.3708,8.4555,8.5324,8.4747,8.4555,8.4555,8.4555,8.4555,8.4593,8.517,8.567,8.6094,9.598,9.6134,9.6249,9.6134,9.6211,9.6019,9.5211,9.5788,9.5711,9.4095,9.4518,9.4672,9.3787,9.3018,9.2556,9.2402,0.0,0.0,9.1248,9.1095,9.1095,9.121,9.0325,8.9825,8.9821,8.903,8.8328,8.7742,8.6462,8.543,8.47,8.4837,8.4922,8.5,8.5,8.5469,8.6289,8.6289,8.6758,8.75,8.7578,8.7578,8.7695,8.8554,8.9336,9.0117,9.1054,9.1875,9.2539,9.2578,9.2656,9.2695,9.2617,9.2656,9.2695,9.2617,9.2617,9.2617,9.2617,9.2617,9.2422,9.1601,9.1328,9.1094,9.0351,9.0078,9.0,9.0,8.9297,8.8672,8.8633,8.7344,8.5976,8.5039,8.4219,8.3008,8.1094,0.0,0.0,0.0,0.0,0.0,7.4609,7.6113,7.6063,0.0,0.0,0.0,0.0,0.0,6.9822,7.1485,7.3163,7.5515,7.8631,7.8669,7.9515,8.117,8.1246,8.1285,8.1285,8.2093,8.2901,8.3747,8.4593,8.5401,8.6094,8.6055,8.6017,8.6017,8.6017,8.6017,8.6017,8.6094,8.6094,8.6094,9.2672,9.4518,9.5865,9.4557,9.5403,9.6249,9.6019,9.6172,9.6134,9.5749,9.5288,9.4672,9.3787,9.3518,9.2903,9.1633,9.0325,9.0056,9.1133,9.0017,8.9863,9.1133,8.9787,8.9067,8.9226,8.8375,8.8041,8.8215,8.6605,8.5813,8.5816,8.5195,8.5234,8.5898,8.5898,8.6367,8.7187,8.7187,8.7304,8.7539,8.8164,8.8437,8.8594,9.0117,9.039,9.0195,9.1758,9.1992,9.1719,9.2383,9.3047,9.3476,9.2812,9.3047,9.3476,9.2812,9.2617,9.2617,9.2617,9.2617,9.2539,9.2344,9.1797,9.1406,9.1875,9.0976,9.0,9.0,8.9297,8.8515,8.789,8.7461,8.6679,8.5156,8.4726,8.3281,7.9609,7.8555,0.0,0.0,7.4999,7.5271,7.4648,7.7303,7.7922,0.0,0.0,0.0,7.5824,7.5556,7.5619,7.6062,7.8164,7.9669,8.0477,8.0477,8.1016,8.2016,8.267,8.3016,8.3016,8.3901,8.4401,8.4632,8.5478,8.594,8.6055,8.544,8.517,8.517,8.517,8.517,8.5247,8.5863,8.6094,8.6094,9.371,9.5018,9.6019,9.5057,9.5672,9.6288,9.6288,9.6288,9.6172,9.5749,9.4941,9.4261,9.3924,9.3168,9.255,9.2144,9.1151,9.0775,9.1315,9.0605,9.0585,9.1475,9.0662,9.021,9.0308,8.9454,8.8832,8.8392,8.7186,8.6669,8.6797,8.6679,8.6679,8.6797,8.7187,8.7383,8.7539,8.789,8.7851,8.7617,8.8828,8.9062,8.8906,9.0625,9.1015,9.082,9.2578,9.289,9.2617,9.3476,9.4101,9.4414,9.3945,9.3828,9.3828,9.332,9.289,9.2617,9.2617,9.2617,9.2617,9.2617,9.2226,9.2031,9.25,9.1875,9.1172,9.1172,9.0195,8.914,8.8711,8.8008,8.6914,8.5195,8.4219,8.25,7.8984,7.7812,0.0,7.5273,7.6289,7.7187,7.75,7.957,8.0116,7.8227,7.8578,0.0,7.864,7.8419,7.8447,7.8718,8.026,8.1093,8.1093,8.1477,8.1862,8.2324,8.317,8.3593,8.3632,8.4516,8.4901,8.4939,8.5747,8.6094,8.6055,8.5632,8.544,8.544,8.544,8.544,8.5478,8.5517,8.5786,8.6055,9.6288,9.6288,9.6288,9.6288,9.6288,9.6288,9.6288,9.6288,9.6037,9.5319,9.4471,9.3985,9.4136,9.2703,9.2088,9.2938,9.2826,9.2378,9.1592,9.1752,9.1836,9.172,9.1681,9.1659,9.1576,9.0743,8.9703,8.8451,8.7805,8.75,8.7539,8.832,8.8359,8.7695,8.8398,8.832,8.7734,8.8398,8.832,8.7812,8.9531,8.9765,8.9258,9.0898,9.1484,9.1719,9.332,9.3906,9.4023,9.4922,9.5273,9.5351,9.5234,9.4687,9.4062,9.3945,9.3281,9.2617,9.2617,9.2617,9.2617,9.2617,9.2617,9.2617,9.2617,9.2617,9.2578,9.2422,9.1133,8.9961,8.9844,8.8437,8.6679,8.4804,8.3164,8.1172,7.8476,0.0,7.6719,7.7305,7.8398,7.9648,8.1054,8.1875,8.1992,8.125,8.0508,8.0429,8.1172,8.0105,7.9792,8.0517,8.0905,8.117,8.1285,8.2208,8.2708,8.2708,8.3555,8.3978,8.3978,8.4747,8.5093,8.5132,8.5786,8.6094,8.6094,8.6094,8.6094,8.6094,8.6094,8.6094,8.6017,8.5324,8.5517,8.6017,9.6288,9.6288,9.6288,9.6288,9.6288,9.6288,9.6288,9.6288,9.6317,9.6343,9.5598,9.4886,9.4387,9.3522,9.2725,9.2148,9.2204,9.2171,9.1878,9.1897,9.1564,9.0816,9.0777,9.0555,9.0038,8.9342,8.8861,8.8631,8.789,8.75,8.7539,8.832,8.8633,8.8515,8.8633,8.8633,8.8515,8.8633,8.8633,8.8672,9.039,9.1015,9.1015,9.1992,9.2383,9.2539,9.3554,9.3906,9.4023,9.4922,9.5703,9.6172,9.5429,9.5117,9.4844,9.4101,9.3281,9.2617,9.2617,9.2617,9.2617,9.2617,9.2617,9.2617,9.2617,9.2617,9.2383,9.164,9.0703,8.9765,8.9023,8.7539,8.5586,8.3125,8.1875,8.0078,7.6758,0.0,7.8906,7.8359,8.0312,8.1797,8.207,8.2226,8.2226,8.2109,8.1953,8.1953,8.2109,8.1592,8.1664,8.2517,8.162,8.1439,8.2093,8.3708,8.4516,8.4516,8.5324,8.5709,8.5709,8.5863,8.5901,8.594,8.6055,8.6094,8.6094,8.6094,8.6094,8.6094,8.6094,8.6094,8.6094,8.5978,8.5978,8.6094,9.6288,9.6288,9.6288,9.6288,9.6288,9.634,9.6426,9.6474,9.6536,9.678,9.6039,9.5291,9.4666,9.3868,9.3086,9.2342,9.2348,9.239,9.2272,9.2268,9.2112,9.1683,9.1214,9.0413,8.9199,8.8864,8.8476,8.8047,8.7695,8.75,8.7539,8.832,8.8476,8.8086,8.8515,8.8711,8.8711,8.8711,8.8984,8.9453,9.0273,9.0898,9.1328,9.1758,9.2187,9.2695,9.3594,9.3906,9.4023,9.4922,9.5781,9.6367,9.5469,9.5508,9.5742,9.4844,9.3633,9.2617,9.2617,9.2617,9.2617,9.2617,9.2617,9.2617,9.2617,9.2617,9.25,9.207,9.1328,9.0586,9.0156,8.8711,8.6992,8.5351,8.3203,0.0,7.8945,7.9258,7.9726,7.9844,8.1719,8.3164,8.3633,8.3711,8.3711,8.3711,8.3711,8.3515,8.3047,8.2706,8.2487,8.2303,8.2419,8.2631,8.2978,8.4247,8.4901,8.4901,8.5709,8.6094,8.6094,8.6094,8.6094,8.6094,8.6094,8.6094,8.6094,8.6094,8.6094,8.6094,8.6094,8.6094,8.6055,8.5632,8.5747,8.6055,9.6288,9.6288,9.6325,9.6355,9.6373,9.6448,9.6656,9.667,9.6792,9.7065,9.6156,9.5342,9.4934,9.393,9.3098,9.2656,9.2617,9.2617,9.2617,9.2617,9.25,9.2304,9.1289,9.0078,8.8711,8.8515,8.8125,8.75,8.75,8.75,8.7539,8.832,8.8359,8.7812,8.8437,8.8711,8.8711,8.8711,8.9101,8.9726,9.0156,9.0703,9.1328,9.1523,9.2031,9.2695,9.3594,9.3906,9.4023,9.4922,9.5781,9.6367,9.5703,9.5976,9.6367,9.5703,9.4414,9.3164,9.2969,9.2734,9.2617,9.2617,9.2617,9.2617,9.2617,9.2617,9.2617,9.2617,9.1914,9.1289,9.1289,8.9883,8.8242,8.6836,0.0,8.1914,0.0,8.0312,8.039,8.1484,8.2969,8.4179,8.4844,8.4883,8.4883,8.4883,8.4883,8.4609,8.3945,8.3719,8.3176,8.2237,8.3114,8.3708,8.3901,8.4747,8.517,8.5209,8.5786,8.6094,8.6094,8.6094,8.6094,8.6094,8.6094,8.6094,8.6094,8.6094,8.6094,8.6094,8.6094,8.6094,8.6017,8.5401,8.5555,8.6017,9.6288,9.6288,9.6355,9.6566,9.6585,9.6669,9.6944,9.6984,9.7074,9.7338,9.591,9.4938,9.5154,9.3671,9.2656,9.2617,9.2617,9.2617,9.2617,9.2617,9.2226,9.1445,8.9804,8.8828,8.8711,8.7969,8.7578,8.75,8.75,8.75,8.7539,8.832,8.8672,8.8594,8.8672,8.8711,8.8711,8.8711,8.875,8.8945,9.0547,9.125,9.1406,9.2187,9.2539,9.2695,9.3594,9.3906,9.4023,9.4922,9.5781,9.6484,9.6406,9.6445,9.6484,9.6406,9.5742,9.4844,9.4023,9.3203,9.2617,9.2617,9.2617,9.2617,9.2617,9.2617,9.2617,9.2617,9.1914,9.1289,9.1289,8.9883,8.7656,8.4414,0.0,0.0,8.0039,8.0429,8.1523,8.3203,8.4219,8.4844,8.4883,8.4883,8.4883,8.4883,8.4883,8.4883,8.4804,8.4617,8.4254,8.3762,8.3645,8.3978,8.4786,8.5632,8.6017,8.6017,8.6055,8.6094,8.6094,8.6094,8.6094,8.6094,8.6094,8.6094,8.6094,8.6094,8.6094,8.6094,8.6094,8.6094,8.6094,8.6017,8.6055,8.6094,9.6474,9.6483,9.6566,9.6804,9.686,9.6954,9.722,9.7246,9.7343,9.7559,9.7018,9.6243,9.5312,9.4609,9.3789,9.2695,9.2617,9.2617,9.2617,9.2617,9.2226,9.1328,9.0156,8.9258,8.8711,8.8398,8.8008,8.75,8.75,8.75,8.75,8.7812,8.7969,8.7969,8.7969,8.8242,8.8672,8.8164,8.8554,8.9531,8.9648,9.0351,9.1328,9.1679,9.2148,9.2656,9.2969,9.3086,9.3125,9.3476,9.4531,9.5586,9.5078,9.5976,9.7226,9.7226,9.664,9.582,9.4922,9.4062,9.3281,9.2734,9.3008,9.3398,9.3398,9.3398,9.3398,9.3398,9.2695,9.2109,9.2109,9.1133,8.9726,8.7851,0.0,8.5117,8.3906,8.3554,8.3867,8.5078,8.5508,8.5937,8.6445,8.6523,8.6523,8.6523,8.6523,8.6289,8.5742,8.5007,8.4685,8.4903,8.4686,8.4701,8.4901,8.5709,8.6094,8.6094,8.6094,8.6094,8.6094,8.6094,8.6094,8.6094,8.6094,8.6094,8.6094,8.6094,8.5824,8.5401,8.5901,8.5786,8.544,8.594,8.6094,8.6094,9.6708,9.672,9.6815,9.7082,9.7123,9.7227,9.7444,9.7497,9.7552,9.7695,9.7461,9.6875,9.5742,9.5351,9.4726,9.3515,9.3164,9.3008,9.3008,9.25,9.2031,9.1719,9.0859,9.0,8.914,8.8828,8.832,8.75,8.75,8.75,8.75,8.75,8.75,8.75,8.75,8.7812,8.8281,8.7734,8.8164,8.9219,8.914,8.9804,9.0937,9.1484,9.207,9.2617,9.2617,9.2773,9.3008,9.3008,9.4179,9.5508,9.4883,9.6094,9.7695,9.7695,9.7304,9.6679,9.5859,9.5156,9.4453,9.3281,9.3672,9.4297,9.4297,9.4297,9.4297,9.4297,9.3594,9.3008,9.3008,9.2304,9.125,8.9804,8.8633,8.7383,8.5976,8.5508,8.5547,8.6133,8.6445,8.6836,8.7422,8.75,8.75,8.75,8.75,8.7226,8.664,8.5491,8.5108,8.563,8.5009,8.4786,8.4974,8.5735,8.6094,8.6094,8.6094,8.6094,8.6094,8.6094,8.6094,8.6094,8.6094,8.5978,8.5709,8.5709,8.5401,8.4939,8.5517,8.5555,8.5363,8.5901,8.6094,8.6094,9.7012,9.7012,9.7091,9.7348,9.7412,9.7487,9.7655,9.7695,9.7695,9.7695,9.6992,9.6523,9.6484,9.5742,9.5195,9.5195,9.4414,9.3906,9.3906,9.2265,9.1719,9.2578,9.1758,9.0898,9.0039,8.914,8.832,8.75,8.75,8.75,8.75,8.75,8.75,8.75,8.75,8.75,8.75,8.75,8.75,8.7656,8.9336,9.0,9.0195,9.1953,9.2617,9.2617,9.2617,9.3164,9.3906,9.3906,9.5078,9.6484,9.6523,9.707,9.7695,9.7695,9.7695,9.7539,9.6719,9.6484,9.6094,9.4336,9.457,9.5195,9.5195,9.5195,9.5195,9.5195,9.4492,9.3906,9.3906,9.3164,9.1758,8.914,8.8711,8.7812,8.5273,8.5664,8.6211,8.6211,8.6953,8.75,8.75,8.75,8.75,8.75,8.75,8.75,8.75,8.6239,8.5637,8.5899,8.4436,8.4117,8.5202,8.5799,8.6094,8.6094,8.6094,8.6094,8.6094,8.6094,8.6094,8.6094,8.6094,8.5632,8.4901,8.4901,8.4901,8.4901,8.4901,8.5401,8.6094,8.6094,8.6094,8.6094,9.7246,9.7265,9.7354,9.7563,9.7609,9.7612,9.7695,9.7695,9.7695,9.7695,9.75,9.7148,9.6562,9.6289,9.5859,9.5234,9.4414,9.3633,9.3047,9.25,9.2344,9.2578,9.1758,9.1172,9.0937,9.0078,8.9179,8.8359,8.7773,8.75,8.75,8.75,8.75,8.75,8.75,8.75,8.75,8.75,8.75,8.7656,8.9336,9.0,9.0195,9.1953,9.2617,9.2617,9.2617,9.3164,9.3906,9.3906,9.5078,9.6601,9.7148,9.75,9.7695,9.7695,9.7695,9.7539,9.6719,9.6914,9.6914,9.5234,9.5469,9.6094,9.6094,9.6094,9.5937,9.5312,9.4492,9.3711,9.3086,9.2773,9.2148,9.0742,9.0,8.914,8.7773,8.7304,8.7109,8.7109,8.7344,8.75,8.75,8.75,8.75,8.75,8.75,8.75,8.75,8.7137,8.6834,8.6757,8.5695,8.5446,8.6093,8.5529,8.5555,8.6094,8.6094,8.6094,8.6094,8.6094,8.6094,8.6055,8.5517,8.5132,8.4863,8.4247,8.3632,8.3208,8.4439,8.467,8.4478,8.567,8.6094,8.6017,9.7497,9.7505,9.7557,9.7695,9.7695,9.7695,9.7695,9.7695,9.7695,9.7695,9.7695,9.75,9.7031,9.6953,9.6758,9.6211,9.5117,9.3906,9.2695,9.2617,9.2617,9.2617,9.2109,9.1484,9.0781,9.0273,8.9414,8.8242,8.7734,8.75,8.75,8.7812,8.7812,8.7539,8.8203,8.8125,8.7539,8.7851,8.7969,8.8086,8.9453,9.0195,9.0664,9.207,9.2617,9.2617,9.2617,9.3164,9.3945,9.4297,9.5547,9.707,9.7539,9.7695,9.7695,9.7695,9.7695,9.7578,9.7109,9.7344,9.7461,9.6445,9.6367,9.6562,9.6914,9.6445,9.5937,9.5742,9.4765,9.375,9.3203,9.2812,9.2304,9.1445,9.0859,9.0195,8.9336,8.8515,8.7969,8.7969,8.7695,8.75,8.75,8.75,8.75,8.75,8.75,8.75,8.75,8.7416,8.7327,8.7275,8.5912,8.5669,8.6747,8.534,8.5175,8.6268,8.6268,8.6268,8.6253,8.6137,8.6094,8.6055,8.5247,8.4709,8.4324,8.3439,8.2785,8.2401,8.3478,8.3978,8.4247,8.5247,8.5632,8.5555,9.7695,9.7695,9.7695,9.7695,9.7695,9.7695,9.7695,9.7695,9.7695,9.7695,9.7695,9.7656,9.7617,9.7656,9.7656,9.7617,9.6133,9.4492,9.2812,9.2656,9.2617,9.2617,9.2617,9.1836,9.0156,9.0117,8.9375,8.7851,8.7695,8.7656,8.7734,8.8398,8.8359,8.7773,8.9336,8.9101,8.7656,8.8398,8.8711,8.8789,8.9648,9.0508,9.1406,9.2265,9.2617,9.2617,9.2617,9.3164,9.4062,9.5,9.6367,9.7695,9.7695,9.7695,9.7695,9.7695,9.7695,9.7695,9.7695,9.7695,9.7695,9.7695,9.7109,9.6719,9.7539,9.6445,9.5508,9.625,9.5078,9.3867,9.3789,9.3125,9.2344,9.1562,9.1367,9.1015,9.0234,8.9375,8.8789,8.8711,8.8047,8.7578,8.75,8.75,8.75,8.75,8.75,8.75,8.75,8.7277,8.7233,8.75,8.5473,8.5234,8.7065,8.5273,8.5114,8.6517,8.6517,8.6505,8.6506,8.6253,8.6088,8.594,8.5132,8.4286,8.3401,8.2554,8.2247,8.2285,8.2285,8.3324,8.4786,8.4863,8.4863,8.4786,9.7695,9.7695,9.7695,9.7695,9.7695,9.7695,9.7695,9.7695,9.7695,9.7695,9.7695,9.7461,9.6836,9.7304,9.7461,9.6836,9.5781,9.4765,9.3672,9.2969,9.2617,9.2617,9.2617,9.2109,9.1054,9.1015,9.0859,9.0469,8.9101,8.8789,8.9453,8.8945,8.8984,8.9453,8.9844,8.9414,8.8437,8.8633,8.8711,8.8789,8.9648,9.0508,9.1406,9.2265,9.2617,9.2617,9.2617,9.3164,9.414,9.5703,9.6875,9.7695,9.7695,9.7695,9.7695,9.7695,9.7695,9.7695,9.7695,9.7695,9.7695,9.7695,9.7109,9.6719,9.7539,9.6914,9.6094,9.5586,9.4648,9.3672,9.3008,9.2734,9.2539,9.2344,9.1758,9.1211,9.1054,9.0273,8.9453,8.8789,8.8554,8.8203,8.7578,8.75,8.75,8.75,8.75,8.75,8.75,8.7459,8.7459,8.75,8.6361,8.6218,8.7104,8.6218,8.6086,8.6738,8.6738,8.663,8.6519,8.6442,8.5941,8.5132,8.4247,8.3401,8.2516,8.1708,8.1747,8.2285,8.2285,8.2939,8.3939,8.467,8.4478,8.3785,9.7695,9.7695,9.7695,9.7695,9.7695,9.7695,9.7695,9.7695,9.7695,9.7695,9.7695,9.7539,9.7109,9.7461,9.7383,9.6562,9.6094,9.5273,9.3984,9.3476,9.3047,9.2617,9.2617,9.2383,9.1914,9.1914,9.1523,9.0664,8.9765,8.9531,9.0,8.9961,8.9961,9.0039,9.0859,9.0273,8.875,8.9609,8.9687,8.9414,9.0273,9.1133,9.1953,9.2422,9.2617,9.2617,9.2617,9.3164,9.4023,9.4961,9.6094,9.7148,9.7148,9.7383,9.7695,9.7695,9.7695,9.7695,9.7695,9.7695,9.7695,9.7695,9.7383,9.7187,9.7617,9.6445,9.5234,9.5195,9.4179,9.3125,9.2695,9.2617,9.2617,9.2617,9.2226,9.1914,9.1914,9.1172,9.0312,8.9414,8.8945,8.8398,8.7578,8.75,8.75,8.75,8.75,8.75,8.75,8.75,8.75,8.75,8.664,8.656,8.7282,8.656,8.6513,8.7135,8.6991,8.6857,8.662,8.6126,8.5741,8.5401,8.4132,8.3593,8.3478,8.2631,8.2554,8.2862,8.2439,8.2824,8.367,8.4093,8.3978,8.3401,9.7695,9.7695,9.7695,9.7695,9.7695,9.7695,9.7695,9.7695,9.7695,9.7695,9.7695,9.7656,9.75,9.75,9.7265,9.6758,9.6562,9.582,9.4219,9.3984,9.3515,9.2656,9.2617,9.2617,9.2617,9.2617,9.1875,9.0429,9.0312,9.0312,9.0469,9.1015,9.0976,9.0508,9.1797,9.1094,8.9023,9.0312,9.0508,9.0078,9.0781,9.1679,9.2617,9.2617,9.2617,9.2617,9.2617,9.3164,9.3906,9.3906,9.5078,9.6484,9.6484,9.7031,9.7695,9.7695,9.7695,9.7695,9.7695,9.7695,9.7695,9.7695,9.7695,9.7695,9.7695,9.5859,9.4336,9.5039,9.3828,9.2617,9.2617,9.2617,9.2617,9.2617,9.2617,9.2617,9.2617,9.1992,9.1211,9.0312,8.9336,8.8398,8.7578,8.75,8.75,8.75,8.75,8.75,8.75,8.7344,8.7344,8.75,8.664,8.6601,8.75,8.6797,8.6797,8.75,8.7228,8.6919,8.6536,8.5613,8.5355,8.5593,8.4209,8.4016,8.4632,8.3901,8.367,8.3708,8.2708,8.2901,8.3785,8.3632,8.3593,8.3362,9.7695,9.7695,9.7695,9.7695,9.7695,9.7695,9.7695,9.7695,9.7695,9.7695,9.7695,9.7422,9.6758,9.664,9.6914,9.75,9.6914,9.6094,9.5078,9.4336,9.3515,9.2656,9.2617,9.2617,9.2617,9.2617,9.2461,9.2265,9.1484,9.1523,9.2226,9.1601,9.164,9.2226,9.1719,9.0859,8.9804,8.9258,8.9414,9.0,9.0117,9.1133,9.2617,9.2617,9.2617,9.2617,9.2617,9.3164,9.3906,9.3906,9.5078,9.6484,9.6484,9.7031,9.7695,9.7695,9.7695,9.7695,9.7695,9.7695,9.7695,9.7695,9.7695,9.7695,9.7695,9.6328,9.5078,9.5195,9.3828,9.2617,9.2617,9.2617,9.2617,9.2617,9.2617,9.2617,9.2617,9.25,9.2109,9.1211,8.9687,8.8398,8.7578,8.75,8.75,8.75,8.75,8.75,8.75,8.6797,8.6719,8.7461,8.664,8.6601,8.75,8.7383,8.7383,8.75,8.7228,8.6607,8.5688,8.5353,8.475,8.3939,8.3708,8.367,8.3747,8.3632,8.4055,8.4555,8.2939,8.3285,8.4632,8.3862,8.3593,8.3439,9.7695,9.7695,9.7695,9.7695,9.7695,9.7695,9.7695,9.7695,9.7695,9.7695,9.7695,9.7578,9.7226,9.7187,9.7304,9.7656,9.7383,9.6601,9.5273,9.4844,9.4023,9.2656,9.2617,9.2617,9.2617,9.2617,9.2617,9.2617,9.2226,9.2226,9.2578,9.2226,9.1953,9.1875,9.1992,9.1289,9.0039,9.0625,9.082,9.0781,9.125,9.1914,9.2617,9.2617,9.2617,9.2617,9.2617,9.2851,9.3164,9.3164,9.4336,9.5781,9.5781,9.664,9.7695,9.7695,9.7695,9.7695,9.7695,9.7695,9.7695,9.7695,9.7695,9.7695,9.7695,9.6406,9.5195,9.5195,9.3828,9.2617,9.2617,9.2617,9.2617,9.2617,9.2617,9.2617,9.2617,9.2617,9.2109,9.0742,8.9062,8.789,8.7539,8.75,8.75,8.75,8.75,8.75,8.75,8.7148,8.7109,8.75,8.7148,8.7109,8.75,8.75,8.75,8.75,8.6628,8.6207,8.6186,8.5508,8.5137,8.4978,8.4516,8.4593,8.5016,8.5016,8.5209,8.5401,8.367,8.3478,8.4016,8.267,8.2785,8.3478]}]]